     2.11           OBSERVATION DATA    G (GPS)             RINEX VERSION / TYPE
teqc 2010Oct21 OPUS Account 20111028 17:05:48UTC            PGM / RUN BY / DATE
R 1527                                                      MARKER NAME
3076                                                        MARKER NUMBER
CSMIDDLETON NGS                                             OBSERVER / AGENCY
0220390627 TRIMBLE R7 2.32                                  REC # / TYPE / VERS
60124849 TRM41249.00 NONE                                   ANT # / TYPE
  -713163.1067 -5594224.7834  2969350.0956                  APPROX POSITION XYZ
        2.0010        0.0000        0.0000                  ANTENNA: DELTA H/E/N
     1     1                                                WAVELENGTH FACT L1/2
     5    L1    L2    C1    P1    P2                        # / TYPES OF OBSERV
    15                                                      LEAP SECONDS
  2011     8    25     0     0   30.0000000     GPS         TIME OF FIRST OBS
                                                            END OF HEADER
 11  8 25  0  0 30.0000000  0  9G17G10G09G12G05G02G04G25G30
 -37509116.95357 -29198330.24654  23295008.2974                   23295007.8404
 -31063203.42258 -24063642.82056  20991833.5234                   20991832.6254
 -16302536.65257 -12693132.55154  23802695.4694                   23802697.5124
 -23757691.00457 -18474274.82456  21608928.9304                   21608927.1454
 -19719271.90657 -15336567.48456  22052301.7114                   22052301.5234
 -35004153.50058 -27246553.96956  20775480.3754                   20775476.7704
 -35479159.07458 -27482505.97355  21850442.6954                   21850441.9304
  -3421653.28157  -2590831.38354  24310056.4304                   24310058.4884
  -1247858.17656   -457091.41053  24312180.0474                   24312180.3244
 11  8 25  0  1  0.0000000  0  9G17G10G09G12G05G02G04G25G30
 -37492428.93747 -29185326.66044  23298183.1954                   23298183.4804
 -31095605.16447 -24088890.91846  20985667.4924                   20985666.5004
 -16260249.35547 -12660181.54344  23810742.9694                   23810745.2034
 -23853477.73048 -18548913.80946  21590701.6174                   21590699.5354
 -19843088.52747 -15433047.84846  22028739.7664                   22028740.3444
 -35038903.88348 -27273632.16446  20768867.6174                   20768863.9654
 -35437509.03148 -27450051.40245  21858367.7344                   21858367.6454
  -3556159.59847  -2695641.39844  24284460.2664                   24284462.8554
  -1384608.98446   -563650.34043  24286156.2344                   24286158.0634
 11  8 25  0  1 30.0000000  0  9G17G10G09G12G05G02G04G25G30
 -37475561.11347 -29172182.95744  23301393.4924                   23301393.4414
 -31127355.67248 -24113631.55946  20979625.6564                   20979624.8204
 -16217778.71547 -12627087.67244  23818824.7344                   23818827.8134
 -23948817.64548 -18623204.61746  21572559.0234                   21572556.8404
 -19966572.32847 -15529268.87546  22005241.6954                   22005242.0314
 -35073352.73048 -27300475.41047  20762312.2504                   20762308.8594
 -35395710.19148 -27417480.89545  21866322.1414                   21866321.5124
  -3690473.57046  -2800301.58243  24258901.6564                   24258903.2774
  -1521116.48046   -670019.68443  24260180.7734                   24260181.7854
 11  8 25  0  2  0.0000000  0  9G17G10G09G12G05G02G04G25G30
 -37458510.71947 -29158896.97344  23304637.9144                   23304638.2194
 -31158452.49648 -24137862.82846  20973708.4454                   20973707.5354
 -16175125.52046 -12593851.58244  23826940.9694                   23826944.2274
 -24043705.98848 -18697143.55946  21554502.1334                   21554500.0984
 -20089717.68747 -15625226.17246  21981807.8674                   21981807.8954
 -35107498.53548 -27327082.51646  20755814.5784                   20755810.5634
 -35353761.91848 -27384793.93745  21874304.9924                   21874304.4024
  -3824590.25046  -2904808.01243  24233379.3914                   24233381.7074
  -1657375.45746   -776195.37543  24234250.9694                   24234252.0314
 11  8 25  0  2 30.0000000  0  9G17G10G09G12G05G02G04G25G30
 -37441287.79747 -29145476.57844  23307915.8134                   23307915.8754
 -31188906.37148 -24161593.10246  20967913.0234                   20967911.8204
 -16132303.75447 -12560484.13344  23835090.1024                   23835093.1524
 -24138151.07848 -18770737.09846  21536529.9224                   21536527.9064
 -20212532.39547 -15720925.82846  21958437.1094                   21958436.8094
 -35141353.16448 -27353462.72346  20749372.2974                   20749368.3244
 -35311676.91848 -27352000.44945  21882312.8594                   21882312.3594
  -3958517.52046  -3009166.81243  24207894.0864                   24207896.8754
  -1793393.65246   -882183.46143  24208368.1414                   24208368.4104
 11  8 25  0  3  0.0000000  0  9G17G10G09G12G05G02G04G25G30
 -37423892.59447 -29131921.93744  23311225.7504                   23311226.4734
 -31218718.00848 -24184822.92246  20962240.0394                   20962238.9774
 -16089317.59847 -12526988.60544  23843270.0864                   23843273.3594
 -24232151.59848 -18843984.23046  21518642.0084                   21518640.2974
 -20335014.75047 -15816366.50846  21935129.6254                   21935129.3794
 -35174918.85948 -27379617.79346  20742984.8134                   20742980.8984
 -35269458.15648 -27319102.71545  21890346.8754                   21890346.7934
  -4092253.72746  -3113376.71943  24182445.3914                   24182447.0314
  -1929169.27046   -987982.55143  24182530.4924                   24182531.3134
 11  8 25  0  3 30.0000000  0  9G17G10G09G12G05G02G04G25G30
 -37406334.96947 -29118240.71944  23314566.4924                   23314567.3404
 -31247897.43048 -24207560.11346  20956687.1804                   20956686.2194
 -16046181.11347 -12493375.94544  23851478.7584                   23851482.0704
 -24325715.54748 -18916891.17646  21500837.4534                   21500835.4654
 -20457172.35247 -15911554.14146  21911883.5704                   21911883.3014
 -35208207.17248 -27405556.70746  20736650.2424                   20736646.7234
 -35227117.95748 -27286110.36745  21898404.1644                   21898403.5234
  -4225806.76947  -3217443.91244  24157030.5554                   24157032.8404
  -2064709.90246  -1093598.53943  24156738.1954                   24156738.3754
 11  8 25  0  4  0.0000000  0  9G17G10G09G12G05G02G04G25G30
 -37388611.50847 -29104430.28944  23317939.9614                   23317940.2424
 -31276442.02348 -24229802.62946  20951255.7344                   20951254.4924
 -16002894.52746 -12459646.31644  23859716.7424                   23859719.1954
 -24418837.75048 -18989453.91046  21483116.8364                   21483114.7934
 -20578999.34847 -16006484.15646  21888700.0944                   21888700.3324
 -35241216.33248 -27431278.10246  20730368.8914                   20730365.1174
 -35184655.14548 -27253022.47345  21906484.3594                   21906484.1134
  -4359171.02747  -3321364.00444  24131652.0084                   24131654.3524
  -2200009.79346  -1199026.94943  24130990.9614                   24130991.8594
 11  8 25  0  4 30.0000000  0  9G17G10G09G12G05G02G04G25G30
 -37370714.12547 -29090484.30544  23321345.6884                   23321345.8054
 -31304344.74648 -24251544.97346  20945945.8754                   20945944.6644
 -15959454.04347 -12425796.77744  23867982.9924                   23867985.9414
 -24511508.82848 -19061665.11746  21465481.7114                   21465480.2194
 -20700485.60947 -16101148.66046  21865582.0944                   21865582.0004
 -35273939.93748 -27456776.99246  20724141.8444                   20724138.0394
 -35142064.52748 -27219834.99645  21914589.6414                   21914588.9654
  -4492336.55547  -3425129.22344  24106311.4224                   24106314.0204
  -2335058.63347  -1304259.74243  24105292.4924                   24105292.6024
 11  8 25  0  5  0.0000000  0  9G17G10G09G12G05G02G04G25G30
 -37352644.43747 -29076404.06645  23324784.4774                   23324784.7034
 -31331607.90648 -24272788.95746  20940758.0944                   20940756.4614
 -15915865.06647 -12391831.53144  23876278.1174                   23876280.7304
 -24603728.64148 -19133524.68046  21447933.1254                   21447931.1484
 -20821630.68047 -16195547.30946  21842529.4384                   21842528.9104
 -35306381.60948 -27482056.18746  20717968.4064                   20717964.4064
 -35099349.96948 -27186550.94545  21922717.6644                   21922716.9804
  -4625302.94547  -3528739.28544  24081008.5944                   24081011.2194
  -2469856.19147  -1409296.71544  24079640.8524                   24079641.7504
 11  8 25  0  5 30.0000000  0  9G17G10G09G12G05G02G04G25G30
 -37334400.19147 -29062187.82444  23328256.0084                   23328256.8554
 -31358229.44548 -24293532.98046  20935691.5864                   20935690.8164
 -15872129.13347 -12357751.76644  23884600.3594                   23884603.5824
 -24695492.95748 -19205029.32446  21430470.8364                   21430469.0084
 -20942429.80547 -16289676.39146  21819541.4064                   21819541.3714
 -35338540.62948 -27507115.14146  20711848.7274                   20711844.3054
 -35056511.67248 -27153170.48445  21930869.7274                   21930869.1134
  -4758065.60547  -3632190.60544  24055744.4534                   24055747.1094
  -2604397.32846  -1514133.89843  24054039.0314                   24054039.4844
 11  8 25  0  6  0.0000000  0  9G17G10G09G12G05G02G04G25G30
 -37315981.64847 -29047835.73444  23331760.7344                   23331760.8244
 -31384210.60248 -24313777.98846  20930747.9144                   20930746.5514
 -15828250.75847 -12323561.04343  23892950.0474                   23892953.2304
 -24786800.33248 -19276177.89846  21413095.8364                   21413093.7464
 -21062881.03548 -16383534.37546  21796620.3754                   21796620.5664
 -35370419.07048 -27531955.46146  20705782.2584                   20705778.3054
 -35013552.55948 -27119695.87545  21939044.4304                   21939044.1094
  -4890622.98447  -3735481.96144  24030520.3524                   24030522.0824
  -2738680.38747  -1618770.00044  24028485.3984                   24028485.7154
 11  8 25  0  6 30.0000000  0  9G17G10G09G12G05G02G04G25G30
 -37297382.72347 -29033343.13744  23335299.9614                   23335301.2154
 -31409546.04348 -24333519.85546  20925926.5084                   20925925.0984
 -15784227.52347 -12289257.41044  23901328.5634                   23901331.0594
 -24877643.19148 -19346964.52046  21395808.6024                   21395806.9924
 -21182976.44147 -16477115.10546  21773767.0474                   21773767.1804
 -35402012.71948 -27556573.86346  20699770.1094                   20699766.1684
 -34970468.67648 -27086124.03945  21947242.9924                   21947242.3204
  -5022966.75047  -3838606.87545  24005335.8364                   24005337.9454
  -2872696.93047  -1723198.39843  24002982.6484                   24002983.2934
 11  8 25  0  7  0.0000000  0  9G17G10G09G12G05G02G04G25G30
 -37278604.37547 -29018710.71944  23338873.6724                   23338873.9224
 -31434237.12948 -24352759.61746  20921227.6884                   20921226.6764
 -15740064.44147 -12254844.82844  23909732.6564                   23909735.3054
 -24968020.89548 -19417388.68046  21378610.9454                   21378609.0084
 -21302714.17247 -16570417.11746  21750981.7664                   21750981.3554
 -35433324.03948 -27580972.27346  20693811.7664                   20693808.0044
 -34927263.72748 -27052457.87945  21955464.6334                   21955464.0744
  -5155095.98447  -3941564.62944  23980192.2974                   23980194.5984
  -3006445.66447  -1827418.10243  23977531.1334                   23977531.4184
 11  8 25  0  7 30.0000000  0  9G17G10G09G12G05G02G04G25G30
 -37259641.11347 -29003934.21545  23342482.8444                   23342482.7424
 -31458279.19548 -24371493.66846  20916653.0234                   20916651.8794
 -15695759.60247 -12220321.75844  23918163.4454                   23918166.0664
 -25057925.89548 -19487444.50046  21361502.1174                   21361500.4184
 -21422086.56247 -16663434.46146  21728265.8754                   21728265.4264
 -35464349.16448 -27605147.68046  20687908.0314                   20687904.0234
 -34883934.17248 -27018694.62145  21963709.8594                   21963709.6024
  -5287002.73447  -4044349.03144  23955091.0784                   23955093.1134
  -3139918.53146  -1931422.89543  23952132.5314                   23952132.1564
 11  8 25  0  8  0.0000000  0  9G17G10G09G12G05G02G04G25G30
 -37240498.95747 -28989018.27744  23346124.5864                   23346125.5474
 -31481679.02748 -24389727.27046  20912200.3364                   20912198.7584
 -15651323.07047 -12185696.08244  23926619.3204                   23926622.5864
 -25147362.72348 -19557135.51646  21344483.0704                   21344481.1094
 -21541097.62948 -16756170.25446  21705618.7194                   21705617.9024
 -35495095.93448 -27629106.18446  20682057.1414                   20682053.2304
 -34840488.82048 -26984841.14545  21971977.6954                   21971977.2934
  -5418691.15647  -4146963.34044  23930031.7344                   23930034.0314
  -3273119.57846  -2035215.84443  23926785.1644                   23926784.8674
 11  8 25  0  8 30.0000000  0  9G17G10G09G12G05G02G04G25G30
 -37221178.94547 -28973963.75045  23349801.6174                   23349802.0944
 -31504438.64148 -24407462.00446  20907868.9694                   20907867.8634
 -15606759.84847 -12150971.68743  23935099.7974                   23935102.6724
 -25236331.15648 -19626461.54746  21327552.5084                   21327550.8094
 -21659746.29748 -16848623.66846  21683040.3594                   21683039.6844
 -35525567.44548 -27652850.19946  20676258.5864                   20676254.3444
 -34796931.05948 -26950900.07845  21980266.1414                   21980266.0824
  -5550160.28547  -4249406.77344  23905013.9614                   23905016.1484
  -3406047.62546  -2138795.99643  23901488.8134                   23901489.3094
 11  8 25  0  9  0.0000000  0  9G17G10G09G12G05G02G04G25G30
 -37201679.12947 -28958769.12945  23353512.4454                   23353512.9734
 -31526557.12948 -24424697.16046  20903659.6954                   20903658.6914
 -15562071.88747 -12116150.07444  23943603.5004                   23943607.2424
 -25324827.27048 -19695419.54346  21310712.6414                   21310710.6374
 -21778028.53148 -16940791.53946  21660531.8524                   21660531.5634
 -35555763.21948 -27676379.36346  20670512.3204                   20670508.7384
 -34753261.23848 -26916871.68745  21988576.2114                   21988575.7114
  -5681405.97747  -4351676.10944  23880038.8054                   23880040.6024
  -3538698.28046  -2242160.05943  23876246.0944                   23876246.1604
 11  8 25  0  9 30.0000000  0  9G17G10G09G12G05G02G04G25G30
 -37181992.34447 -28943428.82045  23357259.1804                   23357259.1644
 -31548028.48848 -24441428.07046  20899573.9614                   20899572.7274
 -15517255.81247 -12081228.65644  23952131.8444                   23952135.1914
 -25412842.40248 -19764002.73446  21293963.8284                   21293961.4104
 -21895934.88348 -17032666.52046  21638095.1564                   21638094.2894
 -35585677.55548 -27699689.21946  20664820.1414                   20664816.2734
 -34709474.58648 -26882752.25845  21996908.6024                   21996908.4414
  -5812419.02347  -4453764.16044  23855107.6884                   23855109.8524
  -3671062.28546  -2345300.70343  23851058.4304                   23851058.4924
 11  8 25  0 10  0.0000000  0  9G17G10G09G12G05G02G04G25G30
 -37162127.56647 -28927949.81645  23361038.7734                   23361039.3284
 -31568862.02748 -24457661.97346  20895609.5634                   20895608.5664
 -15472324.72747 -12046217.58644  23960682.1564                   23960685.4104
 -25500383.99248 -19832216.94546  21277304.9224                   21277303.1954
 -22013471.90648 -17124253.69946  21615728.3834                   21615727.9304
 -35615321.93448 -27722788.70746  20659178.9144                   20659174.9774
 -34665582.37548 -26848550.57045  22005261.2034                   22005260.6174
  -5943206.14547  -4555676.17244  23830219.3674                   23830221.6884
  -3803146.14546  -2448223.07443  23825922.7274                   23825923.6174
 11  8 25  0 10 30.0000000  0  9G17G10G09G12G05G02G04G25G30
 -37142084.46547 -28912331.87944  23364853.0864                   23364853.8524
 -31589058.25048 -24473399.26246  20891766.2114                   20891765.3954
 -15427282.25847 -12011119.75044  23969253.6254                   23969257.0554
 -25587450.01248 -19900060.57846  21260736.9454                   21260734.8404
 -22130637.32448 -17215551.33246  21593432.6804                   21593432.0984
 -35644697.24648 -27745678.55546  20653589.0164                   20653584.8954
 -34621586.54747 -26814268.13345  22013633.0394                   22013632.6054
  -6073764.94147  -4657410.28944  23805375.0704                   23805377.0744
  -3934947.26246  -2550925.10543  23800842.0314                   23800842.8484
 11  8 25  0 11  0.0000000  0  9G17G10G09G12G05G02G04G25G30
 -37121854.44947 -28896568.27744  23368702.3594                   23368703.0904
 -31608609.71148 -24488634.15646  20888045.9144                   20888044.6454
 -15382123.19147 -11975931.05543  23977846.8204                   23977851.0274
 -25674030.00048 -19967525.48446  21244261.1414                   21244259.1644
 -22247420.08248 -17306550.78146  21571209.2974                   21571208.9734
 -35673796.52048 -27768353.29746  20648051.4694                   20648047.3594
 -34577480.77048 -26779900.02745  22022026.5784                   22022025.3634
  -6204084.42647  -4758957.90644  23780576.2194                   23780577.7734
  -4066454.53946  -2653398.16843  23775817.4304                   23775817.7774
 11  8 25  0 11 30.0000000  0  9G17G10G09G12G05G02G04G25G30
 -37101444.60247 -28880664.53544  23372586.1954                   23372586.7934
 -31627524.60248 -24503373.01646  20884446.4454                   20884445.2934
 -15336858.57447 -11940660.10543  23986460.8284                   23986463.7854
 -25760129.84048 -20034616.25046  21227877.3754                   21227875.1454
 -22363825.15248 -17397255.93446  21549058.1644                   21549057.7774
 -35702628.71548 -27790819.92646  20642564.8364                   20642560.8954
 -34533274.54347 -26745453.64845  22030438.6024                   22030438.0664
  -6334169.74647  -4860323.05144  23755821.5234                   23755823.5274
  -4197672.99246  -2755646.21143  23750847.2504                   23750847.9494
 11  8 25  0 12  0.0000000  0  9G17G10G09G12G05G02G04G25G30
 -37080853.87947 -28864619.88744  23376504.7274                   23376505.5594
 -31645802.93448 -24517615.85546  20880968.1024                   20880967.2664
 -15291491.37547 -11905309.20343  23995094.2114                   23995097.4924
 -25845746.66048 -20101330.63346  21211584.5704                   21211582.8634
 -22479849.52048 -17487664.43746  21526979.5704                   21526978.9774
 -35731194.60248 -27813079.03546  20637128.7814                   20637124.9104
 -34488969.31247 -26710930.10945  22038869.5084                   22038868.8954
  -6464017.77347  -4961503.28544  23731112.1564                   23731114.4264
  -4328599.48846  -2857666.77043  23725932.5394                   23725933.0124
 11  8 25  0 12 30.0000000  0  9G17G10G09G12G05G02G04G25G30
 -37060077.54347 -28848430.58244  23380457.8984                   23380458.9884
 -31663440.69548 -24531359.55146  20877611.7734                   20877610.4964
 -15246020.46547 -11869877.48444  24003747.1254                   24003750.6024
 -25930874.28948 -20167663.82846  21195385.5784                   21195383.6024
 -22595486.22748 -17577770.86746  21504974.2734                   21504973.8284
 -35759490.93048 -27835128.10946  20631744.1564                   20631740.2344
 -34444562.45347 -26676327.38745  22047320.1804                   22047319.0514
  -6593621.57847  -5062493.22744  23706449.6024                   23706451.4064
  -4459226.66047  -2959454.09844  23701075.4144                   23701075.4884
 11  8 25  0 13  0.0000000  0  9G17G10G09G12G05G02G04G25G30
 -37039118.62147 -28832099.00444  23384446.6884                   23384447.0664
 -31680441.89848 -24544607.23046  20874376.4224                   20874375.2114
 -15200452.83246 -11834370.42643  24012418.7504                   24012422.6414
 -26015514.20348 -20233616.98446  21179279.2504                   21179277.0744
 -22710736.02348 -17667575.80946  21483042.9844                   21483042.6024
 -35787522.61348 -27856970.96146  20626409.8834                   20626406.3554
 -34400059.07047 -26641649.44545  22055788.3984                   22055788.1484
  -6722981.96947  -5163293.46544  23681832.9534                   23681835.1024
  -4589555.15647  -3061008.71544  23676274.2504                   23676274.5864
 11  8 25  0 13 30.0000000  0  9G17G10G09G12G05G02G04G25G30
 -37017975.18747 -28815623.63744  23388470.1174                   23388470.7734
 -31696805.81648 -24557358.32846  20871262.3754                   20871261.7704
 -15154790.30146 -11798789.41043  24021108.3444                   24021111.6414
 -26099662.93748 -20299187.40646  21163265.8754                   21163264.1564
 -22825594.87148 -17757076.11346  21461186.0394                   21461185.4534
 -35815289.17648 -27878607.22346  20621126.3984                   20621122.3714
 -34355459.60947 -26606896.61745  22064275.8754                   22064274.9064
  -6852094.72347  -5263900.74244  23657263.7814                   23657265.4734
  -4719580.84847  -3162327.37144  23651531.4924                   23651531.3594
 11  8 25  0 14  0.0000000  0  9G17G10G09G12G05G02G04G25G30
 -36996651.62147 -28799007.91044  23392527.3364                   23392528.4414
 -31712537.93448 -24569617.12146  20868268.9844                   20868267.5824
 -15109040.78546 -11763140.61743  24029813.9614                   24029818.3444
 -26183322.95748 -20364377.00446  21147346.1644                   21147344.0044
 -22940064.89147 -17846273.43746  21439402.9064                   21439402.5204
 -35842796.92248 -27900041.81246  20615891.3524                   20615887.3444
 -34310770.52747 -26572073.97745  22072779.5554                   22072779.2504
  -6980962.12147  -5364316.82044  23632741.2114                   23632742.6094
  -4849305.68047  -3263411.63744  23626845.7894                   23626845.9304
 11  8 25  0 14 30.0000000  0  9G17G10G09G12G05G02G04G25G30
 -36975143.43447 -28782248.34444  23396621.2194                   23396621.2424
 -31727634.62548 -24581380.76246  20865396.1954                   20865394.5634
 -15063203.85546 -11727423.71544  24038536.4924                   24038540.7114
 -26266488.39148 -20429181.21146  21131520.4144                   21131518.0634
 -23054139.64548 -17935162.76646  21417695.2664                   21417694.9844
 -35870042.81248 -27921272.35246  20610706.6644                   20610703.0164
 -34265989.70347 -26537179.83245  22081301.3054                   22081301.3914
  -7109577.45347  -5464536.47744  23608266.2344                   23608267.5634
  -4978722.86347  -3364256.17644  23602218.4304                   23602218.9344
 11  8 25  0 15  0.0000000  0  9G17G10G09G12G05G02G04G25G30
 -36953455.32047 -28765348.55544  23400747.1564                   23400748.2854
 -31742101.82048 -24592653.88746  20862643.0314                   20862641.8834
 -15017287.85546 -11691645.23443  24047273.8754                   24047278.4264
 -26349162.40648 -20493602.48846  21115787.8134                   21115786.0514
 -23167821.21948 -18023745.73046  21396062.0164                   21396061.8754
 -35897033.59048 -27942304.10946  20605570.8444                   20605566.9844
 -34221124.06647 -26502219.60245  22089838.6334                   22089838.7344
  -7237943.35547  -5564561.74645  23583839.1094                   23583840.9454
  -5107834.87547  -3464862.92644  23577649.2344                   23577649.3204
 11  8 25  0 15 30.0000000  0  9G17G10G09G12G05G02G04G25G30
 -36931584.07447 -28748306.09844  23404909.5634                   23404910.6684
 -31755937.56248 -24603434.97746  20860010.4844                   20860009.0704
 -14971293.32446 -11655805.54343  24056026.2584                   24056030.2584
 -26431340.68748 -20557637.49246  21100149.7814                   21100147.9024
 -23281105.16848 -18112018.85546  21374505.3284                   21374504.3014
 -35923767.68448 -27963135.85546  20600483.2974                   20600479.5864
 -34176172.58247 -26467192.48445  22098392.8284                   22098392.6374
  -7366054.41447  -5664388.44145  23559460.3444                   23559462.1684
  -5236636.09447  -3565227.49244  23553139.2894                   23553138.9884
 11  8 25  0 16  0.0000000  0  9G17G10G09G12G05G02G04G25G30
 -36909525.50847 -28731117.66444  23409107.3364                   23409108.0474
 -31769138.73048 -24613721.59446  20857498.0704                   20857497.0234
 -14925219.99246 -11619904.46143  24064794.3134                   24064798.4534
 -26513017.50048 -20621281.73046  21084607.4694                   21084605.0864
 -23393984.55548 -18199976.73046  21353024.9614                   21353024.3834
 -35950242.59848 -27983765.64846  20595445.2974                   20595441.4574
 -34131133.15647 -26432096.84445  22106963.5314                   22106962.9694
  -7493904.04747  -5764011.43045  23535130.7894                   23535132.9414
  -5365119.89147  -3665344.71544  23528689.6334                   23528689.1024
 11  8 25  0 16 30.0000000  0  9G17G10G09G12G05G02G04G25G30
 -36887280.22347 -28713783.71144  23413340.9534                   23413341.1884
 -31781706.97348 -24623515.02746  20855106.2664                   20855104.9534
 -14879071.85946 -11583945.06644  24073576.1334                   24073580.5474
 -26594191.44148 -20684534.13346  21069160.1804                   21069158.2934
 -23506457.66048 -18287618.03146  21331621.5944                   21331621.2544
 -35976460.08648 -28004194.84046  20590456.4304                   20590452.3364
 -34086008.30947 -26396934.64845  22115550.8134                   22115550.7584
  -7621490.52747  -5863429.34844  23510852.0634                   23510853.5434
  -5493284.24647  -3765213.02344  23504300.9064                   23504300.7074
 11  8 25  0 17  0.0000000  0  9G17G10G09G12G05G02G04G25G30
 -36864842.38347 -28696299.69944  23417610.7734                   23417611.4414
 -31793637.98848 -24632811.92246  20852835.6724                   20852834.6564
 -14832846.87546 -11547925.78543  24082372.7194                   24082376.5234
 -26674855.40648 -20747389.13746  21053810.5634                   21053808.3874
 -23618516.75848 -18374936.72746  21310297.2504                   21310297.1374
 -36002416.45348 -28024420.57046  20585516.9694                   20585512.5984
 -34040794.62947 -26361703.23045  22124154.4064                   22124154.0704
  -7748806.13747  -5962636.22344  23486624.3594                   23486626.5864
  -5621121.33647  -3864826.29744  23479973.8674                   23479973.8754
 11  8 25  0 17 30.0000000  0  9G17G10G09G12G05G02G04G25G30
 -36842217.74646 -28678670.16044  23421916.1804                   23421916.7384
 -31804939.14548 -24641618.01246  20850685.3754                   20850684.5394
 -14786555.21546 -11511854.57444  24091181.8524                   24091186.0204
 -26755014.14148 -20809850.46146  21038556.7344                   21038554.1524
 -23730165.93448 -18461936.00046  21289051.5084                   21289050.2344
 -36028119.56248 -28044448.96546  20580625.5474                   20580621.8244
 -33995500.38347 -26326409.03945  22132773.6254                   22132773.4924
  -7875854.87547  -6061635.12144  23462447.6094                   23462450.1254
  -5748635.00446  -3964187.55143  23455708.6484                   23455708.7734
 11  8 25  0 18  0.0000000  0  9G17G10G09G12G05G02G04G25G30
 -36819392.31247 -28660884.16044  23426260.0004                   23426259.5944
 -31815597.31248 -24649923.06246  20848657.1804                   20848656.1764
 -14740185.92246 -11475722.86743  24100005.6804                   24100010.4064
 -26834651.81248 -20871905.76246  21023402.0784                   21023399.8014
 -23841388.88748 -18548603.15246  21267886.1484                   21267885.4804
 -36053556.20748 -28064269.72346  20575784.9454                   20575781.2424
 -33950113.17647 -26291042.39545  22141410.5084                   22141410.0314
  -8002619.80147  -6160412.88744  23438325.0864                   23438327.0354
  -5875808.31646  -4063283.57443  23431508.1334                   23431508.2854
 11  8 25  0 18 30.0000000  0  9G17G10G09G12G05G02G04G25G30
 -36796381.04346 -28642953.34044  23430638.4384                   23430639.3164
 -31825628.57048 -24657739.62546  20846748.2814                   20846747.2464
 -14693757.68747 -11439545.23443  24108841.0084                   24108845.4184
 -26913781.69548 -20933565.37946  21008344.2894                   21008342.0554
 -23952198.18048 -18634947.97746  21246799.8364                   21246799.2034
 -36078743.57448 -28083896.23846  20570992.5634                   20570988.4844
 -33904650.17247 -26255616.70345  22150062.0634                   22150061.7934
  -8129113.71947  -6258979.48044  23414253.9144                   23414256.2894
  -6002653.73846  -4162124.05543  23407370.0554                   23407369.7624
 11  8 25  0 19  0.0000000  0  9G17G10G09G12G05G02G04G25G30
 -36773177.39147 -28624872.61344  23435054.1484                   23435054.7734
 -31835028.05948 -24665063.88346  20844959.3444                   20844958.7624
 -14647267.58646 -11403319.38744  24117688.0474                   24117691.9494
 -26992395.85948 -20994823.14546  20993384.3134                   20993382.5474
 -24062585.28148 -18720963.81246  21225793.6414                   21225793.1564
 -36103676.46948 -28103324.46946  20566247.5784                   20566244.0314
 -33859106.46547 -26220128.12545  22158728.8444                   22158728.6564
  -8255327.85247  -6357328.05144  23390236.4454                   23390237.9144
  -6129162.53146  -4260702.24643  23383296.9454                   23383296.1134
 11  8 25  0 19 30.0000000  0  9G17G10G09G12G05G02G04G25G30
 -36749783.83247 -28606643.91844  23439505.8834                   23439506.7424
 -31843799.64548 -24671898.87546  20843290.4144                   20843289.6644
 -14600721.93746 -11367050.27744  24126545.7344                   24126550.1844
 -27070495.48048 -21055679.96146  20978522.3834                   20978520.0984
 -24172550.59448 -18806650.99246  21204868.2894                   21204867.6374
 -36128359.25848 -28122557.80946  20561550.5474                   20561546.9654
 -33813487.33247 -26184580.78945  22167409.8364                   22167409.4384
  -8381262.74647  -6455459.07444  23366271.6484                   23366273.7544
  -6255335.06646  -4359018.41443  23359286.5634                   23359286.7544
 11  8 25  0 20  0.0000000  0  9G17G10G09G12G05G02G04G25G30
 -36726201.29946 -28588267.97644  23443993.1334                   23443994.1524
 -31851945.46148 -24678246.24246  20841740.3754                   20841738.9804
 -14554125.37147 -11330741.47343  24135412.8204                   24135417.3134
 -27148080.55548 -21116135.83246  20963758.8444                   20963756.3484
 -24282093.03948 -18892008.66046  21184022.7114                   21184021.9224
 -36152794.44148 -28141598.21546  20556900.6564                   20556897.0944
 -33767795.35247 -26148976.69145  22176104.6644                   22176104.4804
  -8506916.93447  -6553371.33244  23342360.3364                   23342362.0944
  -6381169.75846  -4457071.34443  23335340.9924                   23335340.8204
 11  8 25  0 20 30.0000000  0  9G17G10G09G12G05G02G04G25G30
 -36702432.91046 -28569747.20744  23448516.4304                   23448517.3984
 -31859470.07448 -24684109.55946  20840308.5314                   20840307.4774
 -14507484.55947 -11294398.20743  24144288.8054                   24144292.7734
 -27225152.46148 -21176191.84046  20949092.2664                   20949089.4774
 -24391213.74247 -18977037.69946  21163257.9144                   21163257.2664
 -36176986.97348 -28160449.53546  20552297.0784                   20552293.2854
 -33722035.80947 -26113319.93445  22184812.3594                   22184812.2584
  -8632291.29747  -6651065.58244  23318502.7114                   23318504.0704
  -6506667.38346  -4554861.60543  23311459.7734                   23311459.3364
 11  8 25  0 21  0.0000000  0  9G17G10G09G12G05G02G04G25G30
 -36678469.19146 -28551074.25044  23453076.9064                   23453077.5354
 -31866365.21148 -24689482.37546  20838996.4144                   20838995.2274
 -14460793.66446 -11258015.89843  24153173.0784                   24153178.4494
 -27301700.17648 -21235839.37946  20934525.6414                   20934523.3554
 -24499900.94148 -19061728.94546  21142575.2274                   21142574.4534
 -36200929.00848 -28179105.66846  20547741.3754                   20547737.4064
 -33676201.25847 -26077604.73045  22193535.0314                   22193534.0554
  -8757374.11747  -6748532.63344  23294699.8284                   23294701.5044
  -6631816.08247  -4652379.98444  23287644.7974                   23287644.5204
 11  8 25  0 21 30.0000000  0  9G17G10G09G12G05G02G04G25G30
 -35078902.89546 -27304659.00444  23757463.9534                   23757465.0944
 -30297224.08248 -23466774.98446  21137593.7274                   21137592.8554
 -12838649.65646  -9994007.80544  24461857.2034                   24461861.5944
 -25802311.62948 -20067484.64146  21219850.1414                   21219847.6094
 -23032741.04348 -17918487.40246  21421766.5784                   21421765.7234
 -34649212.86748 -26969976.20346  20843022.8594                   20843019.4104
 -32054886.86347 -24814242.89545  22502060.8054                   22502060.1484
  -7306750.72347  -5618176.68444  23570744.6334                   23570745.8054
  -5181201.17247  -3522030.60244  23563686.7584                   23563686.9804
 11  8 25  0 22  0.0000000  0  9G17G10G09G12G05G02G04G25G30
 -35054566.62947 -27285695.72744  23762094.7274                   23762095.9654
 -30302882.82448 -23471184.36746  21136517.2344                   21136515.9774
 -12791887.49246  -9957569.96143  24470755.6644                   24470760.9384
 -25877824.71948 -20126325.98046  21205480.4304                   21205478.2894
 -23140573.30148 -18002512.46146  21401246.5704                   21401245.8404
 -34672675.93048 -26988259.10546  20838558.3134                   20838554.1644
 -32008926.05547 -24778429.29745  22510806.9384                   22510806.2384
  -7431261.53147  -5715198.01244  23547050.7734                   23547052.0394
  -5305662.94147  -3619013.72344  23540003.0554                   23540002.7734
 11  8 25  0 22 30.0000000  0  9G17G10G09G12G05G02G04G25G30
 -35030033.58647 -27266579.11344  23766763.8364                   23766764.1914
 -30307915.04748 -23475105.55946  21135559.4924                   21135558.0514
 -12745084.41046  -9921100.23443  24479663.0634                   24479667.4024
 -25952808.36348 -20184754.77746  21191210.9304                   21191209.0044
 -23247964.68048 -18086193.98446  21380810.9534                   21380810.1174
 -34695891.88748 -27006349.46146  20834140.2034                   20834136.4884
 -31962894.41847 -24742560.51245  22519566.0864                   22519565.2544
  -7555472.43047  -5811985.67244  23523414.7114                   23523415.7074
  -5429767.10947  -3715718.19144  23516386.5864                   23516386.6294
 11  8 25  0 23  0.0000000  0  9G17G10G09G12G05G02G04G25G30
 -35005301.93446 -27247307.76244  23771469.5784                   23771470.7814
 -30312320.32448 -23478538.19946  21134721.2114                   21134719.8954
 -12698242.41046  -9884600.18043  24488576.4844                   24488580.4614
 -26027258.86348 -20242768.12946  21177043.7034                   21177041.5434
 -23354911.25447 -18169528.90646  21360459.6094                   21360458.6954
 -34718860.44948 -27024247.03146  20829769.4774                   20829765.6804
 -31916792.33247 -24706636.83645  22528339.1484                   22528338.7424
  -7679379.49647  -5908536.56644  23499835.6094                   23499836.8404
  -5553509.60547  -3812140.81244  23492839.4304                   23492839.5744
 11  8 25  0 23 30.0000000  0  9G17G10G09G12G05G02G04G25G30
 -34980369.37546 -27227879.84844  23776214.6024                   23776215.2464
 -30316098.05548 -23481481.85946  21134001.8984                   21134001.0434
 -12651362.61746  -9848070.69543  24497497.4144                   24497501.9844
 -26101172.96148 -20300363.50846  21162978.3754                   21162975.5944
 -23461408.68048 -18252513.84846  21340193.4384                   21340192.5434
 -34741580.65248 -27041951.09046  20825445.8834                   20825442.2504
 -31870619.41847 -24670657.95345  22537125.3054                   22537125.0204
  -7802978.01247  -6004847.02745  23476315.2664                   23476316.4454
  -5676885.78947  -3908278.00844  23469361.4304                   23469361.4884
 11  8 25  0 24  0.0000000  0  9G17G10G09G12G05G02G04G25G30
 -34955252.89546 -27208308.63344  23780994.1094                   23780994.9264
 -30319267.00448 -23483951.14146  21133399.3054                   21133398.0394
 -12604465.94946  -9811528.07043  24506421.6804                   24506426.5274
 -26174566.66848 -20357553.39146  21149012.1724                   21149009.7074
 -23567472.10548 -18335160.60546  21320010.2734                   21320009.4694
 -34764071.74648 -27059476.60946  20821165.9454                   20821162.5314
 -31824394.53147 -24634638.58645  22545921.6094                   22545921.3244
  -7926282.87147  -6100928.66045  23452850.9144                   23452852.4414
  -5799910.25447  -4004141.16044  23445950.4774                   23445950.3484
 11  8 25  0 24 30.0000000  0  9G17G10G09G12G05G02G04G25G30
 -34929946.19146 -27188589.19544  23785809.7504                   23785810.3594
 -30321822.12548 -23485942.12146  21132912.8754                   21132911.7424
 -12557549.03146  -9774969.64143  24515349.6884                   24515354.7384
 -26247431.50448 -20414331.16846  21135146.4614                   21135143.9884
 -23673092.66448 -18417462.27046  21299911.3594                   21299910.5944
 -34786328.27348 -27076819.35946  20816930.6954                   20816926.9654
 -31778113.19147 -24598575.22745  22554728.8914                   22554728.4064
  -8049285.13347  -6196774.50845  23429444.5554                   23429446.4734
  -5922574.16447  -4099723.33244  23422608.1254                   23422607.8244
 11  8 25  0 25  0.0000000  0  9G17G10G09G12G05G02G04G25G30
 -34904446.16046 -27168719.10944  23790661.8444                   23790663.4804
 -30323761.93048 -23487453.64546  21132543.9454                   21132542.9024
 -12510612.66846  -9738396.10243  24524281.0944                   24524286.5274
 -26319763.64548 -20470693.86346  21121382.0554                   21121379.8364
 -23778265.68048 -18499415.20746  21279897.4924                   21279896.2934
 -34808349.10548 -27093978.44146  20812740.1484                   20812736.3554
 -31731774.42647 -24562467.12945  22563546.5234                   22563546.3364
  -8171979.64847  -6292380.54745  23406096.7424                   23406098.1684
  -6044872.12547  -4195020.34844  23399335.9774                   23399335.8244
 11  8 25  0 25 30.0000000  0  9G17G10G09G12G05G02G04G25G30
 -34878747.71546 -27148694.39844  23795553.2274                   23795553.5594
 -30325082.85948 -23488482.91446  21132292.3364                   21132291.2344
 -12463654.83246  -9701805.84043  24533217.7734                   24533222.2774
 -26391556.68748 -20526636.48046  21107720.2664                   21107717.7384
 -23882984.03947 -18581013.86346  21259970.5394                   21259969.1724
 -34830130.21148 -27110950.72746  20808595.6174                   20808591.6914
 -31685374.69147 -24526311.51645  22572376.3284                   22572375.9304
  -8294358.81647  -6387740.86745  23382808.2974                   23382809.8204
  -6166796.57047  -4290026.31244  23376134.6804                   23376133.7584
 11  8 25  0 26  0.0000000  0  9G17G10G09G12G05G02G04G25G30
 -34852854.38746 -27128517.82444  23800480.2894                   23800480.9344
 -30325789.84848 -23489033.79746  21132157.9064                   21132156.6254
 -12416682.73846  -9665204.46143  24542156.3444                   24542161.0554
 -26462812.42648 -20582160.42246  21094160.3914                   21094158.6024
 -23987249.34048 -18662259.49246  21240129.4224                   21240128.1374
 -34851677.09448 -27127740.50046  20804495.4534                   20804491.4454
 -31638919.35947 -24490112.57845  22581216.3444                   22581216.5004
  -8416424.00047  -6482856.51245  23359579.7344                   23359581.3874
  -6288348.75847  -4384742.22744  23353003.6484                   23353003.2544
 11  8 25  0 26 30.0000000  0  9G17G10G09G12G05G02G04G25G30
 -34826768.67246 -27108191.33644  23805443.8914                   23805444.8364
 -30325887.40648 -23489109.80146  21132139.3754                   21132138.1214
 -12369702.69146  -9628596.87143  24551097.1174                   24551101.3834
 -26533532.37948 -20637266.86746  21080703.0554                   21080700.6994
 -24091062.03548 -18743152.43446  21220374.4384                   21220373.0354
 -34872993.82848 -27144350.93746  20800438.6484                   20800435.0084
 -31592413.00447 -24453873.87945  22590066.7274                   22590066.1414
  -8538175.57047  -6577727.79745  23336411.7114                   23336412.8714
  -6409528.82847  -4479168.16844  23329943.6564                   23329943.3984
 11  8 25  0 27  0.0000000  0  9G17G10G09G12G05G02G04G25G30
 -34800482.02046 -27087708.26244  23810446.2734                   23810447.1134
 -30325368.30148 -23488705.28946  21132238.1484                   21132236.9804
 -12322709.49246  -9591979.03143  24560039.5084                   24560044.4384
 -26603707.10548 -20691948.46146  21067349.2584                   21067347.0474
 -24194411.41448 -18823684.35946  21200707.2894                   21200706.3244
 -34894073.49248 -27160776.64846  20796427.2734                   20796423.6294
 -31545848.78547 -24417590.09445  22598927.2114                   22598927.2814
  -8659602.46147  -6672346.08245  23313304.5474                   23313306.3444
  -6530325.84847  -4573295.63344  23306957.1254                   23306956.0824
 11  8 25  0 27 30.0000000  0  9G17G10G09G12G05G02G04G25G30
 -34773996.37946 -27067070.16044  23815486.0164                   23815486.6644
 -30324236.25048 -23487823.15646  21132453.5554                   21132452.1524
 -12275708.51646  -9555355.15643  24568983.7584                   24568988.8444
 -26673336.94948 -20746205.46946  21054099.2034                   21054096.9964
 -24297297.71148 -18903855.43446  21181128.5554                   21181127.7854
 -34914919.39548 -27177020.20346  20792460.8054                   20792457.2114
 -31499230.32847 -24381264.03545  22607798.7114                   22607798.0274
  -8780704.30147  -6766711.09445  23290259.6334                   23290261.4384
  -6650739.19147  -4667124.14544  23284043.0704                   23284042.4104
 11  8 25  0 28  0.0000000  0  9G17G10G09G12G05G02G04G25G30
 -34747310.73447 -27046276.18444  23820564.9534                   23820565.7854
 -30322492.05148 -23486464.01646  21132785.5314                   21132784.6764
 -12228702.09846  -9518726.97743  24577928.6414                   24577933.9534
 -26742419.84448 -20800036.28146  21040953.0944                   21040950.8524
 -24399718.10948 -18983663.48046  21161638.7814                   21161637.8954
 -34935532.04748 -27193082.01246  20788537.9694                   20788533.9694
 -31452558.44547 -24344896.35545  22616680.1804                   22616680.2194
  -8901477.86747  -6860820.31645  23267277.0554                   23267278.7034
  -6770765.67646  -4760651.18444  23261202.4144                   23261202.0664
 11  8 25  0 28 30.0000000  0  9G17G10G09G12G05G02G04G25G30
 -34720427.72347 -27025328.41044  23825680.4694                   23825680.8634
 -30320140.05948 -23484631.28546  21133232.5554                   21133231.6334
 -12181696.20746  -9482099.25843  24586874.2114                   24586878.9734
 -26810956.94548 -20853441.81246  21027910.9694                   21027908.5744
 -24501672.75448 -19063108.59446  21142237.4694                   21142236.2974
 -34955915.71548 -27208965.37946  20784659.2194                   20784655.1054
 -31405837.69547 -24308490.59445  22625570.6804                   22625570.4384
  -9021923.34447  -6954673.89845  23244357.2894                   23244358.5044
  -6890405.44147  -4853876.90644  23238435.7894                   23238434.5864
 11  8 25  0 29  0.0000000  0  9G17G10G09G12G05G02G04G25G30
 -34693342.32847 -27004222.95744  23830834.8134                   23830835.0744
 -30317177.19548 -23482322.55946  21133797.1804                   21133795.8754
 -12134689.28946  -9445470.75043  24595819.2974                   24595823.9964
 -26878942.07848 -20906417.23046  21014973.5634                   21014971.5124
 -24603155.07048 -19142185.66046  21122925.9144                   21122924.8244
 -34976066.85548 -27224667.55946  20780824.6094                   20780820.9494
 -31359064.55147 -24272044.00445  22634471.1334                   22634471.2504
  -9142033.43747  -7048266.13345  23221501.2734                   23221502.5394
  -7009651.00847  -4946795.46944  23215744.3284                   23215743.2344
 11  8 25  0 29 30.0000000  0  9G17G10G09G12G05G02G04G25G30
 -34666057.47746 -26982962.08644  23836026.5634                   23836027.9104
 -30313607.58248 -23479541.03546  21134476.1334                   21134475.1334
 -12087687.90246  -9408846.54743  24604763.2504                   24604768.6294
 -26946377.07848 -20958963.97746  21002141.3984                   21002138.7544
 -24704165.85948 -19220895.30546  21103704.0634                   21103702.9964
 -34995989.70748 -27240191.85246  20777033.3754                   20777029.5474
 -31312243.66447 -24235560.22745  22643380.9224                   22643380.8674
  -9261808.69147  -7141597.45745  23198708.1174                   23198709.9224
  -7128502.95747  -5039407.30144  23193127.2344                   23193126.3594
 11  8 25  0 30  0.0000000  0  9G17G10G09G12G05G02G04G25G30
 -34638574.35247 -26961546.69144  23841256.4694                   23841256.9734
 -30309434.64148 -23476289.38346  21135270.2894                   21135268.8444
 -12040696.49646  -9372230.10543  24613706.2424                   24613711.1994
 -27013262.14848 -21011082.19946  20989413.4614                   20989410.9804
 -24804704.60548 -19299237.11746  21084572.0394                   21084570.7934
 -35015687.49648 -27255540.76646  20773285.3134                   20773280.9844
 -31265378.08247 -24199041.62145  22652299.5164                   22652299.2194
  -9381248.19547  -7234667.19145  23175980.0004                   23175981.5004
  -7246960.33247  -5131711.68744  23170585.8524                   23170585.0594
 11  8 25  0 30 30.0000000  0  9G17G10G09G12G05G02G04G25G30
 -34610887.74646 -26939972.75444  23846525.1254                   23846526.2464
 -30304654.74248 -23472564.78146  21136179.6954                   21136178.2854
 -11993713.42646  -9335620.18743  24622647.1414                   24622652.4264
 -27079590.79748 -21062766.85246  20976791.3754                   20976789.3834
 -24904764.17248 -19377205.55946  21065531.3524                   21065530.1724
 -35035156.42648 -27270711.35546  20769580.2894                   20769575.9804
 -31218464.59447 -24162485.68445  22661226.7734                   22661226.5124
  -9500344.44947  -7327469.45745  23153316.4614                   23153317.9024
  -7365015.52347  -5223702.69944  23148120.3204                   23148119.3594
 11  8 25  0 31  0.0000000  0  9G17G10G09G12G05G02G04G25G30
 -34583010.31247 -26918250.11744  23851830.1804                   23851830.8794
 -30299282.23448 -23468378.40646  21137202.0394                   21137200.8554
 -11946754.32446  -9299028.99244  24631582.8914                   24631588.5394
 -27145374.20348 -21114026.64546  20964273.2664                   20964271.0664
 -25004355.56248 -19454809.18446  21046580.0004                   21046578.8324
 -35054410.46548 -27285714.49646  20765916.1954                   20765912.2504
 -31171517.00847 -24125903.18045  22670160.6334                   22670160.5394
  -9619107.53147  -7420012.10245  23130716.7974                   23130718.0354
  -7482678.62147  -5315388.19144  23125729.7034                   23125728.8524
 11  8 25  0 31 30.0000000  0  9G17G10G09G12G05G02G04G25G30
 -34554938.26246 -26896375.83644  23857172.0394                   23857172.5864
 -30293315.41048 -23463728.93446  21138337.7034                   21138336.5124
 -11899819.15247  -9262456.42244  24640514.7114                   24640520.4184
 -27210608.19948 -21164858.32446  20951859.6484                   20951857.1524
 -25103472.76248 -19532043.30546  21027718.5474                   21027717.2114
 -35073447.17648 -27300548.28946  20762293.9144                   20762290.1684
 -31124533.30147 -24089292.53944  22679101.1024                   22679101.2624
  -9737531.31247  -7512290.35545  23108181.6644                   23108182.9494
  -7599943.48447  -5406763.35544  23103414.9224                   23103414.4964
 11  8 25  0 32  0.0000000  0  9G17G10G09G12G05G02G04G25G30
 -34526658.69946 -26874339.86344  23862554.0084                   23862554.0084
 -30286743.25048 -23458607.77346  21139587.9384                   21139586.7774
 -11852898.09047  -9225894.85244  24649443.2814                   24649449.0274
 -27275278.52048 -21215250.78146  20939553.2734                   20939550.6804
 -25202101.51248 -19608896.81646  21008949.7274                   21008948.5004
 -35092255.59048 -27315204.19546  20758714.6094                   20758710.7384
 -31077502.65647 -24052645.31244  22688050.7344                   22688050.8164
  -9855600.84047  -7604292.57045  23085713.5394                   23085714.7114
  -7716794.99647  -5497816.44544  23081178.4144                   23081178.1724
 11  8 25  0 32 30.0000000  0  9G17G10G09G12G05G02G04G25G30
 -34498181.59946 -26852149.95244  23867972.5864                   23867973.3284
 -30279577.14848 -23453023.80146  21140951.8444                   21140950.6294
 -11806003.97347  -9189354.31244  24658367.6564                   24658373.2624
 -27339393.64148 -21265210.61746  20927352.4534                   20927350.1724
 -25300249.02748 -19685375.34846  20990272.9924                   20990271.7384
 -35110846.28148 -27329690.43446  20755177.0084                   20755173.3674
 -31030435.96147 -24015970.00044  22697007.3834                   22697006.9494
  -9973323.18747  -7696024.25845  23063311.6174                   23063312.7544
  -7833240.32447  -5588553.02744  23059020.0004                   23059019.2274
 11  8 25  0 33  0.0000000  0  9G17G10G09G12G05G02G04G25G30
 -34469493.49246 -26829795.62144  23873431.8834                   23873432.6214
 -30271805.58248 -23446968.04346  21142430.8364                   21142429.3954
 -11759127.10947  -9152827.22344  24667288.1254                   24667294.0514
 -27402939.02748 -21314726.50046  20915260.6024                   20915257.7034
 -25397900.52748 -19761467.35546  20971690.3204                   20971689.3094
 -35129207.83248 -27343998.13746  20751682.6414                   20751678.9534
 -30983321.63347 -23979257.58244  22705972.8834                   22705973.3054
 -10090682.96147  -7787473.40645  23040978.7894                   23040979.9614
  -7949263.87547  -5678960.95344  23036941.5164                   23036940.3794
 11  8 25  0 33 30.0000000  0  9G17G10G09G12G05G02G04G25G30
 -34440612.92646 -26807291.32844  23878927.6414                   23878927.8594
 -30263449.19948 -23440456.58246  21144021.0704                   21144019.7894
 -11712289.30547  -9116330.56644  24676201.9144                   24676207.6334
 -27465932.46548 -21363812.29346  20903272.8524                   20903270.6994
 -25495072.60948 -19837185.80946  20953199.2504                   20953198.1254
 -35147360.19948 -27358142.82446  20748228.4844                   20748224.8244
 -30936180.03547 -23942523.91844  22714943.5164                   22714943.6174
 -10207696.26247  -7878652.55545  23018711.8284                   23018712.7854
  -8064881.96947  -5769052.94144  23014940.0314                   23014939.2344
 11  8 25  0 34  0.0000000  0  9G17G10G09G12G05G02G04G25G30
 -34411533.45746 -26784632.03944  23884461.2894                   23884462.2774
 -30254503.09447 -23433485.59446  21145723.2274                   21145722.0084
 -11665487.23447  -9079861.77344  24685107.5234                   24685113.9304
 -27528365.98048 -21412461.79346  20891392.6954                   20891390.1884
 -25591757.13348 -19912524.34046  20934800.8364                   20934799.5434
 -35165298.25848 -27372120.53146  20744815.1644                   20744811.0944
 -30889005.97747 -23905764.95344  22723920.6254                   22723919.9344
 -10324354.28147  -7969554.85945  22996512.6334                   22996513.9024
  -8180085.61747  -5858821.99244  22993017.5314                   22993016.4654
 11  8 25  0 34 30.0000000  0  9G17G10G09G12G05G02G04G25G30
 -34382256.56646 -26761818.92244  23890032.2814                   23890033.4264
 -30244971.23448 -23426058.17246  21147536.9844                   21147535.9344
 -11618725.95747  -9043424.76644  24694006.8444                   24694012.5864
 -27590240.97348 -21460676.07446  20879617.8054                   20879615.9734
 -25687953.52348 -19987482.51246  20916494.9924                   20916493.6994
 -35183025.09848 -27385933.64146  20741441.7734                   20741438.0594
 -30841802.76647 -23868983.25844  22732903.1484                   22732902.7544
 -10440656.25047  -8060179.72345  22974380.7974                   22974382.3404
  -8294874.12547  -5948267.55144  22971173.6414                   22971173.4414
 11  8 25  0 35  0.0000000  0  9G17G10G09G12G05G02G04G25G30
 -34352774.32447 -26738845.76643  23895643.1724                   23895643.7234
 -30234847.35947 -23418169.43446  21149463.7974                   21149462.6484
 -11572000.62146  -9007015.77044  24702897.7664                   24702904.6684
 -27651547.85248 -21508447.66446  20867951.6414                   20867949.7034
 -25783652.04348 -20062052.73046  20898284.3524                   20898282.9844
 -35200534.03948 -27399576.96946  20738109.8594                   20738105.8054
 -30794563.89547 -23832173.79344  22741892.3594                   22741892.3524
 -10556591.75047  -8150519.01245  22952319.1094                   22952320.8134
  -8409236.93747  -6037381.41044  22949411.7034                   22949410.6214
 11  8 25  0 35 30.0000000  0  9G17G10G09G12G05G02G04G25G30
 -34323101.93046 -26715724.44144  23901288.6024                   23901290.0704
 -30224148.37548 -23409832.55946  21151499.5704                   21151498.0904
 -11525329.39146  -8970648.93743  24711779.7344                   24711786.2974
 -27712300.74648 -21555787.57846  20856391.1254                   20856388.5274
 -25878866.23448 -20136245.55146  20880165.4144                   20880164.1914
 -35217841.64548 -27413063.39846  20734816.4844                   20734812.8014
 -30747305.89847 -23795349.41844  22750885.4694                   22750885.2464
 -10672173.57847  -8240582.71145  22930324.8134                   22930326.4224
  -8523186.84847  -6126173.52044  22927726.8984                   22927726.5044
 11  8 25  0 36  0.0000000  0  9G17G10G09G12G05G02G04G25G30
 -34293228.09847 -26692446.16844  23906974.1094                   23906974.9614
 -30212865.03948 -23401040.34846  21153646.6644                   21153645.5124
 -11478704.22346  -8934317.98843  24720652.2504                   24720659.3594
 -27772487.50448 -21602686.34846  20844937.7584                   20844935.6374
 -25973582.99648 -20210050.76646  20862141.6884                   20862140.4574
 -35234938.24648 -27426385.42646  20731563.0004                   20731559.1684
 -30700019.33247 -23758502.76644  22759883.5394                   22759883.5314
 -10787388.31248  -8330360.35245  22908400.1414                   22908401.5314
  -8636710.42247  -6214633.43444  22906124.1884                   22906123.4654
 11  8 25  0 36 30.0000000  0  9G17G10G09G12G05G02G04G25G30
 -34263151.73046 -26669010.08643  23912697.2974                   23912698.7464
 -30200998.66848 -23391793.82046  21155905.0784                   21155903.6454
 -11432127.28146  -8898024.60543  24729515.6644                   24729522.5354
 -27832106.08648 -21649142.37946  20833592.7034                   20833590.5704
 -26067799.62548 -20283466.26246  20844212.6804                   20844211.7854
 -35251824.30548 -27439543.38346  20728349.9384                   20728345.8054
 -30652704.57047 -23721634.16044  22768887.2584                   22768887.5354
 -10902232.60247  -8419849.33645  22886546.0554                   22886547.0634
  -8749804.28547  -6302758.50044  22884603.7344                   22884602.7704
 11  8 25  0 37  0.0000000  0  9G17G10G09G12G05G02G04G25G30
 -34232872.52346 -26645415.93744  23918458.8984                   23918460.2734
 -30188550.30548 -23382093.79346  21158273.5084                   21158272.7854
 -11385601.24645  -8861770.96543  24738369.5554                   24738376.5904
 -27891155.03948 -21695154.54346  20822356.0394                   20822353.7194
 -26161513.87948 -20356490.30146  20826379.3444                   20826378.3164
 -35268500.38348 -27452537.71546  20725176.3914                   20725172.4884
 -30605362.51647 -23684744.29344  22777896.7814                   22777896.4024
 -11016703.41847  -8509047.30945  22864762.7734                   22864764.2814
  -8862465.45747  -6390546.37944  22863164.5784                   22863164.2194
 11  8 25  0 37 30.0000000  0  9G17G10G09G12G05G02G04G25G30
 -34202391.61746 -26621664.62944  23924259.4614                   23924260.5864
 -30175523.22348 -23371942.80946  21160752.3444                   21160751.1174
 -11339130.52745  -8825560.32842  24747213.2344                   24747220.4614
 -27949634.30548 -21740722.79346  20811227.4144                   20811225.1954
 -26254724.82848 -20429122.16446  20808641.7114                   20808640.4494
 -35284968.73448 -27465370.18746  20722042.5474                   20722038.7274
 -30557995.53147 -23647834.97744  22786910.1724                   22786909.6564
 -11130799.43747  -8597953.23045  22843050.7734                   22843052.0634
  -8974692.59847  -6477996.05544  22841808.8834                   22841807.4924
 11  8 25  0 38  0.0000000  0  9G17G10G09G12G05G02G04G25G30
 -34171705.96546 -26597753.77744  23930098.8834                   23930100.4184
 -30161916.62948 -23361340.25446  21163341.7664                   21163340.7814
 -11292715.62145  -8789393.31242  24756044.7274                   24756054.2584
 -28007540.71148 -21785844.65246  20800208.3134                   20800206.2154
 -26347428.08248 -20501358.41046  20791001.0394                   20790999.6214
 -35301228.95748 -27478040.48046  20718948.7274                   20718944.5314
 -30510602.55947 -23610905.43444  22795928.4534                   22795928.7544
 -11244515.66047  -8686563.20345  22821411.4064                   22821412.8134
  -9086480.69147  -6565103.60944  22820535.8834                   22820535.2034
 11  8 25  0 38 30.0000000  0  9G17G10G09G12G05G02G04G25G30
 -34140821.90246 -26573688.30943  23935976.2664                   23935977.6764
 -30147738.55948 -23350292.38746  21166039.4844                   21166038.5864
 -11246365.38745  -8753276.60242  24764865.7974                   24764875.1024
 -28064878.88348 -21830523.73446  20789297.6334                   20789295.2304
 -26439628.14548 -20573202.56246  20773455.8524                   20773454.4614
 -35317287.25448 -27490553.41846  20715892.6024                   20715888.4534
 -30463190.69947 -23573961.16844  22804951.1174                   22804950.5634
 -11357855.74647  -8774880.07445  22799843.5084                   22799844.4454
  -9197833.39547  -6651871.89544  22799346.2814                   22799345.8484
 11  8 25  0 39  0.0000000  0  9G17G10G09G12G05G02G04G25G30
 -34109738.14146 -26549467.24244  23941891.0554                   23941892.6764
 -30132990.14548 -23338800.11346  21168846.4454                   21168844.8554
 -11200081.660 6                  24773674.250
 -28121647.00848 -21874758.62546  20778494.5084                   20778492.2854
 -26531321.91048 -20644652.20346  20756006.9694                   20756005.6214
 -35333144.29748 -27502909.54346  20712875.1954                   20712871.4144
 -30415760.40647 -23537002.53544  22813976.7424                   22813976.8134
 -11470816.15247  -8862901.10945  22778347.4774                   22778348.7854
  -9308747.16447  -6738298.16844  22778239.9224                   22778238.8164
 11  8 25  0 39 30.0000000  0  9G17G10G09G12G05G02G04G25G30
 -34078456.12146 -26525091.69144  23947843.8134                   23947845.2274
 -30117675.00047 -23326866.22346  21171760.7274                   21171759.5204
 -11153869.043 6                  24782468.500
 -28177845.71148 -21918549.80546  20767800.2814                   20767798.5274
 -26622509.41448 -20715707.34846  20738654.4144                   20738653.0594
 -35348802.98448 -27515111.10946  20709894.7504                   20709891.2814
 -30368314.54347 -23500031.75844  22823005.1414                   22823005.3324
 -11583396.09047  -8950625.67245  22756924.2504                   22756925.8484
  -9419221.27747  -6824381.83244  22757217.4534                   22757216.4344
 11  8 25  0 40  0.0000000  0  8G17G10G12G05G02G04G25G30
 -34046977.63746 -26500563.04744  23953834.5084                   23953835.2854
 -30101796.89148 -23314493.66046  21174782.3834                   21174780.9104
 -28233475.93748 -21961898.01646  20757214.5864                   20757211.9694
 -26713190.61348 -20786367.98046  20721398.3054                   20721397.3834
 -35364266.30148 -27527160.44146  20706952.4534                   20706948.6214
 -30320856.72347 -23463051.66444  22832036.2194                   22832036.4574
 -11695595.07047  -9038053.39545  22735573.4224                   22735574.8834
  -9529255.25047  -6910122.52044  22736278.7034                   22736277.9454
 11  8 25  0 40 30.0000000  0  8G17G10G12G05G02G04G25G30
 -34015295.29746 -26475875.56644  23959863.3834                   23959864.6804
 -30085350.56247 -23301678.32446  21177911.6254                   21177910.6844
 -28288529.32848 -22004796.74246  20746738.0864                   20746735.5984
 -26803356.55548 -20856627.09846  20704240.4144                   20704238.9804
 -35379528.49648 -27539053.05946  20704048.5784                   20704044.5864
 -30273380.46947 -23426057.20344  22841071.0944                   22841070.6454
 -11807403.36747  -9125176.68745  22714297.1024                   22714298.3094
  -9638839.40647  -6995512.73044  22715425.4924                   22715424.4574
 11  8 25  0 41  0.0000000  0  8G17G10G12G05G02G04G25G30
 -33983408.63746 -26451028.85244  23965931.0164                   23965932.6764
 -30068337.11747 -23288421.08246  21181149.4384                   21181147.9454
 -28343004.40248 -22047244.83246  20736371.8984                   20736370.0274
 -26893004.51248 -20926482.60246  20687180.9454                   20687179.7624
 -35394589.93748 -27550789.23446  20701182.1094                   20701178.2194
 -30225886.13747 -23389048.66844  22850108.5554                   22850108.8714
 -11918817.69947  -9211992.99645  22693095.1174                   22693096.3324
  -9747970.36347  -7080549.75844  22694658.2034                   22694657.4774
 11  8 25  0 41 30.0000000  0  8G17G10G12G05G02G04G25G30
 -33951299.61346 -26426008.88344  23972040.8984                   23972042.1604
 -30050740.91848 -23274709.75846  21184498.0474                   21184496.4264
 -28396882.45348 -22089227.71946  20726119.2504                   20726117.0984
 -26982114.91848 -20995919.23046  20670223.8834                   20670222.2504
 -35409434.11748 -27562356.12946  20698357.4614                   20698353.6254
 -30178357.37547 -23352013.30944  22859152.8674                   22859152.6254
 -12029817.91047  -9298486.62145  22671973.3204                   22671973.9574
  -9856628.09047  -7165218.05944  22673981.1414                   22673980.6254
 11  8 25  0 42  0.0000000  0  8G17G10G12G05G02G04G25G30
 -33918974.90647 -26400820.84444  23978192.6414                   23978194.0274
 -30032570.63348 -23260551.09446  21187955.4384                   21187954.6954
 -28450169.00048 -22130749.68746  20715978.9924                   20715976.9534
 -27070693.17248 -21064941.20346  20653368.1094                   20653366.9774
 -35424068.70748 -27573759.69546  20695572.6334                   20695568.8554
 -30130802.05547 -23314957.23444  22868202.5944                   22868202.6804
 -12140408.14547  -9384660.78145  22650927.9064                   22650928.9924
  -9964816.86347  -7249520.93744  22653393.9534                   22653393.1294
 11  8 25  0 42 30.0000000  0  8G17G10G12G05G02G04G25G30
 -33886445.83247 -26375473.55944  23984383.1804                   23984383.7544
 -30013840.28548 -23245956.01245  21191519.8754                   21191518.7664
 -28502875.07448 -22171819.33646  20705949.7114                   20705947.3094
 -27158749.03548 -21133556.10546  20636611.3834                   20636609.9064
 -35438506.37548 -27585009.82046  20692824.9064                   20692821.1684
 -30083233.01646 -23277890.48444  22877254.1254                   22877254.6024
 -12250597.57047  -9470522.62145  22629960.0474                   22629960.7464
 -10072545.78947  -7333465.48844  22632893.3984                   22632892.6374
 11  8 25  0 43  0.0000000  0  8G17G10G12G05G02G04G25G30
 -33853719.18447 -26349972.30944  23990609.9614                   23990611.4064
 -29994558.47748 -23230931.22746  21195188.9064                   21195187.8134
 -28555006.46948 -22212441.19146  20696028.8984                   20696026.8404
 -27246287.52048 -21201767.87546  20619952.9304                   20619952.0594
 -35452755.44148 -27596112.98846  20690113.7274                   20690109.7424
 -30035658.24647 -23240819.26644  22886307.6024                   22886307.9344
 -12360390.70747  -9556075.68045  22609066.9304                   22609068.1564
 -10179819.36747  -7417055.21944  22612480.0004                   22612479.4064
 11  8 25  0 43 30.0000000  0  8G17G10G12G05G02G04G25G30
 -33820787.31247 -26324311.13344  23996877.1414                   23996878.2114
 -29974719.40648 -23215472.21146  21198964.2974                   21198962.8164
 -28606554.71548 -22252608.64546  20686219.8444                   20686217.6254
 -27333299.03548 -21269569.01246  20603395.2584                   20603394.2774
 -35466809.19948 -27607063.96146  20687439.4694                   20687435.5394
 -29988071.03947 -23203738.35244  22895363.5554                   22895363.0904
 -12469777.25447  -9641311.91445  22588251.0164                   22588252.9224
 -10286627.51647  -7500282.28544  22592155.1334                   22592154.1214
 11  8 25  0 44  0.0000000  0  8G17G10G12G05G02G04G25G30
 -33787647.33247 -26298487.78944  24003182.5084                   24003184.5234
 -29954322.40248 -23199578.44945  21202845.3984                   21202844.0634
 -28657516.27748 -22292318.94146  20676522.0164                   20676520.0314
 -27419779.30548 -21336956.19546  20586938.8594                   20586937.4844
 -35480665.99648 -27617861.46146  20684802.4224                   20684798.5124
 -29940469.75447 -23166646.44544  22904421.8134                   22904421.3134
 -12578752.03547  -9726227.28545  22567514.0474                   22567515.1604
 -10392964.91047  -7583142.52744  22571919.7814                   22571919.0314
 11  8 25  0 44 30.0000000  0  8G17G10G12G05G02G04G25G30
 -33754298.73047 -26272501.86343  24009529.4064                   24009530.4414
 -29933369.34048 -23183251.40645  21206832.7734                   21206831.3444
 -28707889.96548 -22331571.15646  20666936.6024                   20666934.1844
 -27505726.31248 -21403927.84846  20570583.6484                   20570582.2114
 -35494326.67648 -27628506.15246  20682202.8524                   20682198.9304
 -29892855.36347 -23129544.35244  22913482.3134                   22913481.9924
 -12687312.27047  -9810819.65245  22546855.3914                   22546857.0314
 -10498829.05947  -7665634.00844  22551774.3834                   22551773.4734
 11  8 25  0 45  0.0000000  0  8G17G10G12G05G02G04G25G30
 -32145329.89146 -25018759.93743  24315706.1414                   24315706.9654
 -28336450.43448 -21938899.02345  21510716.7034                   21510715.3914
 -27182260.51648 -21142768.96546  20957253.7194                   20957251.4694
 -26015722.78148 -20242886.09446  20854121.8444                   20854120.3134
 -33932379.07048 -26411404.11746  20979431.3914                   20979427.6914
 -28269817.52047 -21864839.57444  23222336.0634                   23222336.4024
 -11220039.14147  -8667489.92245  22826068.5864                   22826069.4414
  -9028801.11747  -6520157.62945  22831511.3984                   22831510.1724
 11  8 25  0 45 30.0000000  0  8G17G10G12G05G02G04G25G30
 -32111581.09746 -24992462.19643  24322128.0234                   24322129.3364
 -28314408.88348 -21921723.80545  21514910.6724                   21514909.7974
 -27231473.14148 -21181116.45746  20947889.1804                   20947886.8244
 -26100615.50448 -20309036.23046  20837967.4454                   20837965.8634
 -33945667.95748 -26421759.09046  20976902.8364                   20976899.2154
 -28222196.86347 -21827732.57044  23231397.5474                   23231397.8594
 -11327780.18747  -8751443.96145  22805566.0314                   22805567.0824
  -9133728.55147  -6601919.20745  22811544.3134                   22811543.2894
 11  8 25  0 46  0.0000000  0  8G17G10G12G05G02G04G25G30
 -32077623.61746 -24966001.87543  24328589.6024                   24328591.0594
 -28291818.06248 -21904120.56645  21519209.8984                   21519208.5474
 -27280095.87148 -21219004.29746  20938636.2584                   20938633.9144
 -26184970.40248 -20374767.27046  20821915.3984                   20821913.6374
 -33958764.42248 -26431964.12546  20974410.5164                   20974406.6294
 -28174566.73447 -21790618.20344  23240462.0784                   23240461.6884
 -11435099.74247  -8835069.55545  22785144.1174                   22785145.1214
  -9238175.85247  -6683306.68045  22791668.4304                   22791667.8404
 11  8 25  0 46 30.0000000  0  8G17G10G12G05G02G04G25G30
 -32043456.25446 -24939377.96943  24335091.8444                   24335092.9884
 -28268678.75847 -21886089.94945  21523612.7274                   21523611.9654
 -27328126.57848 -21256430.80146  20929496.5554                   20929494.3834
 -26268784.29348 -20440076.75846  20805965.7664                   20805964.2274
 -33971668.24248 -26442019.04746  20971955.2974                   20971951.8714
 -28126926.57047 -21753496.01244  23249527.2814                   23249527.1134
 -11541993.95747  -8918363.72745  22764802.4924                   22764803.2304
  -9342139.33647  -6764317.14545  22771884.7194                   22771884.0394
 11  8 25  0 47  0.0000000  0  8G17G10G12G05G02G04G25G30
 -32009086.58246 -24912596.38743  24341632.0084                   24341633.3284
 -28245000.52047 -21867639.38345  21528118.9454                   21528117.5004
 -27375572.52348 -21293401.66846  20920467.6804                   20920465.3134
 -26352063.55548 -20504969.64146  20790118.1724                   20790116.5944
 -33984388.15648 -26451930.67246  20969534.5314                   20969530.6604
 -28079285.09447 -21716372.81244  23258593.2734                   23258593.6564
 -11648468.10248  -9001330.57845  22744541.3594                   22744542.4694
  -9445624.23447  -6844954.68445  22752192.2424                   22752191.4264
 11  8 25  0 47 30.0000000  0  8G17G10G12G05G02G04G25G30
 -31974516.95346 -24885659.03943  24348210.2734                   24348211.8014
 -28220788.06647 -21848772.54345  21532726.1564                   21532725.0554
 -27422434.67648 -21329917.62546  20911550.3674                   20911547.7624
 -26434808.55548 -20569446.22746  20774372.5704                   20774371.0004
 -33996927.26648 -26461701.41046  20967148.4924                   20967144.7544
 -28031645.63747 -21679251.16444  23267659.1254                   23267658.7234
 -11754522.03548  -9083969.99645  22724359.6024                   22724360.9694
  -9548630.53147  -6925219.29345  22732591.0084                   22732590.1054
 11  8 25  0 48  0.0000000  0  8G17G10G12G05G02G04G25G30
 -31939740.95746 -24858560.86743  24354827.9844                   24354829.4144
 -28196037.00448 -21829486.00845  21537436.5164                   21537435.1484
 -27468706.19948 -21365973.35546  20902745.0314                   20902742.6914
 -26517011.85948 -20633500.70346  20758729.7734                   20758728.2344
 -34009280.44948 -26471327.26646  20964797.7974                   20964794.0784
 -27984002.87947 -21642126.95744  23276725.1254                   23276725.0124
 -11860146.94947  -9166275.10545  22704260.0944                   22704260.7624
  -9651149.52047  -7005104.19545  22713081.8364                   22713081.0784
 11  8 25  0 48 30.0000000  0  8G17G10G12G05G02G04G25G30
 -31904766.06646 -24831307.73043  24361482.8754                   24361485.5784
 -28170757.25448 -21809787.50845  21542246.8204                   21542245.7894
 -27514394.30148 -21401574.46946  20894051.1724                   20894048.8094
 -26598679.23448 -20697137.57846  20743188.6804                   20743187.0904
 -34021456.28148 -26480814.93046  20962480.7974                   20962476.6884
 -27936365.28947 -21605006.76244  23285790.1334                   23285790.2344
 -11965347.97347  -9248249.89545  22684240.4614                   22684241.3674
  -9753186.41047  -7084613.44145  22693665.2584                   22693664.6604
 11  8 25  0 49  0.0000000  0  8G17G10G12G05G02G04G25G30
 -31869592.94546 -24803900.13343  24368176.6644                   24368178.2894
 -28144952.18448 -21789679.66846  21547157.2344                   21547156.4024
 -27559499.02048 -21436721.00046  20885467.9224                   20885465.7194
 -26679810.04348 -20760356.34446  20727750.0554                   20727748.1134
 -34033456.91048 -26490166.07446  20960197.3914                   20960193.5594
 -27888734.68447 -21567892.02744  23294853.7424                   23294854.0634
 -12070123.76647  -9329893.35245  22664302.4304                   22664303.8364
  -9854739.93447  -7163746.04345  22674340.2664                   22674339.5824
 11  8 25  0 49 30.0000000  0  8G17G10G12G05G02G04G25G30
 -31834205.51246 -24776325.54343  24374911.3914                   24374912.2194
 -28118607.84048 -21769151.60946  21552170.5474                   21552169.1764
 -27604003.73048 -21471399.99646  20876998.6804                   20876996.4414
 -26760386.67648 -20823143.28146  20712416.8364                   20712415.3794
 -34045267.09448 -26499368.82046  20957949.8834                   20957945.7734
 -27841095.98447 -21530770.99644  23303919.7814                   23303919.2304
 -12174455.68747  -9411190.93045  22644448.8284                   22644449.6334
  -9955791.53547  -7242487.51644  22655110.2664                   22655109.7464
 11  8 25  0 50  0.0000000  0  8G17G10G12G05G02G04G25G30
 -31798618.93746 -24748595.77343  24381683.5164                   24381684.5864
 -28091741.08648 -21748216.47345  21557283.1094                   21557281.9344
 -27647922.80948 -21505622.65246  20868641.2974                   20868639.0354
 -26840422.72348 -20885508.99247  20697186.4614                   20697184.9774
 -34056902.89548 -26508435.69146  20955735.7974                   20955731.7774
 -27793465.16046 -21493656.07444  23312983.1644                   23312983.5824
 -12278356.45347  -9492152.53545  22624676.9304                   22624677.9694
 -10056354.14147  -7320847.97744  22635973.7974                   22635973.3364
 11  8 25  0 50 30.0000000  0  8G17G10G12G05G02G04G25G30
 -31762825.57446 -24720704.86343  24388494.2504                   24388495.6454
 -28064346.95348 -21726870.39545  21562495.8914                   21562494.5864
 -27691248.24648 -21539382.73446  20860396.8914                   20860394.1294
 -26919908.98848 -20947446.29747  20682060.5634                   20682059.3164
 -34068357.68748 -26517361.50446  20953556.0864                   20953552.1484
 -27745835.50847 -21456542.11744  23322046.8834                   23322047.1024
 -12381815.93047  -9572770.27745  22604989.3204                   22604990.3714
 -10156417.56247  -7398819.45344  22616932.5944                   22616931.3874
 11  8 25  0 51  0.0000000  0  8G17G10G12G05G02G04G25G30
 -31726823.20347 -24692651.07844  24395345.8674                   24395346.8714
 -28036425.88347 -21705113.71945  21567809.1954                   21567808.2234
 -27733977.52348 -21572678.27746  20852265.9384                   20852262.9454
 -26998842.24248 -21008952.68746  20667040.3284                   20667038.5124
 -34079630.83648 -26526145.78946  20951410.6334                   20951406.9694
 -27698206.14847 -21419428.35244  23331110.2894                   23331110.4064
 -12484830.01647  -9653040.95345  22585386.6094                   22585387.9224
 -10255977.93447  -7476398.96144  22597986.8834                   22597985.9614
 11  8 25  0 51 30.0000000  0  8G17G10G12G05G02G04G25G30
 -31690618.88747 -24664439.94544  24402235.2424                   24402236.0044
 -28007986.44947 -21682953.11745  21573221.4144                   21573220.1024
 -27776117.02748 -21605514.25446  20844246.9144                   20844244.1054
 -27077227.99248 -21070032.44146  20652123.8364                   20652122.0394
 -34090730.11748 -26534794.56646  20949298.6804                   20949294.9184
 -27650584.74647 -21382320.78944  23340172.2894                   23340173.1884
 -12587403.18047  -9732968.05145  22565867.7114                   22565868.4804
 -10355039.81247  -7553590.01244  22579135.7894                   22579134.9774
 11  8 25  0 52  0.0000000  0  8G17G10G12G05G02G04G25G30
 -31654209.25847 -24636068.82844  24409163.3444                   24409164.8954
 -27979028.26248 -21660388.29745  21578732.2734                   21578730.7154
 -27817662.75448 -21637887.54746  20836340.8914                   20836338.5554
 -27155061.38348 -21130681.78947  20637312.4924                   20637310.7504
 -34101653.27048 -26543306.12146  20947220.0164                   20947216.1914
 -27602969.05947 -21345217.68744  23349233.3914                   23349233.6884
 -12689529.83647  -9812547.21545  22546433.4924                   22546434.1054
 -10453597.68447  -7630388.33645  22560381.2274                   22560380.3444
 11  8 25  0 52 30.0000000  0  9G17G10G29G12G05G02G04G25G30
 -31617591.50947 -24607535.54244  24416131.0234                   24416132.9144
 -27949550.54748 -21637418.65245  21584341.2424                   21584340.3364
   2986357.38317                  24692928.266
 -27858611.61748 -21669795.76246  20828548.6884                   20828545.9654
 -27232338.46148 -21190897.66047  20622607.2424                   20622605.4924
 -34112398.57048 -26551679.09846  20945175.0554                   20945171.3874
 -27555357.07846 -21308117.49244  23358294.5394                   23358293.8364
 -12791204.84447  -9891774.45345  22527085.1954                   22527086.0164
 -10551646.45747  -7706789.95744  22541723.1254                   22541722.2704
 11  8 25  0 53  0.0000000  0  9G17G10G29G12G05G02G04G25G30
 -31580770.28147 -24578843.71544  24423138.2664                   24423140.0634
 -27919560.38348 -21614049.68745  21590048.1804                   21590046.9344
   2872887.46947   2404756.05953  24671335.3674                   24671335.7274
 -27898967.84848 -21701242.19146  20820868.9774                   20820866.6884
 -27309062.35948 -21250682.48047  20608007.3204                   20608005.6884
 -34122971.50448 -26559917.75046  20943162.8674                   20943159.7274
 -27507754.31646 -21271024.46144  23367352.2584                   23367352.6604
 -12892430.50847  -9970651.55145  22507822.8834                   22507823.3284
 -10649188.75447  -7782796.91445  22523161.0864                   22523160.4024
 11  8 25  0 53 30.0000000  0  9G17G10G29G12G05G02G04G25G30
 -31543748.17247 -24549995.34844  24430183.8754                   24430185.3054
 -27889062.67648 -21590285.23445  21595851.7584                   21595850.7034
   2759345.56347   2316281.88743  24649729.4614                   24649729.8714
 -27938733.48848 -21732228.41046  20813301.8134                   20813299.3674
 -27385234.46948 -21310037.33246  20593511.8914                   20593510.0634
 -34133375.62548 -26568024.86746  20941183.1724                   20941179.5634
 -27460164.21546 -21233941.33244  23376408.2584                   23376408.4884
 -12993206.99247 -10049178.62145  22488645.6484                   22488646.9964
 -10746224.78147  -7858409.37945  22504696.2274                   22504694.7854
 11  8 25  0 54  0.0000000  0  9G17G10G29G12G05G02G04G25G30
 -31506520.25047 -24520986.57444  24437267.5474                   24437269.2464
 -27858054.93448 -21566123.35545  21601752.2734                   21601751.1484
   2645737.20747   2227755.95743  24628111.1174                   24628111.1094
 -27977903.25848 -21762750.30946  20805847.9774                   20805845.5984
 -27460848.45748 -21368957.27346  20579122.9064                   20579121.5704
 -34143607.07448 -26575997.43046  20939236.1414                   20939232.6954
 -27412582.74646 -21196864.87944  23385463.0314                   23385463.1054
 -13093527.12148 -10127350.09045  22469555.6804                   22469556.8874
 -10842747.51247  -7933621.84445  22486328.3914                   22486327.6804
 11  8 25  0 54 30.0000000  0  9G17G10G29G12G05G02G04G25G30
 -31469083.73846 -24491815.25844  24444391.4534                   24444393.0864
 -27826536.46148 -21541563.51245  21607749.9454                   21607748.5864
   2532065.96147   2139181.00843  24606479.8914                   24606480.0164
 -28016473.83648 -21792805.30946  20798508.5314                   20798506.3054
 -27535900.02748 -21427438.98046  20564841.1024                   20564839.5004
 -34153663.83248 -26583833.86746  20937322.5634                   20937319.0044
 -27365007.79346 -21159793.53944  23394516.1644                   23394516.4494
 -13193385.63348 -10205161.86345  22450552.6884                   22450553.3754
 -10938751.74247  -8008430.30145  22468059.5234                   22468058.7154
 11  8 25  0 55  0.0000000  0  9G17G10G29G12G05G02G04G25G30
 -31431448.00846 -24462488.71944  24451553.4534                   24451554.8954
 -27794519.18048 -21516614.98445  21613842.4534                   21613841.5864
   2418322.99247   2050550.18443  24584835.3834                   24584834.8404
 -28054454.23848 -21822400.43446  20791280.8364                   20791278.4384
 -27610397.37548 -21485488.82847  20550664.9224                   20550663.3054
 -34163556.32448 -26591542.30146  20935440.5004                   20935436.3834
 -27317449.50846 -21122735.15644  23403566.2504                   23403566.4384
 -13292789.72747 -10282619.54745  22431636.8594                   22431637.5984
 -11034244.91847  -8082840.52345  22449887.2584                   22449886.8134
 11  8 25  0 55 30.0000000  0  9G17G10G29G12G05G02G04G25G30
 -31393610.66846 -24433005.08643  24458753.9844                   24458755.0514
 -27762003.35548 -21491277.98845  21620030.1954                   21620028.8484
   2304511.50446   1961865.99243  24563177.7974                   24563177.2974
 -28091841.61748 -21851533.46146  20784166.3134                   20784163.8674
 -27684336.56648 -21543103.75047  20536594.6334                   20536592.9574
 -34173283.29348 -26599121.76246  20933589.0634                   20933585.4534
 -27269906.39147 -21085688.62944  23412613.3754                   23412613.5394
 -13391734.82847 -10359719.57845  22412808.0234                   22412809.4064
 -11129222.64147  -8156849.08645  22431814.2194                   22431813.0784
 11  8 25  0 56  0.0000000  0  9G17G10G29G12G05G02G04G25G30
 -31355568.17646 -24403361.61743  24465993.2734                   24465994.0474
 -27728987.24248 -21465551.15645  21626312.9614                   21626311.6994
   2190635.75046   1873131.70743  24541507.3054                   24541507.7624
 -28128632.89548 -21880202.00446  20777165.1724                   20777162.8324
 -27757713.00448 -21600280.16046  20522631.5084                   20522630.0784
 -34182841.65648 -26606569.83646  20931770.3444                   20931766.6994
 -27222375.61347 -21048651.69544  23421657.9924                   23421658.3094
 -13490214.85247 -10436457.21945  22394068.1954                   22394068.8244
 -11223678.83247  -8230451.27045  22413839.9384                   22413838.5704
 11  8 25  0 56 30.0000000  0  9G17G10G29G12G05G02G04G25G30
 -31317321.38746 -24373558.91443  24473271.0944                   24473271.8324
 -27695474.12148 -21439437.04345  21632689.9304                   21632689.0984
   2076695.00046   1784346.80143  24519826.1024                   24519825.5084
 -28164827.80948 -21908405.84046  20770277.4534                   20770275.2464
 -27830526.54348 -21657017.95347  20508775.4924                   20508774.0004
 -34192233.39548 -26613888.07046  20929983.2814                   20929979.1804
 -27174858.72747 -21011625.57044  23430700.8524                   23430700.3794
 -13588228.49247 -10512831.43745  22375416.7114                   22375417.5434
 -11317612.45747  -8303646.25045  22395964.5554                   22395963.5634
 11  8 25  0 57  0.0000000  0  9G17G10G29G12G05G02G04G25G30
 -31278868.40646 -24343595.57043  24480587.6254                   24480589.6454
 -27661464.79348 -21412936.27745  21639161.8834                   21639160.9494
   1962692.74246   1695513.94543  24498130.8524                   24498131.3524
 -28200424.02348 -21936143.15646  20763504.0634                   20763501.4454
 -27902773.98048 -21713314.62947  20495027.3444                   20495025.7034
 -34201457.73448 -26621075.85546  20928227.9534                   20928224.1134
 -27127354.65647 -20974609.44944  23439740.2194                   23439739.8134
 -13685771.51247 -10588838.94945  22356854.3984                   22356855.6524
 -11411019.42647  -8376430.84045  22378189.6724                   22378188.8014
 11  8 25  0 57 30.0000000  0  9G17G10G29G12G05G02G04G25G30
 -31240222.87946 -24313482.19542  24487941.6484                   24487943.5704
 -27626975.13748 -21386061.22345  21645725.4144                   21645724.5234
   1848615.80546   1606622.93043  24476422.6024                   24476423.4964
 -28235435.48448 -21963424.81646  20756841.2034                   20756839.0864
 -27974467.54748 -21769179.72347  20481384.4924                   20481382.9774
 -34210529.08248 -26628144.44146  20926501.8364                   20926497.9104
 -27079877.68747 -20937614.47344  23448775.0944                   23448774.7194
 -13782855.41847 -10664488.69945  22338380.1024                   22338380.9264
 -11503911.42647  -8448814.16045  22360512.8914                   22360512.1884
 11  8 25  0 58  0.0000000  0  8G10G29G12G05G02G04G25G30
 -27591989.73848 -21358799.88745  21652382.2114                   21652381.7664
   1734482.91846   1517688.31343  24454703.9384                   24454704.6294
 -28269843.60548 -21990236.34446  20750293.7894                   20750291.4344
 -28045588.28548 -21824598.45747  20467850.5004                   20467848.8834
 -34219430.56648 -26635080.66846  20924807.7114                   20924804.2734
 -27032410.76247 -20900627.26644  23457807.9694                   23457807.1954
 -13879459.97347 -10739764.94945  22319997.0474                   22319997.3364
 -11596268.35547  -8520780.53945  22342937.8914                   22342936.9614
 11  8 25  0 58 30.0000000  0  8G10G29G12G05G02G04G25G30
 -27556516.75448 -21331158.61345  21659133.3594                   21659131.5984
   1620288.72446   1428705.90243  24432973.3914                   24432973.8244
 -28303654.30148 -22016582.34446  20743859.9694                   20743857.6334
 -28116140.98848 -21879574.55947  20454424.8754                   20454423.2624
 -34228168.82848 -26641889.69546  20923145.0474                   20923141.3324
 -26984960.42246 -20863652.98444  23466837.2664                   23466836.9924
 -13975588.83647 -10814670.52345  22301704.2424                   22301704.5944
 -11688094.07047  -8592332.98845  22325464.1484                   22325463.2194
 11  8 25  0 59  0.0000000  0  8G10G29G12G05G02G04G25G30
 -27520561.55948 -21303141.58645  21665975.0784                   21665973.4344
   1506031.55146   1339674.43443  24411230.6334                   24411231.4654
 -28336869.76248 -22042464.52346  20737539.2504                   20737536.9144
 -28186126.79748 -21934108.92247  20441107.0234                   20441105.6914
 -34236747.32048 -26648574.23446  20921512.5554                   20921508.7544
 -26937530.03547 -20826694.28544  23475862.7114                   23475863.2034
 -14071242.35247 -10889205.70745  22283501.6644                   22283502.4224
 -11779389.16447  -8663471.97745  22308091.4384                   22308090.0204
 11  8 25  0 59 30.0000000  0  8G10G29G12G05G02G04G25G30
 -27484123.36348 -21274748.19545  21672908.7734                   21672907.8984
   1391715.18446   1250596.84044  24389477.1804                   24389478.1644
 -28369487.37948 -22067880.85546  20731332.2424                   20731329.7704
 -28255541.97348 -21988198.63347  20427897.8284                   20427895.8914
 -34245163.86748 -26655132.58246  20919910.5944                   20919906.7854
 -26890117.16447 -20789749.23044  23484885.0394                   23484885.0944
 -14166415.38347 -10963366.49245  22265391.3834                   22265391.5824
 -11870148.60947  -8734193.59045  22290819.9224                   22290818.6644
 11  8 25  1  0  0.0000000  0  8G10G29G12G05G02G04G25G30
 -27447195.22748 -21245973.02745  21679936.2664                   21679935.1174
   1277349.62546   1161480.90644  24367714.0004                   24367714.4654
 -28401497.12948 -22092823.52746  20725240.8674                   20725238.6054
 -28324376.17248 -22041835.64147  20414798.9614                   20414797.5554
 -34253410.04748 -26661558.17646  20918341.5084                   20918337.5824
 -26842713.30547 -20752811.18743  23493906.4224                   23493906.1564
 -14261096.36347 -11037143.86745  22247374.0474                   22247374.6134
 -11960361.06647  -8804488.97345  22273653.0864                   22273652.2234
 11  8 25  1  0 30.0000000  0  8G10G29G12G05G02G04G25G30
 -27409782.93448 -21216820.60945  21687055.3134                   21687054.5004
   1162932.23046   1072324.59044  24345942.1024                   24345942.1294
 -28432902.33648 -22117295.11746  20719264.5704                   20719262.3364
 -28392631.34848 -22095021.46547  20401810.3364                   20401809.0904
 -34261490.06648 -26667854.28546  20916804.0394                   20916800.0634
 -26795322.30547 -20715883.17243  23502923.6954                   23502924.1294
 -14355286.47348 -11110538.75045  22229450.0704                   22229450.7304
 -12050027.85947  -8874359.16445  22256590.3834                   22256589.2034
 11  8 25  1  1  0.0000000  0  8G10G29G12G05G02G04G25G30
 -27371895.37148 -21187297.84445  21694265.6564                   21694264.4264
   1048458.09446    983124.04744  24324158.1094                   24324157.5904
 -28463708.93748 -22141300.26246  20713402.4064                   20713400.0514
 -28460312.48848 -22147759.98047  20388931.2034                   20388929.7424
 -34269410.75048 -26674026.25046  20915296.6724                   20915292.7304
 -26747950.71547 -20678970.26643  23511938.4694                   23511938.8554
 -14448989.45748 -11183554.05545  22211619.3054                   22211619.5984
 -12139152.94947  -8943807.26245  22239629.8364                   22239628.6684
 11  8 25  1  1 30.0000000  0  8G10G29G12G05G02G04G25G30
 -27333541.39148 -21157411.64545  21701563.8054                   21701562.6294
    933921.12947    893874.55944  24302362.2584                   24302362.4224
 -28493923.78148 -22164844.30946  20707652.6484                   20707650.4184
 -28527425.46148 -22200055.77047  20376159.9694                   20376158.4844
 -34277179.75848 -26680080.02346  20913818.3284                   20913814.6764
 -26700606.01647 -20642078.33644  23520947.5474                   23520948.3794
 -14542209.82048 -11256193.28545  22193879.6564                   22193880.3674
 -12227741.12147  -9012836.98445  22222772.3984                   22222771.2814
 11  8 25  1  2  0.0000000  0  8G10G29G12G05G02G04G25G30
 -27294716.32048 -21127158.35245  21708952.0164                   21708950.8204
    819329.44947    804582.41844  24280556.3054                   24280556.2584
 -28523539.55148 -22187921.53546  20702016.7814                   20702014.7854
 -28593961.81648 -22251902.24647  20363498.6334                   20363496.6414
 -34284790.55948 -26686010.52346  20912370.0554                   20912366.2504
 -26653281.73846 -20605202.32844  23529952.9144                   23529953.9024
 -14634938.27347 -11328449.21145  22176234.2664                   22176235.0474
 -12315783.21547  -9081441.18745  22206018.7664                   22206017.4734
 11  8 25  1  2 30.0000000  0  8G10G29G12G05G02G04G25G30
 -27255432.43748 -21096547.54745  21716427.4534                   21716426.2664
    704674.39147    715240.87944  24258737.8674                   24258737.9924
 -28552565.73448 -22210539.34446  20696493.2734                   20696491.0824
 -28659930.31648 -22303306.24247  20350945.0234                   20350943.2424
 -34292253.64148 -26691825.91446  20910949.9534                   20910946.3794
 -26605988.00847 -20568350.11743  23538953.2664                   23538953.5744
 -14727182.29348 -11400327.66446  22158680.7424                   22158681.3914
 -12403287.00847  -9149625.94145  22189367.1644                   22189366.3794
 11  8 25  1  3  0.0000000  0  8G10G29G12G05G02G04G25G30
 -27215683.75847 -21065574.57445  21723991.2274                   21723990.0984
    589964.87947    625856.91044  24236909.3594                   24236909.5944
 -28580994.01648 -22232691.26246  20691083.7274                   20691081.2544
 -28725321.73848 -22354260.56647  20338501.4534                   20338499.4844
 -34299561.57048 -26697520.40246  20909559.0704                   20909555.3134
 -26558717.05147 -20531515.64544  23547948.6414                   23547949.0904
 -14818931.46147 -11471820.52045  22141221.3444                   22141222.1134
 -12490242.22747  -9217383.24245  22172820.3364                   22172818.9614
 11  8 25  1  3 30.0000000  0  8G10G29G12G05G02G04G25G30
 -27175468.34448 -21034237.89845  21731644.3594                   21731642.9494
    475206.66846    536434.98844  24215071.3674                   24215071.5084
 -28608819.91048 -22254373.77746  20685788.7194                   20685786.5164
 -28790130.76648 -22404761.06647  20326168.9064                   20326166.9414
 -34306710.76648 -26703091.20346  20908198.6174                   20908195.3094
 -26511464.97347 -20494695.88743  23556940.2894                   23556940.8984
 -14910179.12947 -11542922.59045  22123857.6024                   22123858.4384
 -12576642.40247  -9284708.03145  22156379.2664                   22156377.6454
 11  8 25  1  4  0.0000000  0  8G10G29G12G05G02G04G25G30
 -27134793.94147 -21002543.56245  21739384.2734                   21739382.6094
    360395.23846    446971.57044  24193223.9454                   24193223.7544
 -28636048.82448 -22275591.13346  20680607.2504                   20680604.7154
 -28854361.53548 -22454810.98847  20313945.6884                   20313944.3134
 -34313707.00048 -26708542.81246  20906867.4924                   20906863.2274
 -26464237.62147 -20457895.38344  23565927.1644                   23565928.1564
 -15000928.46147 -11613636.34045  22106588.3984                   22106589.1564
 -12662490.99647  -9351603.02045  22140042.2034                   22140040.8834
 11  8 25  1  4 30.0000000  0  8G10G29G12G05G02G04G25G30
 -27093665.87947 -20970495.73445  21747210.4064                   21747209.3754
    245528.52047    357465.09044  24171364.6804                   24171364.7274
 -28662683.20348 -22296345.19946  20675538.9694                   20675536.6094
 -28918015.97348 -22504411.81647  20301832.8984                   20301831.1804
 -34320553.94948 -26713878.10246  20905564.7274                   20905560.9454
 -26417038.46147 -20421116.85244  23574908.8914                   23574909.9414
 -15091180.20348 -11683962.36745  22089413.7894                   22089414.8794
 -12747788.94147  -9418068.93045  22123810.5084                   22123809.2934
 11  8 25  1  5  0.0000000  0  8G10G29G12G05G02G04G25G30
 -27052080.43447 -20938091.50445  21755124.2504                   21755122.8244
    130613.85947    267921.22344  24149497.6174                   24149496.8914
 -28688717.48048 -22316631.65646  20670584.6644                   20670582.1994
 -28981087.12548 -22553558.13747  20289830.7734                   20289828.6724
 -34327246.36348 -26719092.97346  20904291.0864                   20904287.3244
 -26369861.67247 -20384355.77044  23583886.7584                   23583887.0354
 -15180926.03947 -11753894.17246  22072335.8914                   22072336.8634
 -12832528.19947  -9484099.50845  22107684.7974                   22107683.9804
 11  8 25  1  5 30.0000000  0  8G10G29G12G05G02G04G25G30
 -27010049.00847 -20905339.75845  21763122.1414                   21763121.0314
     15643.63347    178334.04743  24127618.9454                   24127618.9494
 -28714159.90648 -22336456.94146  20665743.1484                   20665740.3834
 -29043582.59448 -22602255.87147  20277938.0314                   20277936.4924
 -34333793.34048 -26724194.52346  20903045.0784                   20903041.3794
 -26322716.37947 -20347619.18744  23592857.7424                   23592858.6764
 -15270172.46548 -11823436.82846  22055352.9844                   22055353.5904
 -12916715.52747  -9549700.01645  22091665.1484                   22091664.1174
 11  8 25  1  6  0.0000000  0  8G10G29G12G05G02G04G25G30
 -26967572.44548 -20872241.15245  21771205.4384                   21771204.4694
    -99379.90246     88705.32843  24105731.4454                   24105730.6884
 -28739009.70348 -22355820.42646  20661014.5474                   20661012.3284
 -29105500.05948 -22650503.21947  20266155.6024                   20266154.1414
 -34340194.18448 -26729182.19946  20901827.1724                   20901823.3524
 -26275601.61747 -20310906.39544  23601823.7344                   23601824.4494
 -15358916.00448 -11892587.62545  22038465.5084                   22038466.2734
 -13000347.62147  -9614867.85945  22075750.2664                   22075748.7704
 11  8 25  1  6 30.0000000  0  8G10G29G12G05G02G04G25G30
 -26924652.40248 -20838796.97745  21779373.1414                   21779371.8794
   -214454.81646      -963.44543  24083833.0474                   24083832.8674
 -28763265.87148 -22374721.34846  20656398.6954                   20656396.3204
 -29166838.03548 -22698299.01247  20254483.4144                   20254481.7974
 -34346448.84848 -26734055.96146  20900636.6724                   20900633.1644
 -26228517.13747 -20274217.21144  23610783.6564                   23610784.4454
 -15447153.69548 -11961344.25045  22021674.6884                   22021675.5274
 -13083421.83247  -9679601.00045  22059941.6334                   22059940.6994
 11  8 25  1  7  0.0000000  0  8G10G29G12G05G02G04G25G30
 -26881290.87948 -20805008.77745  21787624.7814                   21787623.6724
   -329579.34446    -90670.82843  24061925.6804                   24061925.3284
 -28786927.86748 -22393159.28546  20651895.8914                   20651893.5354
 -29227595.02748 -22745642.09847  20242922.1024                   20242919.9384
 -34352557.58248 -26738816.01246  20899474.5084                   20899470.4804
 -26181462.73447 -20237551.46544  23619738.0784                   23619738.5354
 -15534882.91448 -12029704.66846  22004980.3834                   22004981.3244
 -13165935.79747  -9743897.57845  22044239.8594                   22044238.4344
 11  8 25  1  7 30.0000000  0  8G10G29G12G05G02G04G25G30
 -26837492.67648 -20770880.31645  21795958.9304                   21795957.6914
   -444754.76646   -180417.89543  24040008.4304                   24040007.6724
 -28809998.08248 -22411136.08246  20647505.7034                   20647503.8364
 -29287772.26648 -22792533.42647  20231470.3364                   20231468.6334
 -34358523.13348 -26743464.50046  20898339.4924                   20898335.6914
 -26134441.15247 -20200911.27344  23628687.1564                   23628686.0084
 -15622103.87547 -12097669.03146  21988382.9224                   21988383.5634
 -13247889.85947  -9807757.88345  22028644.1954                   22028643.0164
 11  8 25  1  8  0.0000000  0  8G10G29G12G05G02G04G25G30
 -26793263.19547 -20736415.79745  21804375.5314                   21804374.3014
   -559983.05546   -270206.14543  24018081.2664                   24018080.5434
 -28832479.83248 -22428654.34446  20643227.4844                   20643225.2774
 -29347372.05548 -22838974.78947  20220128.9774                   20220127.1804
 -34364349.18048 -26748004.28146  20897230.7034                   20897226.9574
 -26087455.56246 -20164299.14844  23637627.0474                   23637627.5234
 -15708817.37547 -12165237.97346  21971881.5634                   21971882.3244
 -13329285.20747  -9871182.81245  22013155.6884                   22013154.0944
 11  8 25  1  8 30.0000000  0  8G10G29G12G05G02G04G25G30
 -25173171.74648 -19474006.88345  22112668.9384                   22112667.5904
    900175.16446    867579.52043  24295939.8364                   24295939.7344
 -27278937.72748 -21218102.06646  20938856.9774                   20938854.7034
 -27830957.01248 -21657352.65647  20508693.3834                   20508691.5234
 -32794601.46148 -25524824.24246  21195943.7274                   21195939.9304
 -24465073.26247 -18900105.14144  23946356.0784                   23946356.4774
 -14219583.85248 -11004796.25046  22255273.3364                   22255273.8284
 -11834682.65647  -8706557.43445  22297568.5164                   22297567.4534
 11  8 25  1  9  0.0000000  0  8G10G29G12G05G02G04G25G30
 -25128064.62948 -19438858.49245  22121252.6024                   22121251.5124
    784867.11346    777729.14543  24273997.5004                   24273997.5784
 -27300219.96548 -21234685.64146  20934806.9064                   20934804.8364
 -27889376.67648 -21702874.44947  20497576.1414                   20497574.2114
 -32800127.48448 -25529130.24246  21194892.2424                   21194888.3324
 -24418138.11747 -18863532.31243  23955287.4774                   23955287.9614
 -14305253.58648 -11071551.86746  22238970.9924                   22238971.9104
 -11914932.47747  -8769089.76245  22282297.5634                   22282296.6374
 11  8 25  1  9 30.0000000  0  8G10G29G12G05G02G04G25G30
 -25082537.07448 -19403382.48445  22129915.6644                   22129914.7464
    669506.75446    687838.03143  24252045.1644                   24252045.0744
 -27320917.19548 -21250813.35946  20930868.4844                   20930865.9734
 -27947219.68048 -21747946.89147  20486568.8524                   20486567.2584
 -32805518.71148 -25533331.19946  21193866.1414                   21193862.0164
 -24371243.43447 -18826990.98843  23964211.3284                   23964211.9024
 -14390412.94548 -11137909.79746  22222765.7424                   22222766.2464
 -11994621.45747  -8831185.05945  22267133.1804                   22267132.2194
 11  8 25  1 10  0.0000000  0  8G10G29G12G05G02G04G25G30
 -25036578.27748 -19367570.44545  22138661.7114                   22138660.7974
    554107.83646    597916.85243  24230085.7034                   24230085.2154
 -27341016.90648 -21266475.48446  20927043.6884                   20927041.3954
 -28004472.55948 -21792559.50447  20475673.9224                   20475672.6644
 -32810762.97748 -25537417.64846  21192868.2114                   21192864.4694
 -24324376.44947 -18790471.27743  23973129.6484                   23973129.8954
 -14475046.89848 -11203858.30146  22206660.2664                   22206661.1844
 -12073734.76247  -8892831.77745  22252078.6724                   22252077.4064
 11  8 25  1 10 30.0000000  0  8G10G29G12G05G02G04G25G30
 -24990191.96947 -19331425.28945  22147488.7974                   22147487.5514
    438670.24246    507965.57844  24208117.9844                   24208118.1724
 -27360520.53948 -21281673.12946  20923332.1094                   20923330.0204
 -28061135.30548 -21836712.27747  20464891.6254                   20464889.5984
 -32815862.10548 -25541391.00446  21191897.9924                   21191894.0664
 -24277538.53547 -18753974.20343  23982042.9144                   23982042.9414
 -14559154.58648 -11269396.74645  22190654.9694                   22190655.5394
 -12152271.89147  -8954029.53545  22237133.4614                   22237132.0124
 11  8 25  1 11  0.0000000  0  8G10G29G12G05G02G04G25G30
 -24943388.18447 -19294954.82845  22156395.2114                   22156394.2814
    323187.87146    417979.41444  24186142.0394                   24186142.6604
 -27379435.68748 -21296412.21546  20919732.9694                   20919730.8984
 -28117214.73448 -21880410.50047  20454219.9304                   20454218.2934
 -32820823.95348 -25545257.38346  21190953.6334                   21190950.0904
 -24230737.30547 -18717505.69543  23990948.8134                   23990948.8164
 -14642741.32848 -11334529.24246  22174749.0944                   22174749.3484
 -12230238.44147  -9014782.67245  22222296.8444                   22222295.4694
 11  8 25  1 11 30.0000000  0  8G10G29G12G05G02G04G25G30
 -24896171.93447 -19258162.96545  22165380.4064                   22165379.1094
    207659.65247    327957.53944  24164158.2424                   24164158.2274
 -27397765.02748 -21310694.82046  20916244.8674                   20916242.8714
 -28172712.93448 -21923655.82047  20443659.0394                   20443657.6214
 -32825651.68048 -25549019.25846  21190035.1644                   21190031.2114
 -24183975.76247 -18681068.11743  23999847.6724                   23999847.4694
 -14725807.73448 -11399256.28546  22158941.6954                   22158942.4844
 -12307635.27747  -9075091.89545  22207569.2894                   22207567.6484
 11  8 25  1 12  0.0000000  0  8G10G29G12G05G02G04G25G30
 -24848533.02347 -19221041.75045  22174445.1724                   22174444.3524
     92099.18847    237910.52044  24142167.8524                   24142167.6094
 -27415496.25448 -21324511.37546  20912870.6094                   20912868.6994
 -28227616.32048 -21966437.66047  20433211.1094                   20433209.3714
 -32830333.27748 -25552667.26246  21189144.1644                   21189140.3674
 -24137241.46546 -18644651.80943  24008740.4844                   24008740.0824
 -14808339.18448 -11463566.47746  22143236.9774                   22143237.3204
 -12384448.16447  -9134946.07445  22192951.3834                   22192950.2664
 11  8 25  1 12 30.0000000  0  8G10G29G12G05G02G04G25G30
 -24800482.87547 -19183600.08245  22183589.1724                   22183588.1254
    -23501.16847    147832.41044  24120169.6484                   24120169.9654
 -27432638.77048 -21337869.18446  20909608.4064                   20909606.4774
 -28281933.28148 -22008762.53947  20422874.9534                   20422873.4104
 -32834877.90648 -25556208.53546  21188279.4064                   21188275.5944
 -24090543.52346 -18608263.80143  24017626.8204                   24017626.7624
 -14890342.66848 -11527465.27046  22127631.7664                   22127632.6484
 -12460684.28947  -9194350.82845  22178444.4774                   22178443.5044
 11  8 25  1 13  0.0000000  0  8G10G29G12G05G02G04G25G30
 -24752023.47747 -19145839.52045  22192810.5474                   22192809.5984
   -139139.53147     57724.70344  24098164.9144                   24098164.5434
 -27449192.30548 -21350768.04746  20906458.4534                   20906456.5234
 -28335662.68748 -22050629.58247  20412650.4454                   20412648.8324
 -32839285.60548 -25559643.10946  21187440.5704                   21187436.8754
 -24043881.98046 -18571904.16843  24026505.7194                   24026506.2114
 -14971815.72748 -11590950.73446  22112128.2344                   22112128.9884
 -12536341.55947  -9253304.53545  22164047.5864                   22164046.4064
 11  8 25  1 13 30.0000000  0  8G10G29G12G05G02G04G25G30
 -24703155.87947 -19107760.87545  22202110.1174                   22202108.6644
   -254813.40647    -32410.68744  24076152.4224                   24076151.9304
 -27465155.84048 -21363207.16846  20903420.8594                   20903418.4884
 -28388802.55948 -22092037.24247  20402538.3054                   20402536.4734
 -32843555.41448 -25562970.23046  21186627.9064                   21186624.5394
 -23997255.20746 -18535571.60543  24035378.6414                   24035378.7504
 -15052754.86348 -11654020.17246  22096726.0234                   22096726.4734
 -12611416.71547  -9311804.64145  22149760.8834                   22149759.7704
 11  8 25  1 14  0.0000000  0  8G10G29G12G05G02G04G25G30
 -24653890.84047 -19069372.55145  22211484.2504                   22211483.2384
   -370528.83247   -122578.46144  24054132.4534                   24054132.2194
 -27480537.49648 -21375192.87546  20900493.8984                   20900491.9344
 -28441359.78548 -22132990.89847  20392537.1094                   20392535.4804
 -32847695.88348 -25566196.57846  21185840.2504                   21185836.2504
 -23950671.50446 -18499272.65643  24044243.4144                   24044243.2504
 -15133166.08648 -11716678.23846  22081424.2344                   22081425.0234
 -12685916.19147  -9369856.16445  22135584.3204                   22135582.9024
 11  8 25  1 14 30.0000000  0  8G10G29G12G05G02G04G25G30
 -24604231.61347 -19030677.05145  22220934.6804                   22220933.4384
   -486286.35547   -212779.04344  24032103.9534                   24032104.0124
 -27495338.87148 -21386726.42246  20897677.5864                   20897675.1884
 -28493335.46548 -22173491.40647  20382646.3594                   20382644.8164
 -32851708.72348 -25569323.47346  21185076.3834                   21185072.5004
 -23904132.16846 -18463008.25043  24053099.8444                   24053099.8134
 -15213048.66448 -11778924.37546  22066223.0634                   22066223.5314
 -12759839.59847  -9427458.80545  22121517.2814                   22121516.2034
 11  8 25  1 15  0.0000000  0  8G10G29G12G05G02G04G25G30
 -24554171.21947 -18991668.96545  22230460.8284                   22230459.2814
   -602074.98047   -303003.86344  24010070.1484                   24010070.3164
 -27509550.99648 -21397800.80546  20894972.7034                   20894970.5164
 -28544719.16448 -22213530.61747  20372868.3204                   20372866.7704
 -32855584.49248 -25572343.55146  21184339.2424                   21184335.1724
 -23857627.69546 -18426771.03143  24061948.8364                   24061949.6134
 -15292391.11348 -11840749.64846  22051124.6804                   22051125.3014
 -12833175.54747  -9484603.66845  22107561.5474                   22107560.2034
 11  8 25  1 15 30.0000000  0  8G10G29G12G05G02G04G25G30
 -24503716.14847 -18952353.32445  22240061.7814                   22240060.6844
   -717897.34847   -393254.98844  23988030.0164                   23988029.7194
 -27523178.01248 -21408419.25846  20892379.6414                   20892377.5634
 -28595514.27748 -22253111.19147  20363202.1334                   20363200.4884
 -32859327.62948 -25575260.27046  21183626.8914                   21183622.8524
 -23811162.24646 -18390564.22743  24070791.6724                   24070791.4924
 -15371195.54748 -11902155.67646  22036128.6644                   22036129.1884
 -12905926.68747  -9541292.84845  22093717.6334                   22093716.5354
 11  8 25  1 16  0.0000000  0  8G10G29G12G05G02G04G25G30
 -24452869.86747 -18912732.85245  22249737.6174                   22249736.2774
   -833752.92247   -483531.99644  23965983.4384                   23965982.9844
 -27536221.71548 -21418583.18746  20889897.3444                   20889895.1294
 -28645721.45348 -22292233.64547  20353648.0004                   20353646.1374
 -32862939.68048 -25578074.85246  21182939.3284                   21182935.8164
 -23764737.00446 -18354388.73443  24079625.3754                   24079625.4844
 -15449460.96948 -11963141.69946  22021235.3364                   22021236.2464
 -12978092.25047  -9597525.73045  22079985.0864                   22079984.0274
 11  8 25  1 16 30.0000000  0  8G10G29G12G05G02G04G25G30
 -24401643.01247 -18872815.82045  22259485.6724                   22259484.8954
   -949648.16847   -573839.94544  23943929.4614                   23943928.9264
 -27548690.38748 -21428299.03546  20887524.8674                   20887522.8984
 -28695347.96948 -22330903.63347  20344204.5004                   20344202.7424
 -32866428.87548 -25580793.70346  21182275.7974                   21182271.9494
 -23718359.92646 -18318250.79343  24088450.4844                   24088451.4144
 -15527193.45748 -12023712.44546  22006443.1564                   22006443.8054
 -13049678.78547  -9653307.42245  22066362.1644                   22066361.0474
 11  8 25  1 17  0.0000000  0  8G10G29G12G05G02G04G25G30
 -24350033.18447 -18832600.38345  22269306.9694                   22269306.0274
  -1065577.21547   -664174.21544  23921868.4694                   23921867.9734
 -27560579.89548 -21437563.59846  20885262.0784                   20885260.1684
 -28744388.78148 -22369117.22347  20334872.5314                   20334870.7934
 -32869791.22348 -25583413.71146  21181635.2114                   21181631.3444
 -23672026.64146 -18282147.00043  24097267.6564                   24097268.5204
 -15604386.69548 -12083863.00046  21991753.8834                   21991754.3754
 -13120680.13747  -9708633.11745  22052850.8674                   22052849.7304
 11  8 25  1 17 30.0000000  0  8G10G29G12G05G02G04G25G30
 -24298033.54347 -18792081.18745  22279202.1024                   22279201.3244
  -1181529.46147   -754526.60244  23899803.5314                   23899803.3164
 -27571881.46548 -21446370.02346  20883111.7274                   20883109.4804
 -28792834.14848 -22406866.84047  20325653.5704                   20325651.7624
 -32873017.65248 -25585927.80546  21181021.8914                   21181017.9964
 -23625727.84346 -18246070.06843  24106078.3754                   24106078.8834
 -15681029.42648 -12143584.59446  21977169.1254                   21977169.6564
 -13191085.52747  -9763494.43745  22039454.0314                   22039452.9774
 11  8 25  1 18  0.0000000  0  8G10G29G12G05G02G04G25G30
 -24245655.66447 -18751267.26645  22289169.6334                   22289168.6094
  -1297512.46947   -844902.94544  23877733.0944                   23877732.5044
 -27582604.61348 -21454725.72346  20881070.8594                   20881068.7704
 -28840692.79748 -22444159.26247  20316546.3594                   20316544.6294
 -32876117.64548 -25588343.36746  21180431.7344                   21180428.2384
 -23579472.63346 -18210027.11743  24114880.4924                   24114881.1914
 -15757128.81648 -12202882.80946  21962687.4924                   21962688.8094
 -13260902.35947  -9817897.14545  22026167.7974                   22026166.8364
 11  8 25  1 18 30.0000000  0  8G10G29G12G05G02G04G25G30
 -24192896.32047 -18710156.10245  22299208.6884                   22299208.1094
  -1413518.85947   -935297.51644  23855657.5554                   23855657.4734
 -27592744.01248 -21462626.56646  20879141.5704                   20879139.6644
 -28887958.16048 -22480989.39547  20307551.8364                   20307550.2544
 -32879085.61348 -25590656.06646  21179867.1254                   21179863.4654
 -23533255.21146 -18174013.58244  24123675.6334                   24123675.7234
 -15832677.23848 -12261751.69546  21948311.7584                   21948312.4654
 -13330123.38347  -9871835.58645  22012995.9064                   22012994.4574
 11  8 25  1 19  0.0000000  0  8G10G29G12G05G02G04G25G30
 -24139764.77347 -18668754.91045  22309319.2344                   22309318.3674
  -1529554.29747  -1025714.74244  23833576.6024                   23833576.5044
 -27602307.33248 -21470078.51646  20877321.5864                   20877319.6994
 -28934637.34448 -22517362.75847  20298669.3054                   20298667.3484
 -32881928.90648 -25592871.60946  21179326.0784                   21179321.8754
 -23487082.72746 -18138035.06244  24132462.1884                   24132462.2034
 -15907680.09448 -12320195.47346  21934039.1954                   21934039.5434
 -13398754.41847  -9925314.30145  21999935.7034                   21999934.5904
 11  8 25  1 19 30.0000000  0  8G10G29G12G05G02G04G25G30
 -24086272.27347 -18627072.46545  22319498.8594                   22319498.3094
  -1645625.95747  -1116160.19544  23811489.2274                   23811488.9104
 -27611303.95748 -21477088.88746  20875609.8754                   20875607.7424
 -28980738.25848 -22553285.52747  20289896.6644                   20289894.5704
 -32884656.69148 -25594997.15646  21178806.9614                   21178802.9844
 -23440963.74246 -18102098.24643  24141238.0784                   24141238.6764
 -15982144.15248 -12378219.40646  21919868.7894                   21919869.5354
 -13466802.53547  -9978338.78145  21986986.2034                   21986985.3364
 11  8 25  1 20  0.0000000  0  8G10G29G12G05G02G04G25G30
 -24032411.39147 -18585102.94945  22329748.5784                   22329747.9414
  -1761722.36747  -1206624.93744  23789396.6334                   23789396.5234
 -27619724.43748 -21483650.32446  20874007.4924                   20874005.3324
 -29026250.59448 -22588749.66847  20281235.8914                   20281234.0904
 -32887259.11348 -25597025.01646  21178311.7194                   21178307.6024
 -23394888.41046 -18066195.44544  24150005.6174                   24150006.6134
 -16056057.67648 -12435814.35546  21905803.8284                   21905804.4104
 -13534256.31247 -10030900.15645  21974150.4454                   21974149.5784
 11  8 25  1 20 30.0000000  0  8G10G29G12G05G02G04G25G30
 -23978188.87147 -18542851.65245  22340066.5314                   22340066.0904
  -1877845.84447  -1297110.75444  23767299.2974                   23767298.4184
 -27627573.31248 -21489766.34446  20872514.1024                   20872512.3874
 -29071177.94148 -22623757.97347  20272686.4454                   20272684.3984
 -32889740.57448 -25598958.60946  21177839.4454                   21177835.6294
 -23348860.77046 -18030329.78144  24158765.1174                   24158765.5594
 -16129422.81248 -12492981.99246  21891842.6644                   21891843.2234
 -13601118.37147 -10083000.44545  21961427.0004                   21961425.6994
 11  8 25  1 21  0.0000000  0  8G10G29G12G05G02G04G25G30
 -23923608.03547 -18500321.13745  22350452.7504                   22350451.7304
  -1993996.29347  -1387617.59444  23745196.3594                   23745196.0704
 -27634852.63748 -21495438.57046  20871128.8834                   20871126.8554
 -29115521.14148 -22658311.09047  20264248.0864                   20264246.2934
 -32892102.60948 -25600799.14846  21177389.6884                   21177385.9654
 -23302881.96946 -17994502.16843  24167513.5784                   24167514.6174
 -16202239.22748 -12549722.05146  21877986.2114                   21877986.6374
 -13667388.66047 -10134639.62145  21948816.1724                   21948814.8954
 11  8 25  1 21 30.0000000  0  9G26G10G29G12G05G02G04G25G30
   4577294.46955   3606892.17252  24809112.2584                   24809118.3874
 -23868665.78947 -18457509.00845  22360907.8914                   22360907.2774
  -2110166.28147  -1478139.66044  23723090.0314                   23723089.4264
 -27641557.09448 -21500662.83646  20869852.8674                   20869850.9734
 -29159274.40648 -22692404.51647  20255922.5234                   20255920.3204
 -32894339.70748 -25602542.33646  21176964.2194                   21176960.3754
 -23256946.07046 -17958707.99643  24176255.4224                   24176256.1724
 -16274499.31248 -12606028.60946  21864235.3364                   21864236.2114
 -13733060.03147 -10185812.10545  21936319.5314                   21936317.9804
 11  8 25  1 22  0.0000000  0  9G26G10G29G12G05G02G04G25G30
   4453002.68845   3510041.78142  24785460.1804                   24785466.0864
 -23813377.29347 -18414427.07445  22371429.3204                   22371427.9844
  -2226366.74247  -1568685.44544  23700977.9384                   23700977.2584
 -27647699.93748 -21505449.50046  20868684.0554                   20868681.7894
 -29202449.72748 -22726047.60947  20247706.2504                   20247704.2304
 -32896464.72347 -25604198.20346  21176559.8054                   21176555.9414
 -23211065.71946 -17922957.09043  24184985.8524                   24184987.4534
 -16346213.91848 -12661910.13746  21850588.8914                   21850589.3404
 -13798143.63347 -10236526.60545  21923934.2504                   21923933.1604
 11  8 25  1 22 30.0000000  0  9G26G10G29G12G05G02G04G25G30
   4328584.66846   3413093.08242  24761783.8754                   24761790.1334
 -23757733.08647 -18371067.96145  22382018.0474                   22382016.7854
  -2342584.84847  -1659244.97744  23678861.8204                   23678861.5084
 -27653270.16448 -21509789.94946  20867624.1024                   20867622.0084
 -29245035.32448 -22759231.16847  20239602.3674                   20239600.4304
 -32898466.33248 -25605757.89546  21176178.5554                   21176174.8164
 -23165229.10946 -17887240.24243  24193708.1724                   24193709.4884
 -16417369.74248 -12717356.23446  21837047.9304                   21837048.7034
 -13862626.61347 -10286773.07845  21911663.8054                   21911662.8284
 11  8 25  1 23  0.0000000  0  9G26G10G29G12G05G02G04G25G30
   4204043.59446   3316048.51243  24738084.2424                   24738089.8524
 -23701735.44947 -18327433.46145  22392673.4924                   22392672.5234
  -2458818.69147  -1749816.77044  23656743.1094                   23656742.9384
 -27658268.84448 -21513685.04746  20866672.7114                   20866670.9224
 -29287030.80148 -22791954.89847  20231610.9694                   20231609.0634
 -32900344.79348 -25607221.64146  21175821.2424                   21175817.3364
 -23119436.14546 -17851557.41443  24202422.5314                   24202423.4344
 -16487965.00448 -12772365.53946  21823614.2344                   21823614.5554
 -13926507.52047 -10336550.39545  21899507.4694                   21899506.3484
 11  8 25  1 23 30.0000000  0  9G26G10G29G12G05G02G04G25G30
   4079374.74246   3218904.35943  24714360.7274                   24714365.4924
 -23645394.94947 -18283531.80544  22403395.4224                   22403394.1524
  -2575074.32447  -1840405.51244  23634620.7894                   23634620.4774
 -27662704.26248 -21517141.23046  20865829.1644                   20865826.9264
 -29328443.75048 -22824224.70347  20223730.1334                   20223728.3674
 -32902107.32048 -25608595.03546  21175485.8834                   21175482.3874
 -23073694.62546 -17815914.68743  24211126.6414                   24211127.3094
 -16558005.96148 -12826942.89846  21810286.0314                   21810286.6454
 -13989793.00847 -10385863.75845  21887464.6174                   21887463.0474
 11  8 25  1 24  0.0000000  0  9G26G10G29G12G05G02G04G25G30
   3954580.30546   3121662.31343  24690612.7504                   24690617.5474
 -23588715.17647 -18239365.75444  22414180.9614                   22414180.0004
  -2691351.25847  -1931010.85244  23612493.8444                   23612493.3094
 -27666578.35948 -21520160.03146  20865091.6414                   20865089.3954
 -29369275.22348 -22856041.41447  20215960.3524                   20215958.4844
 -32903755.97748 -25609879.69946  21175172.5004                   21175168.3674
 -23028005.47346 -17780312.73843  24219821.5784                   24219821.9534
 -16627492.10548 -12881087.95346  21797063.0864                   21797063.5824
 -14052482.94547 -10434713.06645  21875534.9924                   21875533.5944
 11  8 25  1 24 30.0000000  0  9G26G10G29G12G05G02G04G25G30
   3829659.69146   3024321.95343  24666840.4304                   24666844.9654
 -23531702.26247 -18194940.12945  22425029.9774                   22425029.5474
  -2807652.13347  -2021634.83244  23590362.5004                   23590361.9884
 -27669895.32848 -21522744.68746  20864460.4694                   20864458.1214
 -29409529.07848 -22887408.03147  20208300.1414                   20208298.1094
 -32905294.92247 -25611078.88346  21174879.2894                   21174875.5234
 -22982372.65646 -17744754.71143  24228504.5784                   24228505.2304
 -16696425.66048 -12934802.41846  21783945.2734                   21783945.9574
 -14114579.98447 -10483100.36345  21863718.3204                   21863717.1214
 11  8 25  1 25  0.0000000  0  9G26G10G29G12G05G02G04G25G30
   3704621.43446   2926889.93044  24643046.8204                   24643050.8364
 -23474353.67247 -18150252.93045  22435943.6024                   22435941.9414
  -2923970.04347  -2112272.07044  23568228.2734                   23568227.4184
 -27672651.85948 -21524892.64846  20863936.0784                   20863933.9804
 -29449199.61348 -22918320.10947  20200751.2974                   20200749.5394
 -32906718.96948 -25612188.53146  21174608.3204                   21174604.7114
 -22936790.87546 -17709236.40643  24237178.5004                   24237179.7704
 -16764799.94548 -12988081.08646  21770934.6414                   21770935.0164
 -14176077.86747 -10531020.79345  21852015.4064                   21852014.4024
 11  8 25  1 25 30.0000000  0  9G26G10G29G12G05G02G04G25G30
   3579472.77046   2829371.84043  24619231.4064                   24619235.5784
 -23416667.80147 -18105302.92245  22446920.7344                   22446919.7704
  -3040299.24247  -2202918.10944  23546090.9844                   23546090.4534
 -27674844.14848 -21526600.93446  20863519.0704                   20863516.9804
 -29488282.76648 -22948774.49647  20193314.0004                   20193312.0164
 -32908024.52748 -25613205.85246  21174359.7504                   21174356.3404
 -22891255.75446 -17673754.51643  24245844.1174                   24245845.1564
 -16832609.37948 -13040919.61346  21758030.6884                   21758031.2704
 -14236971.32047 -10578470.23045  21840428.3674                   21840426.6294
 11  8 25  1 26  0.0000000  0  9G26G10G29G12G05G02G04G25G30
   3454208.61346   2731763.77044  24595394.4924                   24595398.6844
 -23358655.63747 -18060098.66845  22457959.9844                   22457958.8874
  -3156646.33647  -2293578.08244  23523950.8594                   23523950.6524
 -27676481.28948 -21527876.63746  20863207.5164                   20863205.3284
 -29526787.10948 -22978777.85947  20185986.8834                   20185984.6724
 -32909220.17248 -25614137.53946  21174132.5234                   21174128.8404
 -22845775.88346 -17638315.64842  24254498.0314                   24254498.9654
 -16899860.79748 -13093323.31646  21745233.3674                   21745233.8834
 -14297267.63747 -10625454.37945  21828953.9844                   21828952.7854
 11  8 25  1 26 30.0000000  0  9G26G10G29G12G05G02G04G25G30
   3328832.74446   2634068.62643  24571536.0004                   24571539.4494
 -23300318.80147 -18014641.41845  22469061.3754                   22469060.4264
  -3273009.11347  -2384250.27344  23501807.7034                   23501807.0474
 -27677563.99248 -21528720.32046  20863001.2344                   20862998.8634
 -29564711.84848 -23008329.58647  20178770.0864                   20178768.1884
 -32910305.22348 -25614983.03546  21173926.2194                   21173921.8134
 -22800350.43046 -17602919.23843  24263142.8524                   24263143.5124
 -16966552.00048 -13145290.50446  21732542.2344                   21732543.1804
 -14356965.09047 -10671971.87545  21817594.5234                   21817592.9384
 11  8 25  1 27  0.0000000  0  9G26G10G29G12G05G02G04G25G30
   3203355.08646   2536294.17243  24547657.9694                   24547662.1094
 -23241653.61347 -17968928.30945  22480224.3834                   22480223.6334
  -3389379.85947  -2474928.67644  23479662.7734                   23479662.7154
 -27678086.78148 -21529127.69546  20862902.0474                   20862899.7194
 -29602050.32448 -23037424.48047  20171664.5634                   20171662.3954
 -32911273.70348 -25615737.69546  21173741.7274                   21173737.7544
 -22754972.87946 -17567560.09043  24271777.9144                   24271778.2304
 -17032675.35948 -13196815.20346  21719959.3834                   21719960.1094
 -14416056.37547 -10718017.03545  21806349.2274                   21806348.3204
 11  8 25  1 27 30.0000000  0  9G26G10G29G12G05G02G04G25G30
   3077773.91446   2438439.03543  24523760.7424                   24523764.2074
 -23182667.21147 -17922964.90644  22491449.5864                   22491449.1294
  -3505761.18447  -2565615.32444  23457516.1484                   23457515.6684
 -27678055.14548 -21529103.05146  20862907.8834                   20862905.3444
 -29638807.44948 -23066066.37947  20164669.7734                   20164667.9064
 -32912130.30948 -25616405.19546  21173578.6254                   21173574.7974
 -22709647.71946 -17532241.76243  24280402.7194                   24280403.6054
 -17098233.94948 -13247899.82446  21707483.8134                   21707484.8554
 -14474545.13347 -10763592.69145  21795219.4064                   21795218.2234
 11  8 25  1 28  0.0000000  0  9G26G10G29G12G05G02G04G25G30
   2952084.88346   2340499.84043  24499842.4224                   24499845.9304
 -23123369.83647 -17876759.18044  22502733.5004                   22502732.3524
  -3622159.46547  -2656315.18444  23435366.7114                   23435366.2274
 -27677477.90648 -21528653.26246  20863017.9144                   20863015.5124
 -29674990.78148 -23094261.16047  20157784.4774                   20157782.2034
 -32912883.10947 -25616991.80946  21173435.2974                   21173431.8594
 -22664382.59046 -17496970.25443  24289016.7814                   24289016.9224
 -17163234.14548 -13298549.32846  21695114.6024                   21695115.5704
 -14532437.94147 -10808703.98045  21784202.7664                   21784201.5744
 11  8 25  1 28 30.0000000  0  9G26G10G29G12G05G02G04G25G30
   2826298.99746   2242485.16943  24475906.1024                   24475909.4064
 -23063756.72347 -17830307.43444  22514077.8134                   22514076.9884
  -3738565.57847  -2747021.16044  23413215.1484                   23413214.4964
 -27676348.59848 -21527773.28946  20863232.4304                   20863230.4454
 -29710593.25448 -23122003.33647  20151009.7274                   20151007.2074
 -32913524.82848 -25617491.84846  21173313.4384                   21173309.7234
 -22619169.97347 -17461739.66043  24297620.6564                   24297620.8014
 -17227667.14848 -13348756.86346  21682853.8834                   21682854.3484
 -14589726.60547 -10853344.50045  21773301.2114                   21773299.2664
 11  8 25  1 29  0.0000000  0  9G26G10G29G12G05G02G04G25G30
   2700411.84046   2144391.57443  24451950.0394                   24451953.3444
 -23003837.53547 -17783617.18444  22525479.4454                   22525478.6844
  -3854985.33647  -2837737.76244  23391061.1884                   23391060.6454
 -27674675.55148 -21526469.64146  20863550.9454                   20863548.9734
 -29745622.25848 -23149298.64547  20144343.8284                   20144341.6994
 -32914063.01248 -25617911.23446  21173210.8524                   21173207.4024
 -22574017.05147 -17426555.53543  24306212.6334                   24306213.1524
 -17291538.95748 -13398527.11346  21670699.1884                   21670699.9304
 -14646417.45747 -10897519.20745  21762513.3674                   21762511.8594
 11  8 25  1 29 30.0000000  0  9G26G10G29G12G05G02G04G25G30
   2574436.09446   2046228.92243  24427977.7424                   24427980.9064
 -22943605.67247 -17736683.27044  22536940.9614                   22536940.7704
  -3971407.74647  -2928456.44944  23368906.6884                   23368906.1994
 -27672450.95748 -21524736.20346  20863974.1174                   20863972.2774
 -29780068.54748 -23176139.89547  20137788.7344                   20137786.5864
 -32914488.66448 -25618242.92246  21173129.9534                   21173126.3284
 -22528914.79747 -17391410.96943  24314795.4534                   24314796.0434
 -17354839.14548 -13447851.94146  21658653.7974                   21658654.1644
 -14702500.53147 -10941220.30945  21751841.1564                   21751839.6414
 11  8 25  1 30  0.0000000  0  9G26G10G29G12G05G02G04G25G30
   2448376.27346   1948000.74643  24403988.4844                   24403992.2704
 -22883062.48046 -17689506.77744  22548462.0234                   22548461.4414
  -4087829.53547  -3019174.64844  23346752.2194                   23346751.5984
 -27669674.48048 -21522572.72746  20864502.6094                   20864500.5554
 -29813931.09848 -23202526.28147  20131345.0084                   20131342.8714
 -32914800.81247 -25618486.16446  21173070.7274                   21173066.7464
 -22483861.39147 -17356304.40243  24323368.5944                   24323369.4384
 -17417565.02748 -13496729.25446  21646717.3914                   21646718.2424
 -14757973.55547 -10984446.05145  21741284.8284                   21741283.3284
 11  8 25  1 30 30.0000000  0  9G26G10G29G12G05G02G04G25G30
   2322230.71146   1849705.79342  24379984.0944                   24379987.1254
 -22822215.80547 -17642093.80544  22560041.2734                   22560040.1454
  -4204254.70747  -3109895.51244  23324597.5474                   23324596.1994
 -27666352.38348 -21519984.09846  20865134.6484                   20865132.5824
 -29847215.55548 -23228462.20347  20125011.2584                   20125009.0474
 -32915004.85547 -25618645.16846  21173031.8054                   21173027.6914
 -22438861.83247 -17321239.80143  24331931.4064                   24331932.8914
 -17479720.67248 -13545162.23046  21634889.2344                   21634890.4184
 -14812841.09447 -11027199.99245  21730843.8134                   21730842.5784
 11  8 25  1 31  0.0000000  0  9G26G10G29G12G05G02G04G25G30
   2196002.16846   1751346.15242  24355962.5554                   24355966.0664
 -22761068.42647 -17594446.53144  22571677.2894                   22571676.3164
  -4320681.93047  -3200617.98044  23302441.8524                   23302440.8954
 -27662486.21548 -21516971.51646  20865870.3134                   20865868.3244
 -29879922.34448 -23253947.99247  20118787.5164                   20118785.6374
 -32915101.38747 -25618720.39846  21173013.5944                   21173009.8484
 -22393916.75047 -17286217.65243  24340484.4614                   24340484.7624
 -17541305.23448 -13593150.20346  21623170.3524                   21623171.3484
 -14867102.65647 -11069481.75045  21720518.0394                   21720516.7704
 11  8 25  1 31 30.0000000  0  9G26G10G29G12G05G02G04G25G30
   2069696.55546   1652926.38743  24331927.7114                   24331930.9924
 -22699620.48847 -17546565.04344  22583370.2814                   22583369.4574
  -4437106.84447  -3291338.65244  23280286.8134                   23280286.1604
 -27658075.06648 -21513534.27346  20866709.6804                   20866707.9304
 -29912048.93748 -23278981.69147  20112673.6564                   20112672.1294
 -32915087.89148 -25618709.89146  21173016.1724                   21173012.2424
 -22349023.54347 -17251235.91443  24349027.3754                   24349027.8324
 -17602314.85248 -13640690.16046  21611560.4614                   21611561.3554
 -14920754.91847 -11111288.72745  21710308.2114                   21710307.5044
 11  8 25  1 32  0.0000000  0  9G26G10G29G12G05G02G04G25G30
   1943321.34846   1554452.43843  24307879.4924                   24307882.5004
 -22637870.34847 -17498448.07844  22595120.8284                   22595120.2274
  -4553523.69147  -3382053.05144  23258133.6484                   23258132.5434
 -27653115.85248 -21509669.98046  20867653.7194                   20867651.7424
 -29943591.65648 -23303560.41447  20106671.2424                   20106669.4264
 -32914960.99647 -25618611.02746  21173039.8134                   21173036.2034
 -22304177.92647 -17216291.28143  24357561.6644                   24357561.7344
 -17662744.40648 -13687778.12146  21600061.4844                   21600062.2384
 -14973793.10547 -11152617.20745  21700215.5234                   21700214.8674
 11  8 25  1 32 30.0000000  0  9G26G10G29G12G05G02G04G25G30
   3392299.14546   2683526.25043  24583610.4304                   24583612.8324
 -21000407.08647 -16222502.67244  22906720.4144                   22906719.1844
  -3094511.67647  -2245160.54744  23535774.2114                   23535773.4964
 -26072194.52748 -20277783.25446  21168492.9534                   21168490.9964
 -28399134.72748 -22100087.46547  20400571.7504                   20400570.0704
 -31339304.72348 -24390826.93446  21472877.9064                   21472873.7974
 -20683965.68046 -15953788.23443  24665878.0084                   24665878.0824
 -16147175.38748 -12506815.25046  21888464.2974                   21888465.2974
 -13450799.46547  -9965868.94145  21990031.5554                   21990030.5474
 11  8 25  1 33  0.0000000  0  9G26G10G29G12G05G02G04G25G30
   3265780.16046   2584940.20743  24559534.3524                   24559537.5664
 -20938074.68747 -16173931.99244  22918581.6094                   22918580.3914
  -3210922.12947  -2335869.97344  23513621.9064                   23513620.9304
 -26066157.28548 -20273078.93446  21169641.7504                   21169639.8324
 -28429525.43048 -22123768.52047  20394788.6254                   20394786.3444
 -31338964.68448 -24390561.97746  21472942.0634                   21472938.6334
 -20639228.84846 -15918928.34443  24674390.8984                   24674391.3954
 -16206455.93748 -12553007.88746  21877183.9774                   21877184.5164
 -13502622.09448 -10006250.23845  21980169.9614                   21980169.1484
 11  8 25  1 33 30.0000000  0  9G26G10G29G12G05G02G04G25G30
   3139193.13747   2486301.19143  24535445.4384                   24535448.3914
 -20875456.31247 -16125138.48844  22930497.7424                   22930496.8014
  -3327327.63347  -2426575.53944  23491470.4774                   23491469.6684
 -26059584.36748 -20267957.20346  21170892.6884                   21170890.6174
 -28459341.53148 -22147001.82847  20389115.0394                   20389113.0664
 -31338519.70747 -24390215.24246  21473026.2664                   21473023.2854
 -20594547.47346 -15884111.68243  24682893.3364                   24682893.9024
 -16265161.41848 -12598752.41846  21866012.4614                   21866013.0164
 -13553837.01247 -10046157.98845  21970424.4304                   21970423.4614
 11  8 25  1 34  0.0000000  0  9G26G10G29G12G05G02G04G25G30
   3012532.64547   2387604.91843  24511342.8204                   24511345.2934
 -20812563.35947 -16076131.00044  22942465.2424                   22942464.5634
  -3443735.18447  -2517282.69945  23469318.7194                   23469317.8834
 -26052485.91048 -20262425.95746  21172243.7194                   21172241.2544
 -28488592.57048 -22169794.81647  20383548.1954                   20383546.4734
 -31337978.69948 -24389793.67246  21473130.1334                   21473125.7624
 -20549930.31646 -15849345.05543  24691383.4614                   24691383.9384
 -16323299.59048 -12644054.87946  21854948.9694                   21854949.9804
 -13604452.50847 -10085598.64845  21960792.5944                   21960791.1994
 11  8 25  1 34 30.0000000  0  9G26G10G29G12G05G02G04G25G30
   2885814.01247   2288863.34043  24487228.8204                   24487231.7544
 -20749386.65647 -16026902.44544  22954487.9304                   22954486.9924
  -3560131.44547  -2607981.06645  23447169.7194                   23447168.9184
 -26044850.97348 -20256476.67246  21173696.4224                   21173694.2234
 -28517267.13748 -22192138.62147  20378092.0004                   20378089.7704
 -31337330.33248 -24389288.44146  21473253.1804                   21473249.4104
 -20505365.28946 -15814619.01243  24699863.9384                   24699864.6134
 -16380857.66048 -12688905.32046  21843995.8364                   21843997.2304
 -13654456.21547 -10124562.57845  21951277.1564                   21951276.2274
 11  8 25  1 35  0.0000000  0  9G26G10G29G12G05G02G04G25G30
   2759039.45347   2190078.18043  24463104.1094                   24463106.8794
 -20685929.43447 -15977455.28144  22966563.0314                   22966562.5084
  -3676515.78547  -2698670.14545  23425022.3594                   23425021.6174
 -26036682.32848 -20250111.52746  21175250.8134                   21175248.7734
 -28545366.44148 -22214034.15647  20372744.6414                   20372742.6054
 -31336575.62147 -24388700.34446  21473397.0474                   21473393.1884
 -20460853.18646 -15779934.26243  24708334.4454                   24708334.8094
 -16437835.64848 -12733303.73846  21833153.7814                   21833154.3404
 -13703848.57848 -10163050.14145  21941878.3364                   21941877.2424
 11  8 25  1 35 30.0000000  0  9G26G10G29G12G05G02G04G25G30
   2632209.04346   2091249.49643  24438969.6644                   24438972.0744
 -20622198.12946 -15927794.54744  22978690.6724                   22978689.4694
  -3792890.16847  -2789351.47744  23402876.7814                   23402876.6134
 -26027984.93748 -20243334.35946  21176906.1564                   21176904.3524
 -28572894.52748 -22235484.59447  20367506.1724                   20367504.0204
 -31335717.95748 -24388032.02746  21473559.9384                   21473555.9104
 -20416397.38346 -15745293.38343  24716793.9064                   24716794.4924
 -16494236.03948 -12777252.07846  21822420.8984                   21822421.4924
 -13752632.48848 -10201063.58245  21932594.8134                   21932594.0594
 11  8 25  1 36  0.0000000  0  9G26G10G29G12G05G02G04G25G30
   2505319.23447   1992374.52743  24414822.8524                   24414825.0984
 -20558201.94947 -15877927.43444  22990869.0314                   22990868.1804
  -3909259.18047  -2880028.62545  23380732.5634                   23380731.9384
 -26018766.73448 -20236151.37546  21178660.0554                   21178657.8794
 -28599858.84848 -22256495.73847  20362375.0164                   20362372.7544
 -31334764.66048 -24387289.18746  21473741.4924                   21473737.7814
 -20372004.56246 -15710701.58643  24725241.6884                   24725242.4534
 -16550064.70348 -12820754.92646  21811797.1024                   21811797.9534
 -13800814.47748 -10238607.99245  21923426.1094                   21923425.2854
 11  8 25  1 36 30.0000000  0  9G26G10G29G12G05G02G04G25G30
   2378371.80147   1893454.63343  24390665.0634                   24390668.3754
 -20493944.75047 -15827856.91044  23003096.4454                   23003096.0394
  -4025623.14147  -2970701.82044  23358589.0704                   23358588.8204
 -26009031.00848 -20228565.11746  21180512.8284                   21180511.1484
 -28626261.28948 -22277069.04747  20357350.6954                   20357348.6564
 -31333717.30147 -24386473.05546  21473940.7814                   21473936.6914
 -20327676.08646 -15676159.89843  24733677.5474                   24733677.6254
 -16605322.43748 -12863812.89846  21801281.8834                   21801282.9804
 -13848395.71148 -10275684.27745  21914371.5704                   21914370.6684
 11  8 25  1 37  0.0000000  0  9G26G10G29G12G05G02G04G25G30
   2251383.65646   1794503.05543  24366500.1564                   24366502.9924
 -20429416.04347 -15777574.84044  23015376.0234                   23015375.4144
  -4141966.77347  -3061359.17644  23336450.0704                   23336449.4774
 -25998765.94948 -20220566.39146  21182466.0314                   21182464.1884
 -28652089.26648 -22297194.71947  20352435.9614                   20352433.5904
 -31332562.69948 -24385573.34046  21474160.5314                   21474156.7234
 -20283398.51646 -15641657.88743  24742103.1724                   24742103.1054
 -16659994.93448 -12906414.82846  21790878.2424                   21790878.7974
 -13895362.35948 -10312281.65645  21905434.2664                   21905433.5084
 11  8 25  1 37 30.0000000  0  9G26G10G29G12G05G02G04G25G30
   2124349.50046   1695515.60543  24342325.4384                   24342328.2234
 -20364627.13747 -15727089.98844  23027705.2424                   23027703.9414
  -4258296.95747  -3152006.05144  23314313.1174                   23314312.2544
 -25987981.89148 -20212163.24646  21184518.2894                   21184516.2934
 -28677351.90648 -22316879.86747  20347628.5784                   20347626.1684
 -31331309.55148 -24384596.85246  21474399.1094                   21474395.2504
 -20239180.33246 -15607202.16843  24750516.6804                   24750517.6334
 -16714089.96948 -12948566.79346  21780584.4304                   21780585.1414
 -13941722.64547 -10348406.53545  21896612.2274                   21896610.9884
 11  8 25  1 38  0.0000000  0  8G26G10G29G12G05G02G25G30
   1997274.64846   1596496.46143  24318143.9144                   24318146.7034
 -20299578.94947 -15676403.11344  23040082.9774                   23040082.8364
  -4374610.22347  -3242639.73044  23292179.1024                   23292178.9344
 -25976678.35548 -20203355.32046  21186669.1884                   21186667.3164
 -28702047.93748 -22336123.50047  20342928.7814                   20342926.7854
 -31329956.43748 -24383542.46546  21474656.2814                   21474652.4264
 -16767605.03548 -12990266.83246  21770400.6564                   21770401.6054
 -13987474.52048 -10384057.32045  21887905.8134                   21887905.1724
 11  8 25  1 38 30.0000000  0  8G26G10G29G12G05G02G25G30
   1870153.59446   1497441.32443  24293954.4064                   24293956.1844
 -20234282.80147 -15625522.99644  23052508.6174                   23052507.7734
  -4490913.09847  -3333265.31245  23270047.6954                   23270047.2034
 -25964865.29748 -20194150.35946  21188917.0784                   21188915.2194
 -28726186.48848 -22354932.73447  20338335.6024                   20338333.3834
 -31328512.11748 -24382417.01246  21474931.4614                   21474927.5274
 -16820547.88348 -13031520.99246  21760325.9844                   21760326.6914
 -14032626.31648 -10419240.52345  21879313.7974                   21879312.4414
 11  8 25  1 39  0.0000000  0  8G26G10G29G12G05G02G25G30
   1743005.83646   1398365.34443  24269757.7034                   24269760.5044
 -20168725.06647 -15574439.04744  23064984.1564                   23064982.9804
  -4607188.07447  -3423869.16445  23247921.3834                   23247920.4104
 -25952528.73048 -20184537.46946  21191264.8364                   21191262.5354
 -28749752.98848 -22373296.21547  20333851.0784                   20333849.0514
 -31326960.59448 -24381208.02346  21475226.8204                   21475222.4264
 -16872901.84848 -13072316.28146  21750363.3754                   21750364.4924
 -14077161.74248 -10453943.43745  21870839.2114                   21870838.0824
 11  8 25  1 39 30.0000000  0  8G26G10G29G12G05G02G25G30
   1615836.30546   1299272.39543  24245558.1094                   24245560.5784
 -20102906.96947 -15523152.23044  23077508.7734                   23077507.7854
  -4723432.23847  -3514448.99245  23225800.3364                   23225799.4654
 -25939668.73848 -20174516.70746  21193712.1414                   21193710.0944
 -28772746.19548 -22391212.98047  20329475.5004                   20329473.3134
 -31325301.17248 -24379914.94946  21475542.2114                   21475538.1414
 -16924664.90248 -13112651.12546  21740513.4064                   21740513.9064
 -14121079.36348 -10488164.94145  21862481.7504                   21862480.5944
 11  8 25  1 40  0.0000000  0  8G26G10G29G12G05G02G25G30
   1488640.24246   1200158.76243  24221354.0004                   24221356.0274
 -20036839.22347 -15471670.87544  23090081.0164                   23090080.2074
  -4839651.18047  -3605009.15645  23203684.7114                   23203684.1994
 -25926294.73048 -20164095.42646  21196256.8204                   21196255.3834
 -28795174.98448 -22408689.93447  20325207.3984                   20325205.1094
 -31323541.33648 -24378543.64146  21475876.9384                   21475873.1724
 -16975844.24248 -13152531.12146  21730774.0704                   21730774.4494
 -14164386.84048 -10521911.00845  21854240.1564                   21854239.4454
 11  8 25  1 40 30.0000000  0  8G26G10G29G12G05G02G25G30
   1361417.81646   1101024.58643  24197144.2814                   24197146.3094
 -19970528.01647 -15419999.81244  23102699.6804                   23102698.9304
  -4955847.19947  -3695551.46944  23181573.7584                   23181572.7974
 -25912412.81248 -20153278.35946  21198898.9534                   21198896.7424
 -28817043.77748 -22425730.52347  20321045.9534                   20321043.5004
 -31321684.94548 -24377097.10246  21476230.3674                   21476226.4804
 -17026442.85548 -13191958.60946  21721145.4924                   21721146.4344
 -14207087.56648 -10555184.28145  21846114.9304                   21846114.0124
 11  8 25  1 41  0.0000000  0  8G26G10G29G12G05G02G25G30
   1234168.89846   1001869.74243  24172930.0004                   24172931.1374
 -19903979.43446 -15368143.78944  23115363.1804                   23115362.6294
  -5072021.76247  -3786077.04745  23159466.2734                   23159465.5084
 -25898027.44548 -20142069.00046  21201636.4144                   21201634.3954
 -28838356.60248 -22442337.90247  20316990.0164                   20316988.0164
 -31319735.46548 -24375578.02346  21476601.4144                   21476597.8014
 -17076463.39848 -13230935.65246  21711626.8594                   21711627.2704
 -14249184.75047 -10587987.26245  21838104.1484                   21838102.5514
 11  8 25  1 41 30.0000000  0  8G26G10G29G12G05G02G25G30
   1106913.79346    902710.05143  24148713.7034                   24148715.3484
 -19837179.10247 -15316091.59844  23128075.4384                   23128074.4924
  -5188156.20747  -3876571.36345  23137366.6564                   23137365.4804
 -25883123.55948 -20130455.59446  21204472.4844                   21204470.1214
 -28859097.20348 -22458499.38747  20313043.3134                   20313041.2774
 -31317675.98448 -24373973.23446  21476993.3754                   21476989.2934
 -17125888.45348 -13269448.68746  21702221.4454                   21702221.7934
 -14290661.43748 -10620306.73445  21830211.2734                   21830210.1024
 11  8 25  1 42  0.0000000  0  8G26G10G29G12G05G02G25G30
    979649.37947    803543.11343  24124495.7344                   24124497.8594
 -19770136.24647 -15263850.40244  23140832.8284                   23140832.4774
  -5304255.25047  -3967038.07845  23115273.5554                   23115272.6024
 -25867709.21148 -20118444.43046  21207405.7114                   21207403.5554
 -28879273.16448 -22474220.89847  20309204.0474                   20309202.1914
 -31315513.29348 -24372288.02046  21477404.5784                   21477400.7734
 -17174724.04748 -13307502.39846  21692928.6094                   21692929.0904
 -14331524.25048 -10652147.86345  21822435.0234                   21822433.9264
 11  8 25  1 42 30.0000000  0  8G26G10G29G12G05G02G25G30
    852377.32847    704370.25843  24100276.5704                   24100278.2304
 -19702855.42647 -15211423.81644  23153636.4774                   23153635.1524
  -5420319.09047  -4057477.37145  23093187.1954                   23093185.9494
 -25851788.46948 -20106038.67246  21210435.3914                   21210433.5394
 -28898887.29748 -22489504.62147  20305471.3674                   20305469.5204
 -31313250.09448 -24370524.48846  21477835.2344                   21477831.6414
 -17222971.62948 -13345097.92646  21683747.2194                   21683747.8524
 -14371775.10248 -10683512.14545  21814775.6414                   21814774.8524
 11  8 25  1 43  0.0000000  0  8G26G10G29G12G05G02G25G30
    725091.89146    605186.93443  24076054.7114                   24076056.5234
 -19635348.26647 -15158820.86344  23166482.1724                   23166481.6954
  -5536354.96947  -4147894.88745  23071106.1094                   23071105.4104
 -25835372.11348 -20093246.71946  21213559.1174                   21213556.9384
 -28917949.66048 -22504358.39547  20301844.2664                   20301842.2194
 -31310895.14548 -24368689.46946  21478283.1024                   21478279.9454
 -17270639.77748 -13382241.94946  21674676.3594                   21674676.8444
 -14411423.04748 -10714406.63745  21807230.8914                   21807230.1134
 11  8 25  1 43 30.0000000  0  8G26G10G29G12G05G02G25G30
    597795.57047    505995.15643  24051830.3594                   24051832.8714
 -19567618.18047 -15106044.18744  23179371.0084                   23179370.3834
  -5652362.10947  -4238290.00045  23049030.7194                   23049029.4924
 -25818463.08248 -20080070.86746  21216776.7584                   21216775.0704
 -28936462.29348 -22518783.80147  20298321.4144                   20298319.2854
 -31308449.28148 -24366783.59446  21478748.8674                   21478745.4344
 -17317728.98448 -13418934.85246  21665715.4534                   21665716.3754
 -14450469.06248 -10744832.09845  21799800.7194                   21799799.8014
 11  8 25  1 44  0.0000000  0  8G26G10G29G12G05G02G25G30
    470497.52347    406802.03543  24027606.6414                   24027608.3444
 -19499662.20347 -15053091.51644  23192302.5784                   23192302.0354
  -5768333.05147  -4328656.90244  23026962.1804                   23026961.0314
 -25801057.44548 -20066508.04346  21220088.7194                   21220086.7624
 -28954419.98848 -22532776.79347  20294904.0784                   20294901.8714
 -31305907.18748 -24364802.75046  21479232.6414                   21479228.7664
 -17364233.12148 -13455171.85546  21656866.3284                   21656866.9224
 -14488907.50847 -10774784.12545  21792486.3984                   21792484.9494
 11  8 25  1 44 30.0000000  0  8G26G10G29G12G05G02G25G30
    343196.19947    307606.35943  24003382.1884                   24003384.0744
 -19431488.09447 -14999968.84844  23205275.8984                   23205274.7274
  -5884270.89847  -4418998.02345  23004899.6254                   23004898.7344
 -25783161.84448 -20052563.43446  21223494.2814                   21223492.0944
 -28971829.07848 -22546342.30147  20291591.0554                   20291588.6994
 -31303274.21548 -24362751.08646  21479733.5634                   21479729.9734
 -17410156.69148 -13490956.46946  21648126.8134                   21648128.1724
 -14526743.49248 -10804266.71145  21785286.5474                   21785285.1764
 11  8 25  1 45  0.0000000  0  8G26G10G29G12G05G02G25G30
    215907.17646    208420.26243  23979159.5084                   23979161.4924
 -19363086.14147 -14946668.64844  23218292.5084                   23218291.7234
  -6000161.74647  -4509302.52345  22982846.2734                   22982845.4654
 -25764766.37548 -20038229.31646  21226994.9924                   21226993.0634
 -28988678.21948 -22559471.49247  20288384.9224                   20288383.0594
 -31300538.19948 -24360619.12946  21480254.3054                   21480250.4064
 -17455487.32048 -13526279.06646  21639501.4534                   21639501.7274
 -14563965.02748 -10833270.51245  21778203.0084                   21778202.4804
 11  8 25  1 45 30.0000000  0  8G26G10G29G12G05G02G25G30
     88626.87946    109240.95343  23954938.4534                   23954940.7814
 -19294466.42247 -14893198.75044  23231350.3444                   23231348.8164
  -6116011.02047  -4599574.62945  22960801.0004                   22960799.8244
 -25745879.98448 -20023512.65246  21230589.0004                   21230586.9454
 -29004975.72348 -22572170.83247  20285283.6954                   20285281.3714
 -31297706.40248 -24358412.53546  21480793.1414                   21480789.6804
 -17500231.74248 -13561144.86346  21630986.6644                   21630986.8204
 -14600579.52048 -10861801.29345  21771236.1484                   21771234.4694
 11  8 25  1 46  0.0000000  0  8G26G10G29G12G05G02G25G30
    -38640.06246     10072.09043  23930720.7584                   23930722.5434
 -19225630.48047 -14839560.37944  23244449.3204                   23244448.5274
  -6231815.68447  -4689811.98045  22938764.1334                   22938763.1254
 -25726504.05548 -20008414.54346  21234276.0864                   21234274.1374
 -29020721.76648 -22584440.46547  20282287.1644                   20282285.0594
 -31294777.93048 -24356130.61346  21481350.3134                   21481346.8204
 -17544388.82848 -13595553.00446  21622583.7114                   21622584.5314
 -14636586.14548 -10889858.42245  21764384.3674                   21764382.8524
 11  8 25  1 46 30.0000000  0  8G26G10G29G12G05G02G25G30
   -165898.39546    -89090.07044  23906504.2344                   23906506.3014
 -19156588.89547 -14785761.75444  23257588.1024                   23257586.5554
  -6347581.97347  -4780019.43745  22916734.6254                   22916733.8554
 -25706648.17648 -19992942.44546  21238054.3834                   21238052.6054
 -29035925.30148 -22596287.36347  20279394.2034                   20279391.6994
 -31291760.82848 -24353779.62546  21481924.9534                   21481921.3794
 -17587966.07848 -13629509.32846  21614291.1334                   21614291.9734
 -14671993.07847 -10917448.25845  21757646.3204                   21757645.0904
 11  8 25  1 47  0.0000000  0  8G26G10G29G12G05G02G25G30
   -293149.32446   -188246.47743  23882289.0314                   23882290.8674
 -19087349.16447 -14731808.73044  23270763.7584                   23270762.3834
  -6463312.61747  -4870199.11745  22894711.7664                   22894711.2734
 -25686318.91448 -19977101.48446  21241923.1644                   21241921.3404
 -29050592.24648 -22607716.13747  20276602.8364                   20276600.7424
 -31288659.69548 -24351363.17246  21482514.7584                   21482511.0944
 -17630968.00048 -13663017.33246  21606108.1254                   21606109.0984
 -14706805.30148 -10944574.68745  21751021.5474                   21751020.2234
 11  8 25  1 47 30.0000000  0  8G26G10G29G12G05G02G25G30
   -420373.57846   -287382.12543  23858078.6334                   23858080.3594
 -19017898.11347 -14677691.05144  23283979.0394                   23283978.6254
  -6578990.44947  -4960337.64845  22872698.9694                   22872698.0594
 -25665502.72348 -19960881.10246  21245884.4774                   21245882.8054
 -29064707.77748 -22618715.24647  20273916.7734                   20273914.3834
 -31285459.16848 -24348869.27046  21483123.9694                   21483120.4614
 -17673378.71948 -13696064.66846  21598037.9614                   21598038.5314
 -14741007.46148 -10971225.75845  21744513.0634                   21744512.0004
 11  8 25  1 48  0.0000000  0  8G26G10G29G12G05G02G25G30
   -547579.19546   -386503.22344  23833872.1724                   23833873.5824
 -18948249.76247 -14623419.63744  23297232.6094                   23297231.8634
  -6694624.58247  -5050442.13345  22850694.4304                   22850693.7034
 -25644213.08248 -19944291.78946  21249935.5634                   21249933.5634
 -29078284.62948 -22629294.59847  20271333.1484                   20271331.0634
 -31282170.69148 -24346306.82446  21483749.4844                   21483746.1484
 -17715209.43048 -13728660.03946  21590077.5164                   21590078.6914
 -14774611.32048 -10997410.61745  21738118.9454                   21738117.7664
 11  8 25  1 48 30.0000000  0  8G26G10G29G12G05G02G25G30
   -674761.20346   -485605.94944  23809670.1094                   23809672.1564
 -18878405.39147 -14568995.44544  23310523.9614                   23310523.2504
  -6810211.89147  -5140510.13345  22828698.8594                   22828697.8754
 -25622450.69948 -19927334.10946  21254076.8204                   21254074.7814
 -29091322.41848 -22639453.90647  20268852.2504                   20268850.1644
 -31278793.29348 -24343675.08646  21484392.2584                   21484388.4614
 -17756458.66048 -13760802.30946  21582228.3674                   21582229.2464
 -14807615.82448 -11023128.44545  21731838.1484                   21731837.0394
 11  8 25  1 49  0.0000000  0  8G26G10G29G12G05G02G25G30
   -801914.28146   -584686.12544  23785473.4924                   23785475.1764
 -18808365.66047 -14514419.05543  23323852.2894                   23323851.5744
  -6925749.03947  -5230539.05545  22806713.0004                   22806711.9454
 -25600215.59048 -19910008.07046  21258308.1564                   21258306.4184
 -29103820.98448 -22649193.03147  20266473.6724                   20266471.7934
 -31275325.16848 -24340972.65246  21485052.1334                   21485048.2624
 -17797124.51648 -13792490.00046  21574489.7034                   21574490.4024
 -14840019.66048 -11048378.22345  21725672.1564                   21725671.4224
 11  8 25  1 49 30.0000000  0  8G26G10G29G12G05G02G25G30
   -929036.48846   -683742.25043  23761282.7424                   23761285.0084
 -18738134.90647 -14459693.81643  23337216.6174                   23337215.8914
  -7041235.57047  -5320528.53545  22784736.7274                   22784735.3404
 -25577511.55548 -19892316.63746  21262628.4844                   21262626.6174
 -29115782.85948 -22658513.96547  20264197.5554                   20264195.3484
 -31271767.87148 -24338200.73046  21485729.4774                   21485725.6914
 -17837208.43048 -13823724.22746  21566862.1414                   21566862.8914
 -14871824.77748 -11073161.46545  21719619.4924                   21719618.6804
 11  8 25  1 50  0.0000000  0  8G26G10G29G12G05G02G25G30
  -1056121.40647   -782769.30143  23737099.7504                   23737100.9884
 -18667712.86347 -14404819.50843  23350617.8054                   23350616.5864
  -7156666.58247  -5410474.74645  22762770.4064                   22762769.1994
 -25554338.18448 -19874259.48446  21267038.2194                   21267036.5984
 -29127206.42648 -22667415.43047  20262023.5084                   20262021.9104
 -31268118.77348 -24335357.27746  21486423.2814                   21486419.9104
 -17876707.50048 -13854502.72746  21559345.3134                   21559346.6094
 -14903028.76248 -11097476.29745  21713681.5784                   21713680.7894
 11  8 25  1 50 30.0000000  0  8G26G10G29G12G05G02G25G30
  -1183166.59846   -881765.43743  23712923.7504                   23712924.2934
 -18597103.19547 -14349799.00843  23364053.7974                   23364053.2664
  -7272041.34847  -5500377.14545  22740815.6644                   22740814.4264
 -25530698.64848 -19855839.09046  21271536.6254                   21271534.7234
 -29138094.13748 -22675899.35547  20259951.5944                   20259949.5824
 -31264378.85548 -24332443.05546  21487135.3594                   21487131.4384
 -17915622.74248 -13884826.30546  21551940.4304                   21551941.3094
 -14933633.18448 -11121323.93045  21707858.3594                   21707856.9574
 11  8 25  1 51  0.0000000  0  8G26G10G29G12G05G02G25G30
  -1310169.58246   -980728.65244  23688755.3834                   23688756.8914
 -18526309.53947 -14294635.14844  23377525.4454                   23377524.9924
  -7387359.06247  -5590235.06645  22718871.3914                   22718870.3524
 -25506595.88747 -19837057.74646  21276123.2974                   21276121.4924
 -29148448.44548 -22683967.63747  20257981.4454                   20257979.1804
 -31260549.03548 -24329458.77346  21487864.0864                   21487860.5354
 -17953955.24648 -13914695.78546  21544645.8914                   21544646.5704
 -14963639.66447 -11144705.63345  21702147.7194                   21702146.9804
 11  8 25  1 51 30.0000000  0  8G26G10G29G12G05G02G25G30
  -1437131.09846  -1079659.57444  23664595.6724                   23664596.7894
 -18455338.56247 -14239333.12543  23391030.7974                   23391029.7464
  -7502621.96547  -5680050.28945  22696937.5554                   22696936.7584
 -25482036.15247 -19817920.33246  21280797.0394                   21280795.2664
 -29158274.11348 -22691623.99247  20256111.6724                   20256109.2464
 -31256633.83248 -24326407.96146  21488609.1024                   21488605.4734
 -17991709.16848 -13944114.41446  21537461.6724                   21537462.3324
 -14993052.86747 -11167625.04345  21696550.7114                   21696549.9104
 11  8 25  1 52  0.0000000  0  8G26G10G29G12G05G02G25G30
  -1564039.93046  -1178549.43444  23640444.9454                   23640446.6954
 -18384185.74247 -14183889.38744  23404570.9454                   23404570.4844
  -7617820.68047  -5769815.50045  22675015.8914                   22675014.5664
 -25457014.60948 -19798423.05146  21285558.2504                   21285556.4694
 -29167565.88748 -22698864.32447  20254343.4694                   20254341.0784
 -31252625.73848 -24323284.77046  21489372.2974                   21489368.3484
 -18028877.03948 -13973076.37946  21530388.5944                   21530389.7034
 -15021865.86348 -11190076.75445  21691068.1564                   21691067.0864
 11  8 25  1 52 30.0000000  0  8G26G10G29G12G05G02G25G30
  -1690890.01246  -1277393.51244  23616306.2974                   23616307.7894
 -18312850.92647 -14128303.84844  23418145.9774                   23418144.8954
  -7732950.66447  -5859527.16445  22653107.2504                   22653106.1484
 -25431530.62548 -19778565.43046  21290408.3054                   21290406.4384
 -29176322.32048 -22705687.50847  20252677.1254                   20252674.7584
 -31248522.43048 -24320087.37946  21490152.8284                   21490149.2344
 -18065456.35948 -14001579.74246  21523427.6804                   21523428.9774
 -15050076.68447 -11212059.23046  21685699.7584                   21685698.6134
 11  8 25  1 53  0.0000000  0  9G26G10G29G12G05G02G15G25G30
  -1817684.38746  -1376194.16844  23592178.2194                   23592179.7384
 -18241343.34847 -14072583.67244  23431753.1094                   23431752.0594
  -7848016.58647  -5949188.89845  22631211.4064                   22631209.8674
 -25405593.04348 -19758354.35946  21295343.7974                   21295342.1134
 -29184551.25448 -22712099.65247  20251111.1414                   20251109.0904
 -31244330.48048 -24316820.91446  21490950.4454                   21490946.5234
   6120186.89856   4794952.29353  24503368.8284                   24503373.8914
 -18101453.85548 -14029629.73446  21516577.8054                   21516578.4454
 -15077692.61348 -11233578.15245  21680444.6334                   21680443.4734
 11  8 25  1 53 30.0000000  0  9G26G10G29G12G05G02G15G25G30
  -1944434.84846  -1474960.62543  23568057.8364                   23568059.7194
 -18169680.95747 -14016742.87544  23445389.9534                   23445388.6454
  -7963031.87547  -6038811.17245  22609324.3834                   22609323.1414
 -25379219.51248 -19737803.57846  21300362.4224                   21300360.9924
 -29192269.52348 -22718113.87947  20249642.5004                   20249640.1414
 -31240064.90648 -24313497.07046  21491762.2194                   21491758.7304
   5994928.27046   4697348.57843  24479532.8524                   24479537.3984
 -18136884.96148 -14057238.37146  21509835.3984                   21509836.1174
 -15104729.49648 -11254645.86745  21675299.7344                   21675298.7154
 11  8 25  1 54  0.0000000  0  9G26G10G29G12G05G02G15G25G30
  -2071126.32046  -1573681.13344  23543949.7894                   23543950.6454
 -18097854.56247 -13960774.28544  23459057.6564                   23459057.0394
  -8077983.11347  -6128383.53945  22587449.6334                   22587449.1214
 -25352400.85247 -19716905.95346  21305465.6564                   21305463.9884
 -29199466.75448 -22723722.09847  20248273.0394                   20248270.9384
 -31235714.50048 -24310107.12946  21492590.1414                   21492586.1884
   5869539.58246   4599643.54743  24455671.3134                   24455676.0864
 -18171738.41448 -14084396.89146  21503203.0634                   21503203.8444
 -15131176.69148 -11275254.08245  21670266.7504                   21670265.6684
 11  8 25  1 54 30.0000000  0  9G26G10G29G12G05G02G15G25G30
  -2197742.41046  -1672342.88744  23519854.6644                   23519856.6254
 -18025854.05947 -13904670.00443  23472759.5634                   23472758.1914
  -8192855.88347  -6217894.76245  22565590.4534                   22565589.3284
 -25325126.40248 -19695653.16846  21310656.0084                   21310654.1564
 -29206131.79748 -22728915.62147  20247004.2344                   20247002.5164
 -31231266.86348 -24306641.42246  21493436.6804                   21493432.7854
   5744036.24246   4501849.19543  24431788.6094                   24431793.6254
 -18206001.60548 -14111095.46146  21496683.0164                   21496683.3284
 -15157022.08648 -11295393.35245  21665348.4144                   21665347.4574
 11  8 25  1 55  0.0000000  0  9G26G10G29G12G05G02G15G25G30
  -2324302.28546  -1770960.84444  23495771.5554                   23495772.6684
 -17953705.07047 -13848450.02343  23486488.9534                   23486487.8554
  -8307670.44947  -6307360.63345  22543742.0234                   22543740.5514
 -25297421.06247 -19674064.62946  21315928.1024                   21315926.3674
 -29212288.80148 -22733713.27747  20245832.7504                   20245830.6644
 -31226744.62148 -24303117.59446  21494296.6334                   21494292.7544
   5618398.08246   4403949.72744  24407880.7194                   24407885.1294
 -18239697.52348 -14137352.02046  21490270.7194                   21490271.6994
 -15182289.28548 -11315082.08645  21660540.3134                   21660539.4144
 11  8 25  1 55 30.0000000  0  9G26G10G29G12G05G02G15G25G30
  -2450788.80546  -1869521.64143  23471701.6094                   23471702.9224
 -17881396.50847 -13792105.73443  23500248.8364                   23500247.5664
  -8422411.28947  -6396769.05545  22521906.9774                   22521906.3714
 -25269273.87548 -19652131.78946  21321284.3834                   21321282.7424
 -29217925.88348 -22738105.80147  20244760.3134                   20244758.2624
 -31222133.80148 -24299524.73046  21495174.3364                   21495169.9304
   5492641.20346   4305957.75844  24383949.8984                   24383953.6994
 -18272812.71948 -14163156.06246  21483969.4384                   21483970.0044
 -15206965.27347 -11334310.12545  21655844.6564                   21655843.3444
 11  8 25  1 56  0.0000000  0  9G26G10G29G12G05G02G15G25G30
  -2577202.02047  -1968025.32444  23447646.2974                   23447647.4304
 -17808934.56647 -13735641.90243  23514037.2894                   23514036.5434
  -8537080.29347  -6486121.48445  22500086.5314                   22500085.7344
 -25240690.95348 -19629859.41046  21326723.4384                   21326721.9884
 -29223048.12148 -22742097.13747  20243785.3834                   20243783.1564
 -31217438.48448 -24295866.03146  21496067.6724                   21496063.9414
   5366764.35947   4207872.29344  24359996.0164                   24359999.9774
 -18305351.37948 -14188510.85546  21477777.4924                   21477778.3134
 -15231054.80948 -11353081.19145  21651260.6024                   21651259.4654
 11  8 25  1 56 30.0000000  0  9G26G10G29G12G05G02G15G25G30
  -1128108.97347   -838861.76244  23723399.4144                   23723400.3484
 -16160899.06247 -12451458.37943  23827648.4144                   23827646.9694
  -7076246.77347  -5347809.62145  22778074.1414                   22778072.8714
 -23636250.23047 -18379645.89146  21632038.6024                   21632037.1764
 -27652231.63348 -21518084.28947  20542702.0394                   20542699.6214
 -29637233.59848 -23064537.53946  21796771.0394                   21796767.0004
   6816199.94547   5337303.00444  24635813.5784                   24635817.7664
 -16761887.52748 -12985811.75446  21771488.5394                   21771489.5904
 -13679132.76647 -10143791.27745  21946581.5944                   21946580.7274
 11  8 25  1 57  0.0000000  0  9G26G10G29G12G05G02G15G25G30
  -1254350.37547   -937231.54744  23699376.3754                   23699377.2034
 -16088123.55147 -12394750.21143  23841497.3134                   23841496.5554
  -7190751.91447  -5437034.35545  22756284.2664                   22756283.1214
 -23606788.14148 -18356688.44146  21637644.9454                   21637643.2544
 -27656314.16848 -21521265.47347  20541924.9064                   20541922.9884
 -29632354.60248 -23060735.72346  21797699.1094                   21797695.3874
   6690106.23046   5239048.53144  24611818.4144                   24611822.7544
 -16793259.42248 -13010257.38746  21765518.7734                   21765519.5664
 -13702037.31247 -10161638.97345  21942223.1644                   21942221.5274
 11  8 25  1 57 30.0000000  0  9G26G10G29G12G05G02G15G25G30
  -1380509.03147  -1035536.87144  23675369.5314                   23675369.9844
 -16015203.69947 -12337929.55943  23855373.4224                   23855372.3834
  -7305180.39547  -5526199.35945  22734509.5234                   22734508.1414
 -23576898.80947 -18333398.07446  21643333.0474                   21643331.2194
 -27659887.98048 -21524050.25447  20541245.1334                   20541242.7034
 -29627392.77748 -23056869.36746  21798643.5084                   21798639.2384
   6563899.26247   5140705.78544  24587802.1804                   24587805.7114
 -16824057.03148 -13034255.52746  21759658.3284                   21759659.1914
 -13724359.27348 -10179032.69945  21937975.4614                   21937973.7624
 11  8 25  1 58  0.0000000  0  9G26G10G29G12G05G02G15G25G30
  -1506579.52347  -1133773.49644  23651378.5234                   23651379.3754
 -15942140.19546 -12280997.00043  23869276.5474                   23869275.8284
  -7419528.96547  -5615302.09045  22712749.1954                   22712747.9884
 -23546582.69948 -18309775.15246  21649101.9614                   21649099.7974
 -27662952.72348 -21526438.35946  20540661.9144                   20540659.9304
 -29622345.90248 -23052936.73046  21799603.6644                   21799599.8244
   6437583.31346   5042278.12943  24563764.6254                   24563768.3794
 -16854279.03548 -13057805.13746  21753907.0554                   21753908.3054
 -13746097.82848 -10195971.82845  21933838.4924                   21933837.4924
 11  8 25  1 58 30.0000000  0  9G26G10G29G12G05G02G15G25G30
  -1632557.57447  -1231938.06244  23627405.5234                   23627406.8244
 -15868934.92247 -12223953.91043  23883207.8674                   23883206.9694
  -7533794.69547  -5704340.27045  22691005.2734                   22691004.0234
 -23515841.39848 -18285820.91446  21654951.7114                   21654949.8674
 -27665509.21948 -21528430.43047  20540175.1564                   20540173.0514
 -29617213.33648 -23048937.32846  21800580.4304                   21800576.4774
   6311162.38346   4943768.62944  24539707.0704                   24539711.3834
 -16883925.11348 -13080905.98446  21748265.6254                   21748266.5274
 -13767253.22347 -10212456.54345  21929812.7194                   21929811.4264
 11  8 25  1 59  0.0000000  0  9G26G10G29G12G05G02G15G25G30
  -1758434.24647  -1330023.64844  23603452.3594                   23603452.9454
 -15795585.11347 -12166798.23844  23897165.3674                   23897164.8914
  -7647970.35947  -5793308.25845  22669278.0554                   22669277.1684
 -23484672.22348 -18261533.26246  21660882.9064                   21660881.4414
 -27667553.89848 -21530023.68046  20539786.2194                   20539783.8284
 -29611989.73448 -23044866.98845  21801574.2584                   21801570.2624
   6184643.90246   4845183.12943  24515631.0474                   24515634.6724
 -16912990.35948 -13103554.23846  21742734.9064                   21742735.5004
 -13787821.10248 -10228483.44945  21925898.7114                   21925897.4454
 11  8 25  1 59 30.0000000  0  9G26G10G29G12G05G02G15G25G30
  -1884212.40647  -1428032.46944  23579517.2344                   23579517.4574
 -15722099.89546 -12109537.07843  23911149.8594                   23911148.4774
  -7762060.29347  -5882209.44545  22647567.2734                   22647566.9654
 -23453084.00048 -18236919.07446  21666894.4924                   21666892.6214
 -27669094.91848 -21531224.46547  20539493.0004                   20539490.5634
 -29606681.70347 -23040730.87545  21802584.4924                   21802580.7344
   6058024.12946   4746518.68043  24491536.0474                   24491539.3524
 -16941481.80548 -13125755.37546  21737312.8984                   21737314.0124
 -13807809.00848 -10244058.43045  21922094.9304                   21922094.1214
 11  8 25  2  0  0.0000000  0  9G26G10G29G12G05G02G15G25G30
  -2009888.65247  -1525961.88344  23555601.9614                   23555602.0944
 -15648481.98447 -12052172.48043  23925158.1804                   23925157.6914
  -7876062.72747  -5971042.44545  22625873.8914                   22625872.5204
 -23421079.52048 -18211980.53546  21672984.6414                   21672982.1994
 -27670133.88748 -21532034.04747  20539295.2974                   20539292.9964
 -29601289.25447 -23036528.97745  21803610.4144                   21803606.8244
   5931305.63746   4647777.32043  24467422.2344                   24467424.8984
 -16969400.23448 -13147510.01246  21732000.4454                   21732001.1644
 -13827218.21148 -10259182.47745  21918401.6564                   21918400.4344
 11  8 25  2  0 30.0000000  0  9G26G10G29G12G05G02G15G25G30
  -2135463.42647  -1623812.20744  23531704.7734                   23531706.0704
 -15574738.14547 -11994709.75043  23939191.6024                   23939190.8834
  -7989979.85247  -6059808.96945  22604196.2114                   22604195.1254
 -23388665.27347 -18186722.68746  21679152.8054                   21679150.7304
 -27670676.91848 -21532457.19147  20539191.9534                   20539189.6214
 -29595816.86747 -23032264.78545  21804651.7194                   21804648.1764
   5804486.73846   4548957.74643  24443288.0634                   24443292.2624
 -16996750.23048 -13168821.71946  21726795.8984                   21726796.7304
 -13846054.00848 -10273859.72345  21914817.5394                   21914816.2894
 11  8 25  2  1  0.0000000  0  9G26G10G29G12G05G02G15G25G30
  -2260917.21947  -1721568.27744  23507832.0314                   23507832.3714
 -15500854.90647 -11937138.42244  23953251.1024                   23953250.3444
  -8103793.42247  -6148494.80145  22582537.6024                   22582536.8324
 -23355827.96547 -18161135.19146  21685401.2344                   21685399.4534
 -27670709.73848 -21532482.76247  20539185.6724                   20539183.3634
 -29590248.21547 -23027925.59045  21805711.8284                   21805708.0164
   5677586.35546   4450074.62143  24419140.2664                   24419143.4654
 -17023516.46148 -13189678.53946  21721702.6334                   21721703.1454
 -13864301.44148 -10288078.49245  21911345.1564                   21911343.9064
 11  8 25  2  1 30.0000000  0  9G26G10G29G12G05G02G15G25G30
  -2386252.94147  -1819232.34044  23483981.1954                   23483982.2974
 -15426841.02747 -11879465.29344  23967335.2664                   23967334.8094
  -8217508.25847  -6237103.70745  22560898.3054                   22560897.6484
 -23322576.46547 -18135224.94546  21691728.7114                   21691727.0824
 -27670240.33648 -21532116.98447  20539274.7894                   20539272.9184
 -29584589.78947 -23023516.43445  21806788.5784                   21806784.6454
   5550600.78146   4351125.12143  24394975.5634                   24394978.5204
 -17049705.92648 -13210085.93746  21716718.8284                   21716719.5594
 -13881968.11348 -10301844.73045  21907983.3754                   21907982.0554
 11  8 25  2  2  0.0000000  0  9G26G10G29G12G05G02G15G25G30
  -2511476.68046  -1916809.15244  23460151.6024                   23460152.4494
 -15352709.21147 -11821700.27044  23981441.9614                   23981441.4574
  -8331131.96147  -6325641.59045  22539276.4614                   22539275.4384
 -23288923.46547 -18109001.84046  21698132.6724                   21698130.9024
 -27669280.33648 -21531368.91847  20539457.8674                   20539455.6054
 -29578851.59847 -23019045.12945  21807880.3754                   21807876.4734
   5423522.60946   4252103.46143  24370792.7424                   24370795.7704
 -17075329.15248 -13230052.11746  21711842.8284                   21711843.6484
 -13899065.02048 -10315167.00445  21904730.1094                   21904728.6374
 11  8 25  2  2 30.0000000  0  9G26G10G29G12G05G02G15G25G30
  -2636581.28947  -2014293.12144  23436345.2274                   23436345.8364
 -15278458.28147 -11763842.39543  23995571.3914                   23995570.7154
  -8444658.73047  -6414103.94545  22517672.7894                   22517672.0784
 -23254867.51647 -18082464.75046  21704613.4304                   21704611.5704
 -27667828.06248 -21530237.26646  20539734.0784                   20539731.7464
 -29573029.83647 -23014508.70745  21808987.5234                   21808984.3524
   5296358.46547   4153014.85243  24346594.7424                   24346597.5514
 -17100383.21148 -13249574.78146  21707075.0704                   21707075.8444
 -13915589.87948 -10328043.53145  21901585.7194                   21901584.1414
 11  8 25  2  3  0.0000000  0  9G26G10G29G12G05G02G15G25G30
  -2761564.07047  -2111682.18044  23412561.7344                   23412561.8754
 -15204092.05947 -11705894.73044  24009723.1954                   24009722.4694
  -8558088.01247  -6502490.34445  22496088.0474                   22496086.8134
 -23220412.86347 -18055616.98046  21711169.9144                   21711168.0864
 -27665886.77748 -21528724.56647  20540103.5944                   20540101.3244
 -29567125.88348 -23009908.23045  21810111.7114                   21810108.2384
   5169109.43847   4053860.05543  24322379.6414                   24322382.1994
 -17124870.14148 -13268655.53946  21702415.1954                   21702416.1214
 -13931545.14848 -10340476.21945  21898549.0944                   21898548.0084
 11  8 25  2  3 30.0000000  0  9G26G10G29G12G05G02G15G25G30
  -2886410.62547  -2208965.07844  23388804.6174                   23388804.9064
 -15129601.78947 -11647850.40243  24023898.8364                   24023897.9064
  -8671406.68447  -6590790.55945  22474524.4384                   22474523.2584
 -23185550.82047 -18028451.76646  21717804.2274                   21717802.2034
 -27663446.64148 -21526823.14847  20540567.7734                   20540565.6054
 -29561128.69148 -23005235.10545  21811253.2424                   21811249.0664
   5041789.51247   3954650.04343  24298151.5164                   24298153.8794
 -17148779.43048 -13287286.17646  21697865.7664                   21697866.5784
 -13946920.95748 -10352457.38745  21895623.2664                   21895622.3714
 11  8 25  2  4  0.0000000  0  9G26G10G29G12G05G02G15G25G30
  -3011129.05547  -2306148.16044  23365070.7974                   23365071.7464
 -15055001.83646 -11589720.58643  24038094.1954                   24038093.5474
  -8784624.55947  -6679012.21945  22452979.6174                   22452978.6884
 -23150295.66847 -18000980.23046  21724512.9454                   21724511.1884
 -27660521.62548 -21524543.90647  20541124.5944                   20541122.1054
 -29555049.78947 -23000498.30145  21812409.7734                   21812405.9574
   4914389.48047   3855377.57844  24273907.8284                   24273909.9774
 -17172123.68448 -13305476.53146  21693423.5704                   21693424.5004
 -13961730.37548 -10363997.21545  21892805.0554                   21892804.2624
 11  8 25  2  4 30.0000000  0  9G26G10G29G12G05G02G15G25G30
  -3135708.82047  -2403223.20744  23341364.2664                   23341364.4694
 -14980287.72346 -11531501.85243  24052310.9614                   24052310.7934
  -8897732.65247  -6767148.35245  22431455.7114                   22431454.9654
 -23114643.25047 -17973199.13746  21731297.3914                   21731295.4694
 -27657106.53548 -21521882.77747  20541774.4774                   20541772.1524
 -29548882.46548 -22995692.60545  21813583.1254                   21813579.5784
   4786919.08247   3756050.28544  24249650.1564                   24249653.1484
 -17194896.88748 -13323221.91446  21689089.7424                   21689091.1374
 -13975967.98448 -10375091.49645  21890095.4534                   21890094.4574
 11  8 25  2  5  0.0000000  0  9G26G10G29G12G05G02G15G25G30
  -3260151.01247  -2500191.05144  23317683.5784                   23317683.5704
 -14905466.68746 -11473199.70743  24066549.0004                   24066548.7424
  -9010733.42247  -6855200.85245  22409952.4844                   22409951.4534
 -23078600.78948 -17945114.11746  21738155.7814                   21738154.1564
 -27653207.97348 -21518844.92247  20542516.1564                   20542513.6254
 -29542631.21947 -22990821.51645  21814773.1174                   21814769.5204
   4659376.34047   3656666.66444  24225379.4064                   24225382.3714
 -17217104.51248 -13340526.58646  21684863.7814                   21684864.8554
 -13989639.72348 -10385744.83245  21887494.2274                   21887493.0164
 11  8 25  2  5 30.0000000  0  9G26G10G29G12G05G02G15G25G30
  -3384451.55147  -2597048.50444  23294029.9064                   23294029.9264
 -14830541.09046 -11414816.18043  24080807.3594                   24080807.0594
  -9123624.34847  -6943167.76245  22388469.8834                   22388469.0234
 -23042170.93447 -17916727.23846  21745088.3594                   21745086.8714
 -27648827.59448 -21515431.62147  20543349.8754                   20543347.7344
 -29536295.64147 -22985884.70345  21815978.4924                   21815974.6844
   4531763.99647   3557228.77044  24201095.4224                   24201098.2584
 -17238747.01248 -13357390.89546  21680745.5784                   21680746.4774
 -14002746.58248 -10395958.00445  21885000.0004                   21884998.7274
 11  8 25  2  6  0.0000000  0  9G26G10G29G12G05G02G15G25G30
  -3508603.83247  -2693790.44944  23270404.2734                   23270404.4104
 -14755510.39846 -11356350.73443  24095084.9304                   24095084.6844
  -9236400.70347  -7031045.39845  22367009.7344                   22367008.3444
 -23005353.15647 -17888038.07846  21752094.4304                   21752093.2304
 -27643964.04748 -21511641.83247  20544275.0234                   20544272.8754
 -29529872.90647 -22980879.96946  21817201.1334                   21817197.0704
   4404088.29747   3457741.50044  24176799.6954                   24176802.0664
 -17259822.27748 -13373813.20746  21676735.3134                   21676735.9304
 -14015287.03948 -10405729.83245  21882613.8444                   21882612.5704
 11  8 25  2  6 30.0000000  0  9G26G10G29G12G05G02G15G25G30
  -3632609.25047  -2790417.93044  23246806.9384                   23246807.3954
 -14680382.06646 -11297809.21543  24109381.7814                   24109381.0984
  -9349065.31247  -7118835.96145  22345569.8284                   22345569.0044
 -22968155.08647 -17859052.59846  21759173.1414                   21759171.3204
 -27638624.29348 -21507480.96946  20545291.0394                   20545289.1414
 -29523367.77047 -22975811.02346  21818438.4454                   21818434.7274
   4276346.62147   3358202.82444  24152491.1024                   24152493.3794
 -17280336.18448 -13389798.09846  21672831.4534                   21672832.2304
 -14027267.51248 -10415065.30945  21880334.0634                   21880332.9694
 11  8 25  2  7  0.0000000  0  9G26G10G29G12G05G02G15G25G30
  -3756459.79347  -2886924.74244  23223239.0634                   23223239.2274
 -14605154.51246 -11239190.31643  24123697.3134                   24123696.8794
  -9461611.94947  -7206534.60545  22324153.3754                   22324151.8984
 -22930575.21947 -17829769.60946  21766324.4694                   21766322.5744
 -27632806.51648 -21502947.61746  20546398.1094                   20546396.1914
 -29516775.94948 -22970674.53546  21819693.0474                   21819689.6214
   4148545.83646   3258618.09444  24128170.9614                   24128173.3594
 -17300285.57448 -13405343.08646  21669035.1804                   21669036.2344
 -14038685.32448 -10423962.35245  21878160.9844                   21878160.0594
 11  8 25  2  7 30.0000000  0  9G26G10G29G12G05G02G15G25G30
  -3880145.85247  -2983303.37944  23199701.9614                   23199702.0704
 -14529823.73446 -11180491.01243  24138032.2344                   24138031.6684
  -9574032.23847  -7294134.79345  22302760.2734                   22302759.2774
 -22892609.82847 -17800186.21146  21773548.8674                   21773547.3164
 -27626505.90648 -21498038.04347  20547597.0394                   20547594.8874
 -29510091.10547 -22965465.55946  21820965.3444                   21820961.5514
   4020695.20746   3158994.49643  24103841.3204                   24103844.0664
 -17319665.11748 -13420444.04746  21665347.5474                   21665348.3134
 -14049535.67248 -10432417.21945  21876096.3754                   21876095.1914
 11  8 25  2  8  0.0000000  0  9G26G10G29G12G05G02G15G25G30
  -4003675.04747  -3079559.81244  23176195.2344                   23176195.4534
 -14454403.76646 -11121722.21943  24152383.7114                   24152383.1174
  -9686335.61347  -7381643.87945  22281389.7344                   22281388.0824
 -22854273.64847 -17770313.87946  21780843.8984                   21780842.0824
 -27619736.01248 -21492762.78946  20548885.5704                   20548883.0084
 -29503324.69148 -22960193.02345  21822252.6414                   21822249.2194
   3892785.97346   3059325.24643  24079501.2504                   24079502.9614
 -17338487.20748 -13435110.62146  21661765.8524                   21661766.4734
 -14059831.50848 -10440439.99245  21874137.4614                   21874136.4144
 11  8 25  2  8 30.0000000  0  9G26G10G29G12G05G02G15G25G30
  -4127044.82047  -3175691.99244  23152718.6414                   23152719.0984
 -14378898.03947 -11062886.59443  24166752.7344                   24166751.6994
  -9798520.94947  -7469060.98845  22260041.2344                   22260040.1094
 -22815570.31247 -17740155.46146  21788209.1334                   21788207.5904
 -27612499.86748 -21487124.22347  20550262.2814                   20550260.2424
 -29496478.10548 -22954858.01245  21823555.5864                   21823551.7384
   3764819.64146   2959611.46543  24055149.0164                   24055151.7854
 -17356754.04348 -13449344.52746  21658289.9614                   21658290.4144
 -14069575.54348 -10448032.79345  21872283.2344                   21872282.3634
 11  8 25  2  9  0.0000000  0  9G26G10G29G12G05G02G15G25G30
  -4250246.88347  -3271693.49644  23129274.3834                   23129274.6844
 -14303304.46147 -11003982.50043  24181136.7734                   24181136.7034
  -9910581.48447  -7556380.85545  22238717.0704                   22238716.0514
 -22776497.74247 -17709709.33646  21795644.5314                   21795642.9614
 -27604794.68748 -21481120.16846  20551728.9224                   20551726.2854
 -29489546.24247 -22949456.55945  21824875.0784                   21824871.3014
   3636803.81346   2859859.14843  24030789.1254                   24030790.7274
 -17374461.97348 -13463142.91046  21654920.0084                   21654920.8244
 -14078764.65248 -10455193.18745  21870534.5554                   21870533.5984
 11  8 25  2  9 30.0000000  0  9G26G10G29G12G05G02G15G25G30
  -4373276.55547  -3367560.65244  23105862.2974                   23105862.7344
 -14227624.17247 -10945010.85243  24195538.6094                   24195538.1884
 -10022513.98047  -7643600.94145  22217416.4774                   22217415.3874
 -22737057.82047 -17678976.94946  21803149.4454                   21803147.8914
 -27596621.79748 -21474751.66447  20553283.9454                   20553281.4614
 -29482527.87547 -22943987.69546  21826210.4614                   21826206.8954
   3508742.30547   2760071.18443  24006419.8594                   24006420.9454
 -17391610.96948 -13476505.77346  21651656.5554                   21651657.5744
 -14087399.33648 -10461921.54345  21868891.5634                   21868890.1804
 11  8 25  2 10  0.0000000  0  9G26G10G29G12G05G02G15G25G30
  -4496126.00047  -3463287.37544  23082484.5234                   23082485.0514
 -14151855.93446 -10885970.67643  24209957.0234                   24209956.6134
 -10134312.71548  -7730716.80145  22196142.5314                   22196140.6644
 -22697249.42247 -17647957.45346  21810724.7344                   21810723.0354
 -27587979.03148 -21468017.03546  20554928.6644                   20554926.2894
 -29475419.24247 -22938448.48445  21827563.1954                   21827559.3984
   3380641.89147   2660252.91044  23982042.8984                   23982044.3634
 -17408198.23848 -13489430.92246  21648500.5864                   21648501.3954
 -14095477.28148 -10468216.07845  21867354.1644                   21867353.2384
 11  8 25  2 10 30.0000000  0  9G26G10G29G12G05G02G15G25G30
  -4618798.34847  -3558876.10544  23059140.3834                   23059140.6764
 -14076008.60946 -10826868.86343  24224391.0784                   24224389.8984
 -10245981.67647  -7817731.53945  22174892.6884                   22174890.6804
 -22657081.34847 -17616657.68046  21818368.9694                   21818367.1174
 -27578874.89148 -21460922.89546  20556661.0474                   20556658.8834
 -29468226.82847 -22932844.00445  21828931.7814                   21828928.2464
   3252498.73447   2560401.33643  23957657.7424                   23957658.8594
 -17424231.39548 -13501924.28946  21645449.1884                   21645450.1994
 -14103006.73448 -10474083.21945  21865921.4694                   21865919.9614
 11  8 25  2 11  0.0000000  0  9G26G10G29G12G05G02G15G25G30
  -4741292.15247  -3654325.70744  23035830.3364                   23035830.9964
 -14000087.32047 -10767709.42243  24238838.2274                   24238837.5944
 -10357521.47347  -7904645.62545  22153666.6564                   22153665.5824
 -22616559.27347 -17585082.05946  21826079.7734                   21826077.7854
 -27569314.27748 -21453473.05946  20558480.3594                   20558478.2664
 -29460952.80547 -22927175.93045  21830316.0784                   21830312.1564
   3124313.24647   2460516.77044  23933264.5554                   23933266.1764
 -17439714.02748 -13513988.68746  21642503.0394                   21642504.0084
 -14109991.62548 -10479526.01245  21864592.2114                   21864591.1764
 11  8 25  2 11 30.0000000  0  9G26G10G29G12G05G02G15G25G30
  -4863603.22747  -3749632.90644  23012555.8834                   23012555.9384
 -13924093.60546 -10708493.54743  24253298.3134                   24253298.6254
 -10468929.43447  -7991456.99245  22132466.4144                   22132465.2734
 -22575685.53148 -17553232.41846  21833858.1254                   21833855.9884
 -27559298.16848 -21445668.28946  20560386.5234                   20560384.2894
 -29453596.34848 -22921443.61745  21831715.8524                   21831712.2194
   2996088.79347   2360601.86344  23908864.4064                   23908865.5314
 -17454646.71548 -13525624.55146  21639661.6484                   21639662.0004
 -14116433.19948 -10484545.44145  21863366.7424                   21863365.4774
 11  8 25  2 12  0.0000000  0  9G26G10G29G12G05G02G15G25G30
  -4985715.37147  -3844785.10544  22989318.0474                   22989318.5824
 -13848017.35246 -10649213.37943  24267775.3364                   24267774.9104
 -10580190.46547  -8078153.85545  22111294.2734                   22111292.9224
 -22534449.95347 -17521100.82446  21841704.3834                   21841703.0864
 -27548816.28548 -21437500.57846  20562381.0314                   20562378.9344
 -29446144.71147 -22915637.14545  21833133.5084                   21833129.8554
   2867840.72747   2260668.55944  23884458.8594                   23884461.1454
 -17469017.97348 -13536822.93046  21636926.5314                   21636927.5824
 -14122320.43448 -10489132.91045  21862246.4224                   21862245.3204
 11  8 25  2 12 30.0000000  0  9G26G10G29G12G05G02G15G25G30
  -5107628.31247  -3939782.10244  22966119.0704                   22966119.1524
 -13771864.46946 -10589873.48443  24282267.3834                   24282266.9184
 -10691306.02047  -8164737.36745  22090149.8444                   22090148.2774
 -22492858.87147 -17488692.22346  21849619.0164                   21849618.0864
 -27537874.03548 -21428974.14546  20564463.1484                   20564461.0904
 -29438601.49247 -22909759.31645  21834569.0474                   21834565.4064
   2739568.29747   2160716.25844  23860049.1484                   23860051.1454
 -17482832.52048 -13547587.50846  21634297.7584                   21634298.4694
 -14127658.60947 -10493292.53545  21861230.2894                   21861229.8674
 11  8 25  2 13  0.0000000  0  9G26G10G29G12G05G02G15G25G30
  -5229343.84847  -4034625.22344  22942957.2194                   22942957.1374
 -13695642.43746 -10530479.73043  24296771.0864                   24296771.3284
 -10802279.26647  -8251209.98045  22069032.3524                   22069030.6134
 -22450920.60547 -17456013.07845  21857599.7034                   21857598.0314
 -27526479.00848 -21420094.88746  20566631.7274                   20566629.3134
 -29430972.02047 -22903814.26645  21836021.1414                   21836017.0704
   2611269.18446   2060743.18444  23835634.9844                   23835636.1484
 -17496096.99248 -13557923.45346  21631773.3204                   21631774.0354
 -14132454.89847 -10497029.91045  21860317.4534                   21860316.7854
 11  8 25  2 13 30.0000000  0  9G26G10G29G12G05G02G15G25G30
  -5350856.81647  -4129310.55944  22919834.1564                   22919834.0664
 -13619352.83646 -10471033.30943  24311289.2114                   24311289.1604
 -10913107.13347  -8337569.32045  22047942.3834                   22047941.1094
 -22408636.94148 -17423064.81246  21865646.0704                   21865644.2814
 -27514632.03948 -21410863.47746  20568886.1884                   20568884.1954
 -29423254.91848 -22897800.95345  21837489.8284                   21837485.5164
   2482947.33247   1960752.35944  23811215.6564                   23811217.0124
 -17508811.60548 -13567830.96946  21629354.0554                   21629354.8204
 -14136709.86748 -10500345.47745  21859508.1334                   21859507.5044
 11  8 25  2 14  0.0000000  0  9G26G10G29G12G05G02G15G25G30
  -5472166.38347  -4223837.38344  22896749.6724                   22896748.9264
 -13543000.30145 -10411537.85943  24325818.1724                   24325818.3524
 -11023789.86747  -8423815.56645  22026879.9694                   22026878.2274
 -22366013.23048 -17389851.55545  21873757.5164                   21873755.4414
 -27502337.81648 -21401283.56246  20571225.4694                   20571223.2974
 -29415452.52748 -22891721.16845  21838974.5394                   21838970.5744
   2354603.12147   1860744.10544  23786792.1484                   23786793.9384
 -17520980.14148 -13577312.95746  21627038.6174                   21627039.2384
 -14140427.97747 -10503242.71145  21858800.4384                   21858799.5394
 11  8 25  2 14 30.0000000  0  9G26G10G29G12G05G02G15G25G30
  -5593275.02347  -4318207.63744  22873703.4844                   22873703.1764
 -13466593.57045 -10352000.17643  24340357.8134                   24340357.6094
 -11134331.39547  -8509951.77345  22005844.6884                   22005843.2304
 -22323058.39148 -17356380.27746  21881931.4384                   21881929.5984
 -27489604.46548 -21391361.46546  20573648.6884                   20573646.2624
 -29407571.05948 -22885579.76645  21840473.9304                   21840469.9414
   2226233.10946   1760715.74644  23762364.5864                   23762365.9574
 -17532610.05548 -13586375.23846  21624825.7664                   21624826.2584
 -14143617.20348 -10505727.83245  21858193.5004                   21858192.6994
 11  8 25  2 15  0.0000000  0  9G26G10G29G12G05G02G15G25G30
  -5714173.57047  -4412414.19144  22850697.2194                   22850696.6334
 -13390129.69145 -10292417.99243  24354908.7344                   24354908.5394
 -11244724.10547  -8595972.02745  21984837.6094                   21984836.3134
 -22279769.44548 -17322648.65645  21890169.0784                   21890167.4694
 -27476428.98848 -21381094.84847  20576155.9614                   20576153.7504
 -29399604.68448 -22879372.19945  21841990.0004                   21841986.2194
   2097845.44946   1660673.63744  23737932.6884                   23737934.1684
 -17543697.31248 -13595014.66846  21622715.6024                   21622716.6564
 -14146273.99248 -10507798.05945  21857687.9064                   21857687.2774
 11  8 25  2 15 30.0000000  0  9G26G10G29G12G05G02G15G25G30
  -5834862.25047  -4506457.20344  22827730.2584                   22827730.1804
 -13313614.75446 -10232795.98843  24369468.7344                   24369468.4264
 -11354969.96547  -8681877.85945  21963858.5554                   21963856.8594
 -22236154.03148 -17288662.65246  21898468.8284                   21898467.3674
 -27462817.62148 -21370488.57846  20578746.0234                   20578743.6604
 -29391557.18047 -22873101.42245  21843521.3364                   21843517.2774
   1969439.13747   1560616.98444  23713497.8914                   23713499.0554
 -17554247.23848 -13603235.40246  21620707.9844                   21620708.9534
 -14148404.16447 -10509457.93745  21857282.3914                   21857281.7664
 11  8 25  2 16  0.0000000  0  9G26G10G29G12G05G02G15G25G30
  -5955332.20747  -4600329.79344  22804805.8204                   22804805.6524
 -13237045.78946 -10173131.90643  24384039.7974                   24384039.4264
 -11465061.14848  -8767663.16846  21942909.2034                   21942907.4104
 -22192209.73048 -17254420.37546  21906830.9614                   21906829.7194
 -27448767.01648 -21359540.05146  20581419.7424                   20581417.3794
 -29383423.29348 -22866763.33645  21845069.3914                   21845065.2424
   1841022.28947   1460552.11744  23689060.5314                   23689061.9144
 -17564255.92648 -13611034.40646  21618803.5554                   21618804.1604
 -14150004.29347 -10510704.81245  21856978.2504                   21856977.4774
 11  8 25  2 16 30.0000000  0  9G26G10G29G12G05G02G15G25G30
  -6075584.87547  -4694033.07444  22781922.2814                   22781922.0784
 -13160430.36746 -10113431.55543  24398619.4454                   24398618.6994
 -11575000.92248  -8853330.49645  21921988.1644                   21921986.5234
 -22147944.37548 -17219927.92246  21915254.5634                   21915253.3484
 -27434284.50848 -21348254.97346  20584175.7584                   20584173.4534
 -29375208.16448 -22860361.93745  21846632.3754                   21846628.6484
   1712592.68847   1360477.30544  23664620.5474                   23664622.1334
 -17573730.02348 -13618416.84446  21617000.4144                   21617001.0784
 -14151081.64147 -10511544.31245  21856773.0864                   21856772.5634
 11  8 25  2 17  0.0000000  0  9G26G10G29G12G05G02G15G25G30
  -6195608.59447  -4787557.94944  22759082.6174                   22759082.5824
 -13083763.19546 -10053690.90642  24413209.0704                   24413208.2774
 -11684779.21948  -8938872.01246  21901097.9924                   21901096.3554
 -22103352.80948 -17185181.27746  21923740.1564                   21923738.4534
 -27419364.59048 -21336629.06246  20587015.0394                   20587012.8674
 -29366903.68747 -22853890.92645  21848212.7584                   21848209.5234
   1584160.96147   1260400.82044  23640181.3984                   23640182.2974
 -17582663.05948 -13625377.67646  21615300.3594                   21615301.6134
 -14151630.22348 -10511971.79745  21856668.8914                   21856668.0124
 11  8 25  2 17 30.0000000  0  9G26G10G29G12G05G02G15G25G30
  -6315398.54347  -4880900.67644  22736287.3054                   22736286.9964
 -13007045.23446  -9993910.63342  24427807.5394                   24427806.3914
 -11794392.36748  -9024284.84446  21880239.2034                   21880237.2934
 -22058436.79348 -17150181.81646  21932287.3834                   21932285.8794
 -27404008.28548 -21324663.10546  20589936.8524                   20589934.8954
 -29358508.48047 -22847349.21145  21849810.3594                   21849806.6374
   1455731.10547   1160325.78944  23615742.1954                   23615742.5234
 -17591055.43048 -13631917.20346  21613703.7584                   21613704.8954
 -14151650.75047 -10511987.82045  21856664.7114                   21856663.9224
 11  8 25  2 18  0.0000000  0  9G26G10G29G12G05G02G15G25G30
  -6434952.84047  -4974059.75444  22713536.8674                   22713536.2624
 -12930280.38746  -9934093.84042  24442415.3444                   24442414.4064
 -11903840.02048  -9109568.71146  21859411.9224                   21859410.4264
 -22013201.06248 -17114933.22746  21940895.1884                   21940893.7274
 -27388219.26248 -21312359.97346  20592941.4304                   20592939.5634
 -29350024.11347 -22840738.02045  21851425.1174                   21851420.9144
   1327304.72347   1060253.46544  23591302.4384                   23591303.8204
 -17598910.14148 -13638037.78146  21612209.1024                   21612209.7664
 -14151146.99647 -10511595.29745  21856760.4064                   21856760.1454
 11  8 25  2 18 30.0000000  0  9G26G10G29G12G05G02G15G25G30
  -6554269.78147  -5067033.91844  22690831.4144                   22690831.0204
 -12853473.34446  -9874244.20742  24457031.4694                   24457030.7624
 -12013122.32048  -9194723.73446  21838616.5704                   21838614.5554
 -21967650.58248 -17079439.37546  21949563.2814                   21949561.7424
 -27372001.99248 -21299723.12946  20596027.5634                   20596025.4104
 -29341452.54347 -22834058.87145  21853056.0554                   21853052.5664
   1198882.19947    960184.14544  23566864.7504                   23566865.2544
 -17606230.99648 -13643742.35946  21610815.6414                   21610816.8134
 -14150123.13347 -10510797.51645  21856955.3674                   21856954.4774
 11  8 25  2 19  0.0000000  0  8G26G29G12G05G02G15G25G30
  -6673346.65647  -5159820.99244  22668171.5864                   22668171.3984
 -12122237.67648  -9279748.67246  21817852.3054                   21817850.8324
 -21921789.09448 -17043703.18045  21958290.2734                   21958288.7304
 -27355359.46548 -21286754.92646  20599194.7344                   20599192.6174
 -29332794.15248 -22827312.07045  21854703.5394                   21854699.4264
   1070465.75846    860119.59044  23542427.7974                   23542428.6094
 -17613020.19148 -13649032.66446  21609524.0164                   21609524.8244
 -14148581.86347 -10509596.56245  21857249.0004                   21857248.1804
 11  8 25  2 19 30.0000000  0  8G26G29G12G05G02G15G25G30
  -6792183.00047  -5252420.65645  22645558.0704                   22645557.7504
 -12231187.27348  -9364644.45346  21797120.3204                   21797118.1914
 -21875623.36348 -17007729.91446  21967075.6804                   21967074.3364
 -27338297.45348 -21273459.84846  20602441.2814                   20602439.0474
 -29324052.57047 -22820500.45345  21856366.9224                   21856362.9844
    942054.66447    760059.21544  23517991.8594                   23517993.0044
 -17619282.96948 -13653912.76246  21608332.0704                   21608333.0634
 -14146528.91048 -10507996.88745  21857639.4924                   21857638.8444
 11  8 25  2 20  0.0000000  0  8G26G29G12G05G02G15G25G30
  -6910771.18447  -5344826.94544  22622991.0554                   22622990.5594
 -12339964.74648  -9449406.09846  21776420.0314                   21776418.7624
 -21829151.99248 -16971518.47746  21975918.8674                   21975917.4344
 -27320814.00048 -21259836.37546  20605768.5474                   20605765.9574
 -29315223.12147 -22813620.35545  21858047.1094                   21858043.4144
    813656.21546    660008.68844  23493557.9384                   23493559.0664
 -17625016.64548 -13658380.57446  21607241.2584                   21607242.2274
 -14143962.19148 -10505996.87945  21858128.2664                   21858127.4144
 11  8 25  2 20 30.0000000  0  9G26G21G29G12G05G02G15G25G30
  -7029105.34447  -5437035.28544  22600473.0314                   22600472.8874
   7750333.46556   6057869.71553  25028094.8754                   25028095.2974
 -12448565.78148  -9534030.25846  21755753.9534                   21755752.2854
 -21782375.84848 -16935069.55945  21984820.3134                   21984818.5124
 -27302909.64848 -21245884.93046  20609175.3594                   20609173.0514
 -29306303.98047 -22806670.38745  21859744.5944                   21859740.8404
    685275.10546    559971.69144  23469127.6174                   23469128.3094
 -17630220.87548 -13662435.82046  21606250.8834                   21606251.6134
 -14140881.70348 -10503596.53545  21858714.4144                   21858713.4804
 11  8 25  2 21  0.0000000  0  9G26G21G29G12G05G02G15G25G30
  -5571758.16847  -4301439.98844  22877797.0474                   22877795.6644
   9238189.71146   7217238.26643  25311224.4844                   25311224.8634
 -10981564.76648  -8390912.55946  22034915.1174                   22034913.5744
 -20159879.54748 -15670786.75045  22293570.6484                   22293569.3054
 -25709166.96148 -20004007.50446  20912454.8674                   20912452.2384
 -27721875.29747 -21572050.64545  22161251.0864                   22161247.6024
   2132338.59447   1687553.85244  23744494.7664                   23744495.4104
 -16059477.16848 -12438479.69146  21905153.5004                   21905154.0394
 -12561869.87948  -9273197.74245  22159190.5704                   22159189.5744
 11  8 25  2 21 30.0000000  0  9G26G21G29G12G05G02G15G25G30
  -5689578.02047  -4393247.56645  22855376.4224                   22855376.0554
   9150627.08246   7149007.71143  25294562.2814                   25294561.6524
 -11089810.92648  -8475260.18046  22014316.4224                   22014314.3794
 -20112506.91447 -15633873.03545  22302585.5864                   22302584.2854
 -25690431.58648 -19989408.50846  20916019.6334                   20916017.3834
 -27712780.24647 -21564963.59845  22162982.0944                   22162977.9884
   2003996.60947   1587547.33244  23720071.9534                   23720072.2544
 -16063631.87148 -12441717.12946  21904362.9534                   21904363.5664
 -12557772.83248  -9270005.27045  22159970.3134                   22159968.8874
 11  8 25  2 22  0.0000000  0  9G26G21G29G12G05G02G15G25G30
  -5807139.80947  -4484854.07445  22833004.8444                   22833004.7034
   9063065.81646   7080778.18843  25277899.4064                   25277899.5824
 -11197880.82448  -8559470.44146  21993751.3674                   21993749.9804
 -20064845.63347 -15596734.40245  22311655.1174                   22311653.6134
 -25671289.05548 -19974492.24646  20919662.6644                   20919659.8954
 -27703601.57847 -21557811.39145  22164728.9064                   22164724.7274
   1875674.19547   1487556.05144  23695652.8524                   23695653.5124
 -16067268.91448 -12444551.18746  21903670.5004                   21903671.5434
 -12553175.22347  -9266422.73845  22160844.7894                   22160843.8594
 11  8 25  2 22 30.0000000  0  9G26G21G29G12G05G02G15G25G30
  -5924438.45347  -4576255.52745  22810683.6484                   22810683.5234
   8975506.30146   7012550.04343  25261237.3984                   25261237.1914
 -11305770.89848  -8643540.58246  21973220.5944                   21973219.2704
 -20016896.95747 -15559371.82845  22320779.8674                   22320778.2034
 -25651739.72748 -19959259.00046  20923383.0394                   20923380.3324
 -27694337.84048 -21550592.89145  22166491.5634                   22166487.9534
   1747375.32047   1387583.11744  23671238.5234                   23671238.7544
 -16070388.79348 -12446982.27046  21903077.1174                   21903078.0124
 -12548078.15247  -9262451.01245  22161814.9454                   22161813.9184
 11  8 25  2 23  0.0000000  0  9G26G21G29G12G05G02G15G25G30
  -6041467.79347  -4667447.12545  22788414.1644                   22788413.2154
   8887950.41446   6944324.69943  25244576.0314                   25244575.9964
 -11413476.34048  -8727466.84046  21952724.6954                   21952723.5164
 -19968661.37948 -15521785.70346  22329958.3834                   22329957.1334
 -25631783.93748 -19943709.02746  20927180.4064                   20927177.6414
 -27684986.27047 -21543305.94945  22168271.4064                   22168267.3794
   1619105.45347   1287632.78144  23646829.3834                   23646830.0164
 -16072990.74248 -12449009.75446  21902582.0704                   21902582.6764
 -12542481.42647  -9258089.94145  22162879.7274                   22162878.8094
 11  8 25  2 23 30.0000000  0  9G26G21G29G12G05G02G15G25G30
  -6158228.09047  -4758429.08645  22766195.2274                   22766194.4384
   8800393.60246   6876098.65643  25227915.2664                   25227914.7734
 -11520999.10248  -8811250.75446  21932264.2034                   21932262.1954
 -19920145.75447 -15483981.35945  22339191.1414                   22339189.5594
 -25611427.67648 -19927846.99646  20931054.0554                   20931051.4414
 -27675550.53548 -21535953.44145  22170066.4304                   22170062.5744
   1490863.53147   1187704.21944  23622425.2814                   23622425.8634
 -16075080.44148 -12450638.09046  21902184.2584                   21902185.2544
 -12536391.05548  -9253344.20745  22164039.1644                   22164038.0744
 11  8 25  2 24  0.0000000  0  9G26G21G29G12G05G02G15G25G30
  -6274709.05147  -4849193.37945  22744028.6094                   22744028.8554
   8712842.22746   6807876.82843  25211253.9844                   25211254.0744
 -11628330.09448  -8894885.22746  21911840.0084                   21911838.3284
 -19871346.92647 -15445956.32845  22348476.9844                   22348475.3794
 -25590666.94548 -19911669.79746  20935004.3134                   20935001.7304
 -27666024.01647 -21528530.18745  22171879.6484                   22171875.9924
   1362659.50847   1087805.16844  23598028.4844                   23598029.3244
 -16076653.04748 -12451863.49646  21901884.9224                   21901885.5704
 -12529802.71547  -9248210.44945  22165292.9064                   22165291.9534
 11  8 25  2 24 30.0000000  0  9G26G21G29G12G05G02G15G25G30
  -6390913.10547  -4939741.90244  22721916.7274                   22721915.7424
   8625289.53946   6739653.94543  25194593.1484                   25194593.0634
 -11735472.98448  -8978373.13746  21891450.7194                   21891449.1914
 -19822273.80947 -15407717.55945  22357815.2974                   22357813.5554
 -25569510.13348 -19895183.97346  20939030.3984                   20939027.9844
 -27656412.26647 -21521040.51245  22173708.6174                   22173704.8204
   1234489.71947    987932.80144  23573638.2504                   23573639.1054
 -16077716.44948 -12452692.11746  21901682.5164                   21901683.4884
 -12522724.64848  -9242695.08245  22166639.8444                   22166638.9574
 11  8 25  2 25  0.0000000  0  9G26G21G29G12G05G02G15G25G30
  -6506830.48447  -5030067.05145  22699857.8134                   22699857.5594
   8537741.12946   6671434.39843  25177933.4384                   25177933.2974
 -11842419.52048  -9061708.04346  21871099.2974                   21871097.9064
 -19772923.19948 -15369262.55545  22367206.6174                   22367204.2274
 -25547953.13348 -19878386.30546  20943132.1094                   20943129.8134
 -27646709.30948 -21513479.76645  22175555.0784                   22175550.9064
   1106363.41847    888094.32044  23549256.9384                   23549257.5354
 -16078266.27048 -12453120.55146  21901578.2584                   21901579.0084
 -12515153.09448  -9236795.17645  22168080.5704                   22168079.4694
 11  8 25  2 25 30.0000000  0  9G26G21G29G12G05G02G15G25G30
  -6622458.91447  -5120167.03545  22677854.4454                   22677854.2664
   8450194.55946   6603216.32843  25161274.2734                   25161273.3984
 -11949168.98848  -9144889.38746  21850785.6414                   21850784.3484
 -19723299.62547 -15330594.86345  22376649.2734                   22376647.5474
 -25526000.23448 -19861280.14546  20947310.3134                   20947307.8164
 -27636916.03148 -21505848.64545  22177418.8524                   22177414.9884
    978282.15647    788290.91044  23524883.7894                   23524883.8284
 -16078305.91448 -12453151.45346  21901570.9694                   21901571.2774
 -12507092.03148  -9230513.82845  22169614.3674                   22169613.2854
 11  8 25  2 26  0.0000000  0  9G26G21G29G12G05G02G15G25G30
  -6737801.93747  -5210044.63745  22655905.3914                   22655905.0164
   8362642.52346   6534994.03543  25144613.1334                   25144612.6954
 -12055725.86748  -9227920.66446  21830508.4384                   21830506.9104
 -19673412.97747 -15291722.17645  22386142.4694                   22386140.8914
 -25503660.29348 -19843872.39546  20951561.1884                   20951558.9774
 -27627039.06648 -21498152.30145  22179298.4224                   22179294.5084
    850242.28547    688519.76244  23500518.6094                   23500518.4064
 -16077844.19948 -12452791.68446  21901658.5314                   21901659.4654
 -12498550.51248  -9223858.09845  22171239.9064                   22171238.7464
 11  8 25  2 26 30.0000000  0  9G26G21G29G12G05G02G15G25G30
  -6852852.29347  -5299694.17645  22634012.3984                   22634011.5394
   8275087.80146   6466769.55543  25127951.9304                   25127951.6414
 -12162084.55948  -9310797.51646  21810268.7974                   21810267.6644
 -19623262.90247 -15252644.23045  22395686.0314                   22395684.1884
 -25480932.44548 -19826162.37546  20955886.1484                   20955883.9694
 -27617075.02348 -21490388.10545  22181194.5554                   22181190.3674
    722249.53547    588785.33244  23476162.2734                   23476162.2424
 -16076879.60948 -12452040.06246  21901841.8754                   21901842.8054
 -12489527.60548  -9216827.26245  22172956.7814                   22172955.8054
 11  8 25  2 27  0.0000000  0  9G26G21G29G12G05G02G15G25G30
  -6967599.09447  -5389107.18445  22612176.0864                   22612175.2424
   8187536.92646   6398548.10543  25111291.7894                   25111291.6764
 -12268235.73048  -9393512.67246  21790069.1724                   21790067.9414
 -19572845.44147 -15213357.93745  22405279.9694                   22405278.2934
 -25457812.04748 -19808146.47746  20960285.6884                   20960283.5474
 -27607016.85248 -21482550.56645  22183108.3204                   22183104.2774
    594314.21947    489095.64544  23451816.4384                   23451816.5824
 -16075407.00048 -12450892.57846  21902122.0704                   21902122.9844
 -12480018.58248  -9209417.64145  22174766.3524                   22174765.2624
 11  8 25  2 27 30.0000000  0  9G26G21G29G12G05G02G15G25G30
  -7082040.16447  -5478281.96145  22590398.9144                   22590398.1174
   8099988.11346   6330328.23842  25094631.3984                   25094631.8164
 -12374178.12548  -9476065.14846  21769908.8204                   21769907.5904
 -19522164.78947 -15173866.55145  22414924.1724                   22414922.9654
 -25434302.44548 -19789827.31246  20964759.9064                   20964757.2074
 -27596864.85248 -21474639.90645  22185039.9454                   22185036.5784
    466438.23847    389452.19544  23427482.0704                   23427482.0004
 -16073429.37148 -12449351.58646  21902498.4224                   21902499.1994
 -12470026.93447  -9201631.95745  22176667.3524                   22176666.9844
 11  8 25  2 28  0.0000000  0  9G26G21G29G12G05G02G15G25G30
  -7196179.00447  -5567221.23044  22568678.9774                   22568677.8054
   8012433.02346   6262103.54342  25077970.5234                   25077970.2384
 -12479916.80548  -9558458.87946  21749787.6254                   21749785.8284
 -19471231.39547 -15134178.21945  22424616.5474                   22424615.4414
 -25410413.74248 -19771212.72346  20969305.5474                   20969303.3324
 -27586626.50448 -21466661.96145  22186988.7194                   22186984.5554
    338617.02047    289851.41844  23403158.9454                   23403158.8594
 -16070956.29348 -12447424.51246  21902968.7034                   21902970.2234
 -12459562.67648  -9193477.98445  22178658.8524                   22178658.1254
 11  8 25  2 28 30.0000000  0  9G26G21G29G12G05G02G15G25G30
  -7310007.67647  -5655918.82445  22547017.8054                   22547017.2384
   7924875.83246   6193877.24642  25061309.1334                   25061308.3674
 -12585445.53148  -9640689.02746  21729706.1024                   21729704.4024
 -19420043.89847 -15094291.89845  22434357.0474                   22434355.5274
 -25386143.92248 -19752301.18446  20973923.5554                   20973921.6414
 -27576297.05148 -21458613.03945  22188953.9304                   22188950.2424
    210857.86347    190298.99244  23378846.8834                   23378846.8524
 -16067985.25848 -12445109.44546  21903534.1644                   21903535.3484
 -12448623.78947  -9184954.18045  22180740.8914                   22180739.2624
 11  8 25  2 29  0.0000000  0  9G26G21G29G12G05G02G15G25G30
  -7423521.89147  -5744371.38345  22525416.7504                   22525415.9144
   7837316.69946   6125649.44142  25044646.7504                   25044646.5664
 -12690761.19948  -9722753.15646  21709665.2424                   21709663.4774
 -19368604.85247 -15054209.55145  22444146.0784                   22444144.0944
 -25361494.61348 -19733093.92646  20978614.4454                   20978612.1914
 -27565875.63748 -21450492.45345  22190936.9534                   22190933.4964
     83164.64547     90797.95344  23354547.0704                   23354547.0784
 -16064517.56648 -12442407.36746  21904193.9614                   21904195.5824
 -12437211.94948  -9176061.85245  22182912.0864                   22182911.0314
 11  8 25  2 29 30.0000000  0  9G26G21G29G12G05G02G15G25G30
  -7536723.97747  -5832580.72345  22503875.0704                   22503874.4774
   7749748.79746   6057414.79742  25027982.6254                   25027982.9614
 -12795866.91448  -9804653.68046  21689663.9844                   21689662.4574
 -19316923.32848 -15013938.26245  22453980.1954                   22453978.9804
 -25336474.16448 -19713597.46946  20983375.7734                   20983373.4384
 -27555368.17648 -21442304.80945  22192936.7584                   22192932.9104
    -44466.01247     -8654.34044  23330259.9774                   23330259.8834
 -16060561.28548 -12439324.57046  21904947.2034                   21904948.2034
 -12425335.69147  -9166807.63345  22185172.0944                   22185171.1024
 11  8 25  2 30  0.0000000  0  9G26G21G29G12G05G02G15G25G30
  -7649600.64547  -5920536.48845  22482395.4144                   22482394.5204
   7662181.28146   5989180.44942  25011319.5704                   25011319.0274
 -12900751.15248  -9886381.62946  21669705.2194                   21669703.9774
 -19264992.21547 -14973472.48045  22463862.5634                   22463860.9144
 -25311075.54348 -19693806.34046  20988208.8984                   20988206.4614
 -27544764.42248 -21434042.13745  22194954.3594                   22194950.4224
   -172020.82047   -108047.53544  23305987.4924                   23305986.6054
 -16056108.80548 -12435855.12546  21905794.4384                   21905795.4104
 -12412987.92248  -9157186.00845  22187522.1644                   22187521.1684
 11  8 25  2 30 30.0000000  0  9G26G21G29G12G05G02G15G25G30
  -7762149.18747  -6008236.58245  22460978.2424                   22460977.3524
   7574612.67246   5920945.26242  24994655.6804                   24994655.9024
 -13005412.71548  -9967936.06246  21649789.1174                   21649787.3284
 -19212815.73447 -14932815.50845  22473791.3364                   22473789.7304
 -25285301.67648 -19673722.80546  20993113.4224                   20993111.2934
 -27534065.16448 -21425705.04745  22196990.3054                   22196986.6054
   -299497.97347   -207380.23044  23281728.8284                   23281729.1484
 -16051162.97348 -12432001.24646  21906735.5634                   21906736.4574
 -12400171.91447  -9147199.53145  22189960.7894                   22189959.9454
 11  8 25  2 31  0.0000000  0  9G26G21G29G12G05G02G15G25G30
  -7874367.09847  -6095679.02345  22439623.5704                   22439623.0204
   7487041.09046   5852707.74642  24977990.7734                   24977991.1094
 -13109850.14148 -10049315.83646  21629914.7974                   21629913.1454
 -19160398.32447 -14891970.79745  22483766.2114                   22483765.0594
 -25259156.54348 -19653349.97746  20998088.6724                   20998086.5664
 -27523271.25047 -21417294.21545  22199044.6724                   22199041.1374
   -426895.46947   -306650.84444  23257485.5164                   23257485.5784
 -16045727.12548 -12427765.54746  21907770.4384                   21907770.8954
 -12386891.39847  -9136851.10245  22192487.7034                   22192486.9144
 11  8 25  2 31 30.0000000  0  9G26G21G29G12G05G02G15G25G30
  -7986261.29747  -6182869.24245  22418330.8594                   22418329.8324
   7399455.36746   5784459.26642  24961323.7424                   24961323.9304
 -13214071.51648 -10130527.27046  21610082.5084                   21610080.7154
 -19107753.90247 -14850949.20345  22493784.0234                   22493782.4654
 -25232653.21148 -19632698.02346  21003131.9694                   21003129.9844
 -27512392.88347 -21408817.55545  22201114.3524                   22201110.9534
   -554221.14847   -405865.46944  23233256.1954                   23233256.4494
 -16039813.99248 -12423157.93446  21908895.4304                   21908896.5204
 -12373159.62947  -9126151.03545  22195101.0004                   22195100.2894
 11  8 25  2 32  0.0000000  0  9G26G21G29G12G05G02G15G25G30
  -8097830.09447  -6269805.87545  22397100.0084                   22397099.0354
   7311853.30946   5716198.01242  24944653.1954                   24944654.3874
 -13318076.42248 -10211570.01246  21590290.7344                   21590289.3204
 -19054886.74247 -14809754.04345  22503844.5944                   22503843.7074
 -25205795.46948 -19611769.90646  21008242.6644                   21008240.5984
 -27501431.54747 -21400276.25045  22203200.3054                   22203196.4734
   -681473.43447   -505022.92644  23209040.8444                   23209040.7074
 -16033427.34448 -12418181.32846  21910110.7894                   21910111.6334
 -12358980.69147  -9115102.53145  22197799.2734                   22197798.2704
 11  8 25  2 32 30.0000000  0  9G26G21G29G12G05G02G15G25G30
  -8209062.73047  -6356480.59045  22375933.3054                   22375931.9614
   7224241.02046   5647928.82842  24927981.9064                   24927982.2854
 -13421855.48048 -10292436.76646  21570542.3834                   21570540.4964
 -19001793.19147 -14768382.48445  22513948.0004                   22513946.4344
 -25178578.73448 -19590562.06246  21013422.0394                   21013419.9614
 -27490380.12947 -21391664.76245  22205303.5634                   22205299.7704
   -808642.61747   -604115.63745  23184841.4534                   23184841.1484
 -16026562.34848 -12412832.00046  21911417.2734                   21911418.2584
 -12344350.14847  -9103702.13345  22200583.4144                   22200582.5164
 11  8 25  2 33  0.0000000  0  9G26G21G29G12G05G02G15G25G30
  -8319950.83247  -6442886.83645  22354831.6254                   22354830.9414
   7136623.13746   5579655.29343  24911308.5314                   24911309.0164
 -13525401.67648 -10373122.07846  21550838.3834                   21550836.6024
 -18948471.53147 -14726833.16845  22524095.0314                   22524093.3244
 -25151001.09848 -19569072.98846  21018670.2274                   21018667.7974
 -27479233.53147 -21382979.11345  22207424.4924                   22207420.8404
   -935721.05147   -703137.62945  23160659.0394                   23160658.8404
 -16019216.37948 -12407107.89146  21912814.9384                   21912816.0514
 -12329265.97347  -9091948.26245  22203453.6724                   22203452.5084
 11  8 25  2 33 30.0000000  0  9G26G21G29G12G05G02G15G25G30
  -8430501.43447  -6529030.10245  22333794.5234                   22333793.6414
   7048988.23046   5511368.44543  24894632.2114                   24894631.9104
 -13628723.07448 -10453632.21546  21531176.6414                   21531175.2894
 -18894934.95747 -14685116.39145  22534282.6724                   22534281.4614
 -25123075.45748 -19547312.74246  21023984.0394                   21023981.7704
 -27468001.84447 -21374227.14845  22209561.5944                   22209558.1134
  -1062715.88747   -802094.48045  23136492.3524                   23136492.4384
 -16011402.13348 -12401018.87146  21914302.0164                   21914303.0474
 -12313741.21547  -9079851.07445  22206407.7274                   22206406.9264
 11  8 25  2 34  0.0000000  0  9G26G21G29G12G05G02G15G25G30
  -8540691.93747  -6614892.76645  22312826.1094                   22312825.1454
   6961354.41046   5443082.47343  24877956.1884                   24877956.1214
 -13731798.69548 -10533950.84446  21511562.2034                   21511559.9734
 -18841168.26247 -14643220.28945  22544514.0704                   22544512.9024
 -25094785.15648 -19525268.34846  21029367.4064                   21029365.0904
 -27456666.02047 -21365394.05145  22211718.9694                   22211715.1524
  -1189605.15647   -900969.08245  23112346.1954                   23112345.9024
 -16003103.07048 -12394552.08246  21915881.3204                   21915882.5784
 -12297759.68447  -9067397.96545  22209449.1174                   22209448.3954
 11  8 25  2 34 30.0000000  0  9G26G21G29G12G05G02G15G25G30
  -8650535.05147  -6700484.73445  22291923.5474                   22291922.6844
   6873705.39146   5374784.62543  24861276.8524                   24861276.5634
 -13834642.43048 -10614088.77746  21491991.6094                   21491989.8484
 -18787190.29747 -14601159.57845  22554785.3444                   22554784.3984
 -25066148.98848 -19502954.44546  21034816.7424                   21034814.3324
 -27445241.79348 -21356492.06645  22213892.8914                   22213889.1844
  -1316402.16847   -999771.78945  23088217.3834                   23088217.3714
 -15994337.39548 -12387721.70346  21917549.1564                   21917550.4844
 -12281340.09847  -9054603.51645  22212573.5314                   22212572.7734
 11  8 25  2 35  0.0000000  0  9G26G21G29G12G05G02G15G25G30
  -8760013.91447  -6785792.87145  22271090.4614                   22271088.8484
   6786053.60246   5306484.66443  24844597.1174                   24844596.6644
 -13937238.42248 -10694033.66446  21472468.0004                   21472466.4264
 -18732991.53947 -14558926.81245  22565098.9924                   22565097.9264
 -25037156.20348 -19480362.65646  21040333.8054                   21040331.4804
 -27433715.55548 -21347510.59845  22216086.1414                   22216082.3094
  -1443090.65647  -1098489.92244  23064108.6804                   23064109.1294
 -15985094.25448 -12380519.26246  21919308.4614                   21919309.6414
 -12264471.94948  -9041459.53145  22215783.5784                   22215783.0124
 11  8 25  2 35 30.0000000  0  9G26G21G29G12G05G02G15G25G30
  -8869140.40647  -6870826.43445  22250323.9144                   22250322.8874
   6698382.90246   5238169.96543  24827913.1334                   24827913.8284
 -14039600.02748 -10773795.91046  21452989.4384                   21452987.8134
 -18678590.30547 -14516536.28145  22575451.2114                   22575450.1094
 -25007824.77348 -19457506.97346  21045915.4774                   21045913.2464
 -27422102.71947 -21338461.64545  22218296.0234                   22218291.9654
  -1569683.24247  -1197133.32445  23040018.8444                   23040018.9844
 -15975391.46148 -12372958.66446  21921154.6254                   21921155.7704
 -12247173.49648  -9027980.24245  22219075.4304                   22219074.6604
 11  8 25  2 36  0.0000000  0  9G26G21G29G12G05G02G15G25G30
  -8977900.28947  -6955574.32045  22229627.5004                   22229626.8284
   6610703.52346   5169848.51243  24811228.1884                   24811228.4144
 -14141714.02048 -10853365.21546  21433557.6334                   21433555.6604
 -18623978.86347 -14473981.94545  22585843.5474                   22585842.2934
 -24978146.36748 -19434380.93446  21051563.1024                   21051560.6484
 -27410392.00047 -21329336.42645  22220524.6724                   22220521.1214
  -1696165.87547  -1295691.06644  23015950.1254                   23015949.9454
 -15965220.48448 -12365033.23446  21923090.2424                   21923090.8674
 -12229436.68048  -9014159.36345  22222450.4844                   22222450.2504
 11  8 25  2 36 30.0000000  0  9G26G21G29G12G05G02G15G25G30
  -9086297.00047  -7040039.22345  22209000.1644                   22208998.8914
   6523007.93046   5101514.40243  24794541.0084                   24794539.8714
 -14243585.10548 -10932745.23446  21414172.3834                   21414170.7504
 -18569167.16847 -14431271.56245  22596274.2584                   22596272.6764
 -24948130.39548 -19410991.85246  21057274.7584                   21057272.1684
 -27398590.24648 -21320140.27045  22222770.4534                   22222767.6174
  -1822542.57847  -1394166.26245  22991901.4384                   22991901.1914
 -15954590.55948 -12356750.18446  21925113.2974                   21925114.1254
 -12211271.01248  -9000004.31245  22225907.3364                   22225906.5394
 11  8 25  2 37  0.0000000  0  9G26G21G29G12G05G02G15G25G30
  -9194327.37947  -7124218.66845  22188442.8674                   22188441.6214
   6435295.15246   5033166.90643  24777849.5314                   24777848.5944
 -14345211.35248 -11011934.47746  21394833.2274                   21394831.8984
 -18514158.75047 -14388407.88745  22606742.3444                   22606740.8054
 -24917779.92648 -19387342.12546  21063050.4144                   21063048.0824
 -27386697.53948 -21310873.23845  22225033.7894                   22225030.2074
  -1948810.93447  -1492557.05145  22967873.8914                   22967873.1134
 -15943504.45348 -12348111.66446  21927222.6724                   21927223.5204
 -12192679.71947  -8985517.59845  22229444.9774                   22229444.5594
 11  8 25  2 37 30.0000000  0  9G26G21G29G12G05G02G15G25G30
  -9301990.41447  -7208111.87545  22167955.0164                   22167953.8554
   6347562.01246   4964803.56643  24761154.7504                   24761153.5664
 -14446592.92248 -11090933.06646  21375541.1954                   21375539.3364
 -18458959.27347 -14345395.34445  22617246.0234                   22617244.7194
 -24887099.86348 -19363435.57846  21068888.8364                   21068886.2154
 -27374716.04348 -21301537.01645  22227313.7194                   22227309.9414
  -2074970.22747  -1590862.85945  22943866.2424                   22943865.3364
 -15931967.03148 -12339121.47746  21929418.0314                   21929418.8834
 -12173668.03147  -8970703.32045  22233063.3914                   22233062.8134
 11  8 25  2 38  0.0000000  0  9G26G21G29G12G05G02G15G25G30
  -9409276.17248  -7291711.09845  22147539.3284                   22147538.3014
   6259814.28946   4896428.81643  24744456.5704                   24744455.8134
 -14547721.12548 -11169734.22346  21356296.8594                   21356295.2854
 -18403565.66447 -14302231.52745  22627786.9534                   22627786.1564
 -24856086.11748 -19339269.00446  21074790.4534                   21074788.1294
 -27362638.94548 -21292126.30145  22229612.0634                   22229608.0004
  -2201010.94947  -1689076.27345  22919881.4534                   22919880.2304
 -15919974.24248 -12329776.46146  21931700.3134                   21931701.5474
 -12154232.39147  -8955558.67645  22236761.7194                   22236760.7424
 11  8 25  2 38 30.0000000  0  9G26G21G29G12G05G02G15G25G30
  -9516182.92647  -7375015.01645  22127195.8594                   22127194.3674
   6172049.61746   4828040.88343  24727755.7974                   24727754.7974
 -14648595.50848 -11248337.60246  21337100.8914                   21337099.3914
 -18347982.69547 -14258920.15645  22638364.3204                   22638362.7154
 -24824743.27748 -19314846.00446  21080754.8984                   21080752.2464
 -27350467.91048 -21282642.38345  22231928.0084                   22231924.3364
  -2326931.89547  -1787196.36745  22895919.1484                   22895918.6484
 -15907530.30548 -12320079.89546  21934068.4144                   21934069.4494
 -12134377.35947  -8940087.22345  22240539.5164                   22240539.2194
 11  8 25  2 39  0.0000000  0  9G26G21G29G12G05G02G15G25G30
  -9622704.35247  -7458018.65245  22106925.2664                   22106924.0474
   6084270.44147   4759641.67243  24711051.7194                   24711051.0434
 -14749210.57448 -11326738.91046  21317954.7734                   21317953.0314
 -18292210.72747 -14215461.50845  22648977.3914                   22648976.0394
 -24793071.18048 -19290166.44546  21086781.8054                   21086779.3404
 -27338199.69147 -21273082.74245  22234262.5394                   22234258.6724
  -2452727.43447  -1885218.74645  22871981.0314                   22871980.4804
 -15894634.69148 -12310031.37946  21936522.1484                   21936523.4064
 -12114102.74247  -8924288.83645  22244398.0634                   22244396.9414
 11  8 25  2 39 30.0000000  0  9G26G21G29G12G05G02G15G25G30
  -9728839.00047  -7540720.92245  22086728.6564                   22086727.1994
   5996474.03547   4691228.99243  24694344.1644                   24694343.2894
 -14849566.08248 -11404937.97746  21298857.6094                   21298855.7194
 -18236254.59847 -14171859.37145  22659625.3754                   22659624.1524
 -24761073.91048 -19265233.50446  21092870.7584                   21092868.6024
 -27325835.66447 -21263448.44945  22236615.5004                   22236611.3754
  -2578396.07847  -1983142.23045  22848066.9924                   22848066.5784
 -15881291.83248 -12299634.35946  21939061.4694                   21939062.4574
 -12093413.39547  -8908167.27345  22248334.9384                   22248334.3914
 11  8 25  2 40  0.0000000  0 10G26G21G29G12G05G02G15G25G30G18
  -9834583.20747  -7623118.93445  22066605.7584                   22066604.6254
   5908659.63347   4622802.31343  24677633.3524                   24677632.8554
 -14949659.97748 -11482933.18046  21279810.3914                   21279808.6334
 -18180117.89847 -14128116.52045  22670307.8984                   22670306.4654
 -24728754.38748 -19240049.45346  21099020.9694                   21099018.6644
 -27313375.96547 -21253739.59445  22238986.0784                   22238982.5084
  -2703935.15247  -2080964.76245  22824177.9614                   22824176.5554
 -15867504.32048 -12288890.85246  21941684.8914                   21941686.2154
 -12072312.33647  -8891724.90245  22252350.6094                   22252349.4344
   9277091.58615                  24583937.383
 11  8 25  2 40 30.0000000  0 10G26G21G29G12G05G02G15G25G30G18
  -9939934.90647  -7705211.10945  22046558.2114                   22046556.7624
   5820825.60947   4554360.32043  24660919.4844                   24660918.1454
 -15049491.24248 -11560723.74246  21260813.2034                   21260811.1134
 -18123804.73047 -14084236.15645  22681024.1804                   22681022.3404
 -24696116.02048 -19214616.94946  21105231.6414                   21105229.4104
 -27300821.18447 -21243956.65245  22241375.4144                   22241371.5944
  -2829342.68747  -2178684.79745  22800313.3984                   22800312.4144
 -15853275.67648 -12277803.61746  21944392.5784                   21944393.7154
 -12050803.41847  -8874964.69945  22256443.6174                   22256442.7704
   9156248.801 5                  24560941.656
 11  8 25  2 41  0.0000000  0 10G26G21G29G12G05G02G15G25G30G18
 -10044887.07047  -7786991.96145  22026586.2114                   22026585.2704
   5732974.94946   4485905.40243  24644201.8834                   24644201.2974
 -15149053.56248 -11638304.73846  21241866.6334                   21241865.4344
 -18067314.86347 -14040218.10945  22691773.5944                   22691772.3874
 -24663157.73448 -19188935.16846  21111503.3134                   21111500.7234
 -27288167.53547 -21234096.66445  22243783.5554                   22243779.5594
  -2954612.18747  -2276297.27345  22776475.0864                   22776474.2624
 -15838604.94948 -12266371.89546  21947184.2274                   21947185.8834
 -12028886.10947  -8857886.28945  22260614.1804                   22260613.5084
   9035577.824 6                  24537979.023
 11  8 25  2 41 30.0000000  0 10G26G21G29G12G05G02G15G25G30G18
 -10149446.53547  -7868466.80545  22006689.3284                   22006688.2624
   5645096.76646   4417428.99243  24627479.4454                   24627478.6374
 -15248355.07448 -11715682.50846  21222970.4454                   21222968.3634
 -18010661.53147 -13996072.69545  22702554.2814                   22702552.8984
 -24629892.49648 -19163014.19946  21117833.2974                   21117831.4884
 -27275425.18747 -21224167.56645  22246208.3834                   22246204.3324
  -3079750.87947  -2373807.82045  22752662.5234                   22752661.0124
 -15823504.85948 -12254605.60946  21950057.6564                   21950059.1214
 -12006573.45747  -8840499.81645  22264860.2584                   22264859.7304
   8915069.34846   7277101.41853  24515046.6724                   24515048.5314
 11  8 25  2 42  0.0000000  0 10G26G21G29G12G05G02G15G25G30G18
 -10253604.82448  -7949629.05145  21986868.7974                   21986867.4734
   5557195.41046   4348934.55543  24610751.4694                   24610750.9494
 -15347388.34448 -11792851.26246  21204125.1334                   21204123.1214
 -17953842.66047 -13951798.28545  22713366.5554                   22713365.5274
 -24596318.05148 -19136852.30146  21124222.5084                   21124220.0664
 -27262588.55547 -21214164.99245  22248650.8364                   22248647.1214
  -3204750.55547  -2471210.04745  22728875.1254                   22728874.5824
 -15807972.93048 -12242502.83246  21953013.4774                   21953014.5204
 -11983863.40247  -8822803.68045  22269181.8204                   22269180.9654
   8794730.09046   7183330.82843  24492146.4694                   24492148.8364
 11  8 25  2 42 30.0000000  0 10G26G21G29G12G05G02G15G25G30G18
 -10357350.21547  -8030469.55145  21967126.2814                   21967125.4184
   5469278.39846   4280427.90243  24594021.4064                   24594020.7584
 -15446143.02748 -11869802.94146  21185332.5704                   21185330.5434
 -17896853.78147 -13907391.40645  22724211.4844                   22724210.1884
 -24562428.57848 -19110444.92646  21130671.6334                   21130669.1644
 -27249649.16047 -21204082.35245  22251113.3984                   22251109.5164
  -3329600.30547  -2568495.44945  22705116.6954                   22705115.7424
 -15792003.46548 -12230059.11346  21956052.3834                   21956053.2894
 -11960750.57447  -8804793.69945  22273580.2734                   22273579.0984
   8674569.27746   7089699.27043  24469280.9694                   24469282.7974
 11  8 25  2 43  0.0000000  0 10G26G21G29G12G05G02G15G25G30G18
 -10460687.05548  -8110991.71145  21947462.0634                   21947461.1994
   5381337.69146   4211902.77743  24577286.6804                   24577286.3554
 -15544624.11748 -11946541.43046  21166592.5084                   21166590.2464
 -17839705.41047 -13862860.25445  22735086.4614                   22735085.4144
 -24528233.99248 -19083799.78946  21137178.4844                   21137176.1724
 -27236614.26247 -21193925.28545  22253594.0004                   22253589.8634
  -3454304.14147  -2665667.16045  22681386.2194                   22681385.2734
 -15775606.63748 -12217282.38746  21959172.8364                   21959173.5744
 -11937245.59447  -8786478.14545  22278053.0704                   22278051.8244
   8554580.21546   6996201.53543  24446447.4614                   24446449.1954
 11  8 25  2 43 30.0000000  0 10G26G21G29G12G05G02G15G25G30G18
 -10563605.15247  -8191187.58245  21927876.7034                   21927876.0474
   5293379.55946   4143364.04743  24560549.0314                   24560548.1724
 -15642822.52348 -12023059.65646  21147905.9924                   21147903.9144
 -17782393.79347 -13818201.89145  22745992.2034                   22745991.3634
 -24493730.28148 -19056913.77746  21143744.0864                   21143741.9694
 -27223476.87947 -21183688.36745  22256093.4614                   22256089.7074
  -3578852.68047  -2762717.83245  22657685.4144                   22657684.5904
 -15758778.28548 -12204169.40246  21962374.8754                   21962375.8054
 -11913344.57447  -8767853.98045  22282601.4224                   22282599.9804
   8434770.96546   6902843.95343  24423648.7274                   24423649.5354
 11  8 25  2 44  0.0000000  0 10G26G21G29G12G05G02G15G25G30G18
 -10666104.53948  -8271057.18045  21908372.4534                   21908370.9184
   5205400.28946   4074808.85943  24543807.2894                   24543806.0084
 -15740739.54748 -12099358.62146  21129272.8284                   21129270.8484
 -17724925.17647 -13773421.19145  22756928.2274                   22756926.7114
 -24458923.25848 -19029791.41846  21150368.0784                   21150365.6414
 -27210240.13747 -21173374.01645  22258612.1254                   22258608.3914
  -3703246.25847  -2859647.78945  22634014.2504                   22634013.0554
 -15741524.22748 -12190724.70346  21965658.4534                   21965659.2034
 -11889053.69547  -8748926.03545  22287223.5164                   22287222.4264
   8315139.70346   6809625.05543  24400883.4694                   24400885.3094
 11  8 25  2 44 30.0000000  0 10G26G21G29G12G05G02G15G25G30G18
 -10768184.49648  -8350599.95345  21888947.4304                   21888945.9534
   5117395.84446   4006234.07843  24527060.1804                   24527059.6994
 -15838375.74248 -12175438.76246  21110693.4694                   21110691.3834
 -17667305.71547 -13728522.93745  22767893.5554                   22767891.8554
 -24423818.27748 -19002436.89546  21157048.3054                   21157045.9344
 -27196905.99647 -21162983.77345  22261150.0004                   22261146.1024
  -3827484.44947  -2956456.66445  22610372.5164                   22610371.2854
 -15723849.92648 -12176952.54746  21969021.8674                   21969022.8014
 -11864378.74647  -8729698.82045  22291918.7114                   22291918.3554
   8195684.50046   6716543.33643  24378151.2584                   24378152.8134
 11  8 25  2 45  0.0000000  0 10G26G21G29G12G05G02G15G25G30G18
 -10869843.94948  -8429815.05545  21869602.0554                   21869600.4064
   5029363.45346   3937637.51243  24510308.4224                   24510307.3554
 -15935730.98048 -12251299.97346  21092167.1884                   21092164.6954
 -17609541.27747 -13683511.71945  22778885.2814                   22778884.2974
 -24388420.58648 -18974854.28146  21163784.3834                   21163781.6564
 -27183476.97747 -21152519.60245  22263704.8834                   22263701.4384
  -3951566.73447  -3053144.04345  22586760.1804                   22586758.9804
 -15705760.42648 -12162856.85546  21972464.1024                   21972465.2304
 -11839325.24247  -8710176.63345  22296686.8204                   22296685.4064
   8076404.04746   6623597.79743  24355452.6094                   24355454.2074
 11  8 25  2 45 30.0000000  0 10G26G21G29G12G05G02G15G25G30G18
  -9395648.39148  -7281091.19545  22150131.8834                   22150130.2584
   6516733.76646   5096627.41043  24793345.4844                   24793344.1564
 -14457371.56248 -11099331.58646  21373489.6484                   21373487.3204
 -15976208.91847 -12410785.25845  23089697.9224                   23089697.2234
 -22777305.57448 -17719439.99646  21470369.5234                   21470366.8674
 -25594525.14147 -19914375.32445  22566072.3914                   22566068.8634
  -2500058.13747  -1922098.28545  22862973.0164                   22862971.8834
 -14111831.02048 -10920833.96546  22275778.7194                   22275779.8714
 -10238468.93447  -7462756.16445  22601319.6094                   22601318.9184
   9532731.58646   7758398.72743  24632582.9144                   24632584.0784
 11  8 25  2 46  0.0000000  0 10G26G21G29G12G05G02G15G25G30G18
  -9496448.73847  -7359636.87145  22130950.4304                   22130949.1024
   6428652.60946   5027992.82043  24776584.0394                   24776582.5084
 -14554149.21548 -11174742.72746  21355073.5164                   21355071.7464
 -15918155.10547 -12365548.57045  23100745.5554                   23100744.3714
 -22741321.06248 -17691400.12146  21477216.8914                   21477214.1684
 -25580896.42247 -19903755.53945  22568666.2114                   22568662.1294
  -2623810.99647  -2018528.97345  22839423.4454                   22839422.1724
 -14092910.64148 -10906090.83246  22279379.0634                   22279379.9574
 -10212658.67247  -7442644.29345  22606230.8984                   22606230.4224
   9413812.78146   7665734.99243  24609952.7814                   24609954.0124
 11  8 25  2 46 30.0000000  0 10G26G21G29G12G05G02G15G25G30G18
  -9596808.60947  -7437839.29345  22111852.5554                   22111851.5664
   6340552.14146   4959343.18443  24759818.9774                   24759817.8874
 -14650629.18448 -11249921.91046  21336713.8444                   21336712.4534
 -15859955.37147 -12320198.16445  23111821.1804                   23111819.1054
 -22705041.16848 -17663130.08246  21484120.7194                   21484118.4144
 -25567161.68447 -19893053.14845  22571279.5944                   22571276.0124
  -2747388.80947  -2114823.27045  22815907.3834                   22815906.4534
 -14073572.92648 -10891022.50446  22283059.1334                   22283059.7814
 -10186468.58647  -7422236.45745  22611214.6024                   22611214.0864
   9295082.49646   7573218.15243  24587359.3754                   24587360.5554
 11  8 25  2 47  0.0000000  0 10G26G21G29G12G05G02G15G25G30G18
  -9696721.20747  -7515693.21545  22092839.6564                   22092838.6914
   6252435.29746   4890680.76643  24743050.8524                   24743049.4024
 -14746804.85248 -11324863.97346  21318412.2344                   21318410.3634
 -15801609.32047 -12274733.73845  23122923.7814                   23122921.8554
 -22668464.85548 -17634629.07046  21491080.9844                   21491078.8094
 -25553316.98047 -19882265.07445  22573914.3594                   22573910.7034
  -2870784.62547  -2210975.74045  22792425.3594                   22792424.6954
 -14053816.96148 -10875628.27046  22286818.4384                   22286819.4144
 -10159898.22347  -7401532.31645  22616270.8284                   22616270.5664
   9176545.41046   7480851.84043  24564802.0944                   24564802.9264
 11  8 25  2 47 30.0000000  0 10G26G21G29G12G05G02G15G25G30G18
  -9796189.86348  -7593201.19945  22073911.7034                   22073910.0354
   6164294.49246   4821999.68843  24726278.0784                   24726277.4024
 -14842681.18447 -11399572.77346  21300167.7504                   21300165.5234
 -15743126.97747 -12229163.11745  23134052.2894                   23134051.1954
 -22631601.53148 -17605904.40246  21498095.7424                   21498093.1724
 -25539368.52347 -19871396.14845  22576568.4924                   22576564.4844
  -2994002.53547  -2306989.59445  22768978.2034                   22768976.9884
 -14033652.25048 -10859915.53146  22290655.7274                   22290656.7034
 -10132957.38347  -7380539.47345  22621398.2814                   22621396.9344
   9058195.68046   7388631.50043  24542280.7664                   24542281.7974
 11  8 25  2 48  0.0000000  0 10G26G21G29G12G05G02G15G25G30G18
  -9895215.22747  -7670363.75445  22055067.4454                   22055066.1374
   6076125.79346   4753296.85243  24709500.3834                   24709498.8794
 -14938259.38348 -11474049.26246  21281979.4844                   21281977.3014
 -15684515.13347 -12183491.59445  23145206.0234                   23145204.6724
 -22594457.22748 -17576960.79346  21505164.1094                   21505161.8834
 -25525319.98047 -19860449.23845  22579242.3204                   22579238.1254
  -3117042.95747  -2402865.14545  22745564.3054                   22745562.8914
 -14013085.13348 -10843889.23046  22294569.5554                   22294570.3444
 -10105652.72747  -7359263.14545  22626593.6094                   22626593.0634
   8940030.67646   7296555.13742  24519793.9694                   24519795.8834
 11  8 25  2 48 30.0000000  0 10G26G21G29G12G05G02G15G25G30G18
  -9993794.13748  -7747178.43745  22036308.7344                   22036306.9144
   5987928.23046   4684571.56343  24692716.5474                   24692715.1254
 -15033537.98048 -11548292.29346  21263848.7734                   21263846.5664
 -15625777.38347 -12137721.97345  23156383.0784                   23156382.0784
 -22557035.11748 -17547800.71946  21512285.1414                   21512282.7934
 -25511171.18447 -19849424.19545  22581934.4304                   22581930.5434
  -3239903.62547  -2498600.63745  22722184.6884                   22722183.5554
 -13992118.68748 -10827551.77746  22298559.3834                   22298560.2074
 -10077987.63747  -7337705.95745  22631858.3914                   22631857.1134
   8822051.19946   7204623.34442  24497343.0784                   24497345.0784
 11  8 25  2 49  0.0000000  0 10G26G21G29G12G05G02G15G25G30G18
 -10091924.80147  -7823643.82845  22017634.5864                   22017633.1094
   5899699.51246   4615821.97343  24675927.2274                   24675925.7664
 -15128515.78148 -11622300.93746  21245775.1564                   21245773.2274
 -15566918.11347 -12091857.65645  23167583.7734                   23167582.8984
 -22519339.05148 -17518427.16046  21519458.6724                   21519456.1954
 -25496923.10247 -19838321.80945  22584645.7114                   22584641.8554
  -3362582.57847  -2594194.52045  22698839.4304                   22698838.1804
 -13970757.19948 -10810906.48046  22302624.5084                   22302625.4734
 -10049966.76247  -7315871.53945  22637190.3054                   22637189.4694
   8704257.12546   7112835.99642  24474927.2034                   24474929.5084
 11  8 25  2 49 30.0000000  0 10G26G21G29G12G05G02G15G25G30G18
 -10189592.29747  -7899748.31645  21999049.0554                   21999047.6684
   5811451.27346   4547057.18843  24659134.3284                   24659133.3204
 -15223178.33648 -11696063.93446  21227761.2504                   21227759.4184
 -15507928.95347 -12045892.12145  23178809.3284                   23178807.5084
 -22481359.78948 -17488832.93746  21526685.7114                   21526683.3484
 -25482563.50047 -19827132.51245  22587378.5784                   22587374.2934
  -3485065.23847  -2689635.44945  22675531.9534                   22675530.6094
 -13948991.55948 -10793946.27046  22306766.2424                   22306766.8554
 -10021581.18047  -7293752.93445  22642591.9534                   22642591.4924
   8586660.90246   7021202.79742  24452549.5234                   24452550.4614
 11  8 25  2 50  0.0000000  0 10G26G21G29G12G05G02G15G25G30G18
 -10286797.00447  -7975492.18745  21980551.8594                   21980550.4734
   5723179.10246   4478273.76643  24642336.4384                   24642335.2894
 -15317526.87548 -11769582.23846  21209807.1954                   21209805.3054
 -15448816.55547 -11999830.53945  23190057.9454                   23190056.5314
 -22443103.56648 -17459022.89846  21533965.6174                   21533963.4774
 -25468096.07047 -19815859.19945  22590131.3914                   22590127.5004
  -3607352.06647  -2784923.78545  22652261.0944                   22652260.0664
 -13926828.19948 -10776676.13746  22310984.0784                   22310984.6954
  -9992837.84847  -7271355.56645  22648061.4454                   22648060.8834
   8469260.19146   6929721.93843  24430208.8364                   24430209.8014
 11  8 25  2 50 30.0000000  0 10G26G21G29G12G05G02G15G25G30G18
 -10383543.90647  -8050879.31645  21962140.8594                   21962139.7194
   5634874.18046   4409464.81643  24625531.9844                   24625531.0824
 -15411568.26247 -11842861.19546  21191911.5084                   21191909.6884
 -15389592.05947 -11953681.62545  23201327.7034                   23201326.4454
 -22404581.09448 -17429005.39146  21541296.2194                   21541294.3404
 -25453528.31247 -19804507.70745  22592903.5554                   22592899.9964
  -3729448.16847  -2880063.51245  22629026.8914                   22629025.5274
 -13904278.10248 -10759104.63746  22315275.0314                   22315275.8284
  -9963747.85547  -7248688.06645  22653597.3444                   22653596.4264
   8352048.05546   6838387.98443  24407904.7034                   24407904.6254
 11  8 25  2 51  0.0000000  0 10G26G21G29G12G05G02G15G25G30G18
 -10479828.41047  -8125906.14545  21943819.0314                   21943817.6644
   5546537.42246   4340631.05943  24608723.0394                   24608721.0944
 -15505298.24648 -11915897.50846  21174075.6254                   21174073.4884
 -15330257.48047 -11907446.93444  23212618.7664                   23212617.7664
 -22365793.86348 -17398781.56646  21548677.0634                   21548675.0634
 -25438858.81247 -19793076.92245  22595695.4924                   22595691.1564
  -3851348.95747  -2975051.06645  22605830.2894                   22605829.0474
 -13881342.67648 -10741232.90246  22319639.8444                   22319640.6214
  -9934313.02047  -7225751.84845  22659198.4614                   22659198.1644
   8235026.69146   6747202.73443  24385636.0944                   24385635.7774
 11  8 25  2 51 30.0000000  0 10G26G21G29G12G05G02G15G25G30G18
 -10575642.83247  -8200566.67645  21925586.0234                   21925584.3674
   5458172.87546   4271775.67643  24591907.6254                   24591906.4494
 -15598710.04748 -11988685.87946  21156299.7974                   21156297.6454
 -15270811.34047 -11861125.31644  23223931.1564                   23223929.4494
 -22326739.57048 -17368349.65246  21556109.0314                   21556106.5904
 -25424082.40248 -19781562.83645  22598506.7974                   22598502.9224
  -3973047.43447  -3069880.96945  22582671.9144                   22582670.0704
 -13858020.23848 -10723059.58246  22324077.7274                   22324078.6884
  -9904531.99647  -7202545.88345  22664865.8524                   22664865.4654
   8118201.62146   6656170.42643  24363404.1724                   24363404.9844
 11  8 25  2 52  0.0000000  0 10G26G21G29G12G05G02G15G25G30G18
 -10670988.32847  -8274861.80945  21907442.8364                   21907440.8984
   5369775.55946   4202894.74243  24575085.5554                   24575084.4924
 -15691805.64547 -12061227.85946  21138584.4694                   21138582.1724
 -15211261.02347 -11814722.50845  23235263.0554                   23235261.6334
 -22287425.29748 -17337715.16046  21563590.1724                   21563587.6604
 -25409203.61747 -19769968.98045  22601338.4924                   22601334.5164
  -4094544.79347  -3164554.16445  22559551.4774                   22559549.5554
 -13834318.07048 -10704590.37145  22328587.9454                   22328589.2304
  -9874412.23047  -7179075.96145  22670597.0784                   22670596.7464
   8001569.25047   6565288.24643  24341209.7584                   24341210.1564
 11  8 25  2 52 30.0000000  0 10G26G21G29G12G05G02G15G25G30G18
 -10765853.00847  -8348782.29745  21889390.0554                   21889388.5004
   5281353.45746   4133994.52343  24558259.6644                   24558258.1604
 -15784573.93048 -12133514.79746  21120930.9534                   21120929.1954
 -15151601.46947 -11768234.59045  23246616.2814                   23246615.1644
 -22247844.75448 -17306873.17246  21571122.1724                   21571119.9534
 -25394212.75048 -19758287.79345  22604191.1414                   22604186.9844
  -4215828.75447  -3259061.07045  22536471.7504                   22536470.8524
 -13810230.02347 -10685820.48045  22333171.3984                   22333172.3954
  -9843948.09847  -7155337.69545  22676394.4924                   22676393.8834
   7885139.99647   6474564.35943  24319054.1564                   24319054.4574
 11  8 25  2 53  0.0000000  0 10G26G21G29G12G05G02G15G25G30G18
 -10860244.66047  -8422334.17245  21871427.8914                   21871426.2074
   5192896.03946   4065066.74643  24541426.7734                   24541425.3954
 -15877023.26248 -12205553.20746  21103338.3754                   21103336.2154
 -15091846.01247 -11721671.94145  23257987.4224                   23257986.1684
 -22208011.23848 -17275834.06646  21578702.5314                   21578699.9804
 -25379120.22348 -19746527.38345  22607063.1174                   22607058.9264
  -4336907.39147  -3353407.98445  22513431.2734                   22513429.8794
 -13785769.68747 -10666760.48445  22337825.9614                   22337826.8794
  -9813153.27047  -7131341.74245  22682254.6564                   22682253.7974
   7768903.71946   6383990.84843  24296934.5864                   24296935.2114
 11  8 25  2 53 30.0000000  0 10G26G21G29G12G05G02G15G25G30G18
 -10954150.06647  -8495507.16045  21853558.2344                   21853556.8094
   5104411.67246   3996118.00043  24524588.6484                   24524587.3674
 -15969141.93447 -12277333.94946  21085808.6724                   21085806.5354
 -15031988.31247 -11675029.63344  23269378.0784                   23269376.6334
 -22167917.47348 -17244592.17646  21586332.0084                   21586329.4734
 -25363915.91447 -19734679.86745  22609956.6024                   22609952.6054
  -4457767.85947  -3447584.90645  22490432.6644                   22490430.6294
 -13760930.37947 -10647405.18745  22342553.1884                   22342553.9774
  -9782021.43447  -7107083.18745  22688178.7814                   22688178.2974
   7652871.11746   6293576.04743  24274853.1644                   24274854.4414
 11  8 25  2 54  0.0000000  0 10G26G21G29G12G05G02G15G25G30G18
 -11047566.51247  -8568299.14545  21835781.5704                   21835780.2544
   5015899.92246   3927147.87943  24507745.6414                   24507743.8164
 -16060927.93448 -12348855.47746  21068342.5704                   21068340.0664
 -14972031.57447 -11628310.14544  23280787.3674                   23280786.0204
 -22127566.44148 -17213149.80146  21594010.5084                   21594007.9494
 -25348600.01248 -19722745.40245  22612870.9774                   22612866.9924
  -4578407.51647  -3541589.75445  22467474.8364                   22467473.4804
 -13735715.16047 -10627756.96945  22347351.3054                   22347352.1764
  -9750555.89547  -7082564.61345  22694166.6884                   22694165.4964
   7537043.06646   6203320.63343  24252812.3134                   24252813.3874
 11  8 25  2 54 30.0000000  0 10G26G21G29G12G05G02G15G25G30G18
 -11140489.91447  -8640706.94945  21818099.0554                   21818097.2894
   4927361.12146   3858156.69143  24490896.6414                   24490895.2274
 -16152377.38748 -12420114.76246  21050939.9924                   21050938.2814
 -14911977.77047 -11581515.02744  23292214.8984                   23292213.5274
 -22086959.68748 -17181508.16846  21601738.0164                   21601734.9844
 -25333170.89547 -19710722.71945  22615806.7114                   22615802.8324
  -4698822.08247  -3635419.21545  22444560.8594                   22444559.4534
 -13710125.79747 -10607817.21545  22352220.6334                   22352222.1844
  -9718758.75047  -7057787.63745  22700217.6414                   22700216.6844
   7421421.75446   6113226.33243  24230810.1174                   24230810.8594
 11  8 25  2 55  0.0000000  0 10G26G21G29G12G05G02G15G25G30G18
 -11232918.92247  -8712729.50845  21800510.4384                   21800509.1724
   4838793.01646   3789142.66443  24474043.4064                   24474041.4104
 -16243490.62548 -12491112.06246  21033601.6724                   21033599.5274
 -14851831.84847 -11534648.12945  23303660.4534                   23303659.2664
 -22046101.33248 -17149670.48446  21609512.8284                   21609510.2814
 -25317630.16448 -19698613.05945  22618764.4614                   22618760.0634
  -4819010.69147  -3729072.60945  22421690.1564                   22421688.1844
 -13684167.16447 -10587589.71145  22357160.5634                   22357161.7664
  -9686635.19147  -7032756.30145  22706330.4844                   22706329.1294
   7306006.11346   6023292.28943  24208847.2814                   24208847.5314
 11  8 25  2 55 30.0000000  0 10G26G21G29G12G05G02G15G25G30G18
 -11324851.21547  -8784365.02045  21783016.0474                   21783014.3164
   4750194.78546   3720105.17243  24457183.0634                   24457181.5314
 -16334265.55947 -12561845.75446  21016327.9844                   21016325.5904
 -14791597.60947 -11487712.41044  23315123.4614                   23315121.3524
 -22004994.59848 -17117639.25046  21617335.0394                   21617332.4734
 -25301977.70747 -19686416.32445  22621742.9774                   22621738.7114
  -4938970.66847  -3822547.84445  22398862.3204                   22398860.6954
 -13657842.44547 -10567076.95345  22362169.5164                   22362171.5394
  -9654188.54747  -7007473.23045  22712505.0634                   22712504.0434
   7190796.58246   5933518.85243  24186923.2974                   24186924.1884
 11  8 25  2 56  0.0000000  0 10G26G21G29G12G05G02G15G25G30G18
 -11416283.57447  -8855610.97345  21765617.0554                   21765615.5354
   4661565.94546   3651043.81343  24440317.6174                   24440316.1334
 -16424699.75048 -12632313.94146  20999118.9844                   20999116.4264
 -14731278.26647 -11440710.37544  23326601.1644                   23326600.0514
 -21963641.81648 -17085416.30146  21625204.4144                   21625202.0004
 -25286213.36747 -19674132.41845  22624743.0634                   22624738.8524
  -5058698.77047  -3915842.40245  22376078.4844                   22376077.0354
 -13631154.57847 -10546281.22345  22367248.3284                   22367249.7854
  -9621422.11347  -6981940.96145  22718739.8914                   22718739.2854
   7075794.36346   5843906.94143  24165039.3914                   24165039.5514
 11  8 25  2 56 30.0000000  0 10G26G21G29G12G05G02G15G25G30G18
 -11507213.51247  -8926465.42645  21748313.8054                   21748311.7894
   4572905.04346   3581957.51244  24423445.6484                   24423444.7974
 -16514791.75048 -12702515.48446  20981975.0394                   20981972.8674
 -14670877.77047 -11393645.11344  23338095.0084                   23338093.7504
 -21922046.43748 -17053004.30546  21633119.6024                   21633117.1174
 -25270337.52047 -19661761.63745  22627763.7664                   22627759.9494
  -5178192.93747  -4008954.66445  22353339.3594                   22353337.8714
 -13604107.33647 -10525205.46545  22372395.4924                   22372396.9494
  -9588339.90647  -6956162.64545  22725035.2894                   22725034.6094
   6960999.35546   5754456.48843  24143194.4614                   24143195.1054
 11  8 25  2 57  0.0000000  0 10G26G21G29G12G05G02G15G25G30G18
 -11597633.84047  -8996922.77345  21731106.9614                   21731105.3284
   4484216.09046   3512849.30944  24406569.4224                   24406567.9574
 -16604535.16848 -12772445.41046  20964897.5004                   20964894.9414
 -14610394.50847 -11346515.33644  23349604.8134                   23349603.8914
 -21880206.29748 -17020401.59046  21641081.5864                   21641079.2894
 -25254345.18447 -19649300.07845  22630807.3914                   22630803.0664
  -5297445.64547  -4101878.78545  22330646.5394                   22330644.9614
 -13576699.21547 -10503848.48845  22377611.2584                   22377612.3594
  -9554940.67247  -6930137.29345  22731391.0234                   22731390.0514
   6846417.19947   5665171.88343  24121389.9454                   24121390.6294
 11  8 25  2 57 30.0000000  0 10G26G21G29G12G05G02G15G25G30G18
 -11687542.35947  -9066981.33245  21713998.1724                   21713996.6454
   4395497.43046   3443717.97343  24389685.9614                   24389684.5234
 -16693928.53548 -12842102.57446  20947886.4304                   20947884.4064
 -14549832.66447 -11299324.34844  23361129.4694                   23361128.1804
 -21838125.13348 -16987611.06646  21649089.0394                   21649087.1454
 -25238237.21547 -19636748.41045  22633871.9304                   22633868.0004
  -5416454.93447  -4194613.22745  22307999.3984                   22307997.9774
 -13548934.10947 -10482213.35945  22382895.0164                   22382896.4804
  -9521228.54347  -6903868.12145  22737806.0864                   22737805.6484
   6732047.60246   5576052.91043  24099626.4064                   24099625.7704
 11  8 25  2 58  0.0000000  0 10G26G21G29G12G05G02G15G25G30G18
 -11776943.44947  -9136644.47745  21696985.6094                   21696984.2304
   4306741.85946   3374557.86743  24372796.2664                   24372794.4574
 -16782976.35248 -12911490.47346  20930941.0164                   20930939.0904
 -14489202.28147 -11252079.93044  23372666.9774                   23372665.8484
 -21795812.62948 -16954640.27746  21657140.8984                   21657138.5164
 -25222020.09447 -19624111.69945  22636958.2664                   22636954.6054
  -5535224.91047  -4287161.19545  22285398.4064                   22285396.7854
 -13520822.07447 -10460307.88746  22388244.4304                   22388245.9494
  -9487213.87947  -6877363.21545  22744278.6174                   22744278.1134
   6617884.43046   5487094.78943  24077901.1414                   24077901.6094
 11  8 25  2 58 30.0000000  0 10G26G21G29G12G05G02G15G25G30G18
 -11865843.34047  -9205917.07845  21680068.4144                   21680067.1484
   4217939.50046   3305361.30944  24355898.3674                   24355896.7074
 -16871686.06648 -12980614.92646  20914060.5394                   20914057.6954
 -14428516.02747 -11204792.00444  23384214.5004                   23384214.0664
 -21753280.62148 -16921498.46146  21665234.5084                   21665232.6254
 -25205702.84847 -19611396.95745  22640062.9694                   22640059.4844
  -5653761.93447  -4379527.62545  22262841.5164                   22262840.0984
 -13492375.47347 -10438141.73045  22393657.4614                   22393658.9964
  -9452909.22347  -6850632.34845  22750806.9144                   22750806.5744
   6503919.09447   5398290.80543  24056214.7664                   24056214.2624
 11  8 25  2 59  0.0000000  0 10G26G21G29G12G05G02G15G25G30G18
 -11954219.95747  -9274781.94145  21663250.7584                   21663249.0204
   4129109.00646   3236142.81243  24338993.9144                   24338992.5434
 -16960036.09848 -13049459.09446  20897247.7894                   20897245.7584
 -14367757.56646 -11157447.80544  23395777.3444                   23395775.7854
 -21710512.67248 -16888172.78546  21673372.7664                   21673370.7974
 -25189265.59847 -19598588.71145  22643191.2194                   22643187.8054
  -5772043.66047  -4471695.12945  22240333.1414                   22240331.5434
 -13463577.94147 -10415702.11345  22399137.5084                   22399138.6954
  -9418298.60947  -6823663.05944  22757392.4144                   22757392.3324
   6390171.91846   5309656.82043  24034568.8834                   24034568.8134
 11  8 25  2 59 30.0000000  0 10G26G21G29G12G05G02G15G25G30G18
 -12042080.69547  -9343244.81645  21646531.4064                   21646530.3444
   4040239.43846   3166893.89844  24322082.4844                   24322081.0124
 -17048034.67648 -13118029.40646  20880502.4384                   20880500.2304
 -14306940.63747 -11110058.04744  23407350.3984                   23407349.1524
 -21667521.13748 -16854672.88746  21681553.8364                   21681551.8244
 -25172718.73847 -19585695.06645  22646339.7894                   22646336.0434
  -5890077.44947  -4563669.45345  22217872.1024                   22217870.2074
 -13434442.89147 -10392999.48445  22404681.7344                   22404682.6844
  -9383395.53147  -6796465.87944  22764034.6334                   22764034.5594
   6276633.40646   5221185.43843  24012963.1334                   24012963.3324
 11  8 25  3  0  0.0000000  0 10G26G21G29G12G05G02G15G25G30G18
 -12129424.74647  -9411305.07445  21629910.4224                   21629908.9884
   3951327.62546   3097612.06343  24305163.2504                   24305162.0594
 -17135681.58648 -13186325.69146  20863823.5084                   20863821.6884
 -14246070.32447 -11062626.69144  23418933.8134                   23418932.6174
 -21624310.77748 -16821002.48046  21689776.9064                   21689774.4024
 -25156063.78147 -19572717.18045  22649509.3524                   22649505.7894
  -6007862.53147  -4655449.97345  22195458.3054                   22195456.5044
 -13404975.34047 -10370037.77045  22410289.1334                   22410290.3834
  -9348205.46547  -6769045.07044  22770730.9924                   22770730.9574
   6163302.54347   5132875.85243  23991396.5944                   23991396.6294
 11  8 25  3  0 30.0000000  0 10G26G21G29G12G05G02G15G25G30G18
 -12216244.51247  -9478956.79745  21613389.3134                   21613387.7934
   3862378.64146   3028301.24643  24288236.1024                   24288234.9844
 -17222969.63348 -13254342.33646  20847213.2504                   20847210.9384
 -14185144.83247 -11015152.32444  23430527.8364                   23430526.2974
 -21580879.45348 -16787159.89146  21698041.6254                   21698039.1884
 -25139295.57847 -19559651.05545  22652699.8134                   22652696.3404
  -6125391.03947  -4747030.55945  22173093.3524                   22173091.7074
 -13375173.73047 -10346815.75045  22415960.2664                   22415961.2114
  -9312726.75447  -6741399.34445  22777482.8444                   22777482.1724
   6050184.53146   5044732.12143  23969870.7664                   23969870.2664
 11  8 25  3  1  0.0000000  0 10G26G21G29G12G05G02G15G25G30G18
 -12302532.89847  -9546194.46945  21596968.9224                   21596967.4734
   3773395.94946   2958964.18443  24271303.9224                   24271302.1334
 -17309892.77748 -13322074.63746  20830672.5634                   20830670.0234
 -14124163.20747 -10967634.22744  23442131.7664                   23442131.0434
 -21537225.77348 -16753144.03146  21706348.2734                   21706346.0394
 -25122409.87947 -19546493.37544  22655913.1564                   22655909.6914
  -6242656.25847  -4838405.98845  22150778.0394                   22150776.9224
 -13345037.01647 -10323332.61745  22421695.1334                   22421696.0354
  -9276958.78147  -6713528.21544  22784289.5864                   22784288.2194
   5937284.52746   4956758.27343  23948386.7424                   23948385.8794
 11  8 25  3  1 30.0000000  0 10G26G21G29G12G05G02G15G25G30G18
 -12388293.39847  -9613020.80145  21580649.5554                   21580648.0984
   3684372.93446   2889595.67643  24254362.6414                   24254361.7584
 -17396454.82048 -13389525.55946  20814199.8754                   20814198.2304
 -14063134.62147 -10920079.53544  23453744.9454                   23453744.4454
 -21493357.98048 -16718961.34046  21714696.4064                   21714693.9064
 -25105412.28947 -19533248.51645  22659147.8594                   22659143.9844
  -6359660.59447  -4929578.13745  22128513.1804                   22128511.3674
 -13314574.08647 -10299595.29745  22427492.3674                   22427493.4104
  -9240910.69947  -6685438.82044  22791148.4774                   22791148.2384
   5824597.07847   4868950.02743  23926943.0784                   23926942.3634
 11  8 25  3  2  0.0000000  0 10G26G21G29G12G05G02G15G25G30G18
 -12473516.84847  -9679428.64545  21564431.6724                   21564430.5164
   3595315.25446   2820200.16043  24237415.2424                   24237414.3284
 -17482647.48048 -13456688.65246  20797798.0084                   20797795.9264
 -14002056.08247 -10872485.91844  23465368.1724                   23465367.1294
 -21449272.55148 -16684609.05546  21723085.5474                   21723083.0204
 -25088296.11347 -19519911.23045  22662405.1414                   22662401.6094
  -6476395.48047  -5020540.31245  22106299.5234                   22106297.6454
 -13283781.91847 -10275601.41445  22433351.6254                   22433352.7154
  -9204579.62547  -6657128.91445  22798062.6724                   22798062.4384
   5712129.71947   4781313.27343  23905541.0394                   23905540.3244
 11  8 25  3  2 30.0000000  0 10G26G21G29G12G05G02G15G25G30G18
 -12558204.98847  -9745419.37145  21548316.4534                   21548314.4964
   3506218.07846   2750773.86343  24220460.5004                   24220459.7274
 -17568472.70748 -13523565.41846  20781466.0634                   20781464.0164
 -13940934.93047 -10824859.09444  23476999.0554                   23476998.0434
 -21404976.43748 -16650092.61346  21731514.9064                   21731511.8054
 -25071065.52747 -19506484.80145  22665684.2114                   22665680.2894
  -6592862.14147  -5111293.49245  22084136.5314                   22084134.6094
 -13252667.89147 -10251356.75445  22439271.7274                   22439273.9144
  -9167973.22347  -6628604.47344  22805028.7894                   22805028.5354
   5599878.72347   4693845.11743  23884180.5004                   23884179.5824
 11  8 25  3  3  0.0000000  0 10G26G21G29G12G05G02G15G25G30G18
 -12642349.38747  -9810986.39845  21532303.9844                   21532302.6524
   3417086.15246   2681320.48043  24203500.1804                   24203498.0354
 -17653922.96548 -13590150.00846  20765205.3054                   20765203.2154
 -13879768.94947 -10777197.33644  23488638.2344                   23488637.5004
 -21360466.62148 -16615409.63746  21739984.6024                   21739981.9774
 -25053714.92247 -19492964.84045  22668985.4384                   22668981.7304
  -6709052.39847  -5201831.28945  22062026.1564                   22062024.5164
 -13221229.84847 -10226859.60545  22445254.7114                   22445255.8674
  -9131089.49247  -6599863.93744  22812047.5784                   22812046.7234
   5487849.84846   4606550.02043  23862861.5084                   23862861.2854
 11  8 25  3  3 30.0000000  0 10G26G21G29G12G05G02G15G25G30G18
 -12725947.34847  -9876127.64145  21516396.0394                   21516394.4224
   3327919.57046   2611840.09843  24186532.3364                   24186530.5164
 -17738996.28548 -13656440.87146  20749016.3134                   20749014.3134
 -13818560.84847 -10729502.77344  23500286.5704                   23500285.6024
 -21315745.46948 -16580561.99246  21748494.9384                   21748492.1294
 -25036243.27047 -19479350.57445  22672310.1644                   22672306.6914
  -6824962.83247  -5292151.05945  22039969.0474                   22039967.3164
 -13189470.47347 -10202112.05945  22451298.6024                   22451299.6484
  -9093931.39547  -6570909.59844  22819118.0784                   22819117.8794
   5376044.24247   4519428.90243  23841585.9144                   23841585.1374
 11  8 25  3  4  0.0000000  0 10G26G21G29G12G05G02G15G25G30G18
 -12808999.00448  -9940843.18445  21500591.7664                   21500589.8444
   3238714.55146   2542329.74243  24169556.5234                   24169554.7664
 -17823693.07448 -13722438.33246  20732898.9224                   20732896.8634
 -13757317.07447 -10681780.41044  23511940.8594                   23511940.2974
 -21270818.32848 -16545553.83646  21757044.1334                   21757041.6764
 -25018653.47347 -19465644.22745  22675657.6884                   22675653.9224
  -6940593.55147  -5382252.85545  22017965.3054                   22017963.3874
 -13157395.91047 -10177118.91045  22457402.1334                   22457403.3714
  -9056505.27747  -6541746.41445  22826240.3834                   22826239.9224
   5264459.94146   4432480.25043  23820352.2034                   23820351.1954
 11  8 25  3  4 30.0000000  0 10G26G21G29G12G05G02G15G25G30G18
 -12891501.68748 -10005130.95745  21484892.1724                   21484890.2274
   3149470.96146   2472789.33243  24152574.5394                   24152573.0514
 -17908011.02048 -13788140.60246  20716854.1094                   20716852.1914
 -13696040.25047 -10634032.31244  23523601.0314                   23523600.5044
 -21225687.91448 -16510387.28546  21765631.7274                   21765629.8834
 -25000945.00447 -19451845.43445  22679027.5004                   22679023.6054
  -7055942.04347  -5472134.73845  21996014.8914                   21996013.0904
 -13125009.19147 -10151882.54345  22463564.5234                   22463566.3164
  -9018814.38747  -6512376.91045  22833412.5084                   22833412.0514
   5153097.44146   4345704.40243  23799160.5004                   23799160.0234
 11  8 25  3  5  0.0000000  0 10G26G21G29G12G05G02G15G25G30G18
 -12973459.75047 -10068994.35545  21469295.7344                   21469293.9574
   3060181.18446   2403212.92643  24135583.7034                   24135581.5004
 -17991955.59048 -13853551.91446  20700879.6414                   20700877.4574
 -13634740.77047 -10586266.55144  23535266.2664                   23535265.9304
 -21180363.89148 -16475069.86746  21774257.0704                   21774254.8524
 -24983124.69547 -19437959.48845  22682418.7274                   22682414.3794
  -7171011.82047  -5561799.44545  21974118.1804                   21974115.8094
 -13092320.59047 -10126410.93045  22469785.2814                   22469786.7974
  -8980869.14147  -6482809.21144  22840633.2424                   22840633.0204
   5041950.27746   4259096.38743  23778009.2344                   23778009.2074
 11  8 25  3  5 30.0000000  0 10G26G21G29G12G05G02G15G25G30G18
 -13054856.44547 -10132420.31245  21453806.6254                   21453804.5204
   2970859.25046   2333611.45343  24118586.5234                   24118583.8754
 -18075510.00048 -13918659.21946  20684979.8054                   20684977.7344
 -13573407.07846 -10538474.14544  23546937.6804                   23546937.1724
 -21134834.00848 -16439592.03146  21782921.1804                   21782918.7194
 -24965177.72347 -19423974.84045  22685833.8134                   22685829.7154
  -7285785.94147  -5651233.77345  21952276.9694                   21952275.2114
 -13059318.78947 -10100695.27045  22476065.7664                   22476066.8634
  -8942658.51247  -6453034.71544  22847904.8754                   22847904.2464
   4931034.07846   4172668.31343  23756902.4924                   23756901.6764
 11  8 25  3  6  0.0000000  0 10G26G21G29G12G05G02G15G25G30G18
 -13135698.52047 -10195414.12145  21438423.0164                   21438421.0314
   2881494.82046   2263976.85943  24101579.4924                   24101577.7034
 -18158681.67648 -13983468.28546  20669152.7664                   20669150.8794
 -13512052.48446 -10490665.45344  23558612.9924                   23558612.1724
 -21089110.84848 -16403963.60546  21791622.2034                   21791619.6374
 -24947113.66047 -19409898.95345  22689271.1954                   22689267.6994
  -7400271.09447  -5740442.92645  21930491.1334                   21930488.8874
 -13026016.73447 -10074745.64545  22482402.7664                   22482404.0704
  -8904195.49647  -6423063.57045  22855223.9144                   22855223.6524
   4820339.58246   4086413.01243  23735837.9614                   23735837.2304
 11  8 25  3  6 30.0000000  0 10G26G21G29G12G05G02G15G25G30G18
 -13215975.69947 -10257967.74245  21423146.8524                   21423144.9734
   2792095.28947   2194314.92643  24084567.5394                   24084565.5354
 -18241460.65248 -14047971.35246  20653400.4534                   20653398.2504
 -13450671.66446 -10442836.32844  23570293.1414                   23570293.0004
 -21043188.65248 -16368180.07846  21800360.6254                   21800358.6294
 -24928923.98847 -19395725.18745  22692732.4844                   22692728.6414
  -7514456.38747  -5829418.41445  21908762.4454                   21908760.8714
 -12992409.45347 -10048558.18045  22488797.9694                   22488799.3754
  -8865475.51247  -6392892.18445  22862591.8594                   22862591.5394
   4709875.52346   4000337.23843  23714817.6484                   23714816.5704
 11  8 25  3  7  0.0000000  0 10G26G21G29G12G05G02G15G25G30G18
 -13295688.29347 -10320081.43045  21407977.6804                   21407976.0984
   2702657.37947   2124623.09043  24067548.6024                   24067546.4304
 -18323847.90648 -14112169.18046  20637722.6884                   20637720.4454
 -13389270.58246 -10394991.41844  23581977.9224                   23581977.1374
 -20997073.03548 -16332245.83646  21809136.0784                   21809133.8244
 -24910611.19547 -19381455.48044  22696217.2664                   22696213.5354
  -7628341.97747  -5918160.37146  21887090.6724                   21887088.8284
 -12958503.12547 -10022137.69545  22495250.0704                   22495251.5554
  -8826504.80147  -6362525.44144  22870008.0084                   22870007.4844
   4599639.52346   3914439.18843  23693840.3134                   23693839.3164
 11  8 25  3  7 30.0000000  0 10G26G21G29G12G05G02G15G25G30G18
 -13374838.87548 -10381757.17645  21392915.7274                   21392914.4844
   2613175.42647   2054896.93044  24050520.6484                   24050518.7624
 -18405846.24648 -14176063.96546  20622118.9144                   20622116.6174
 -13327857.80947 -10347137.35944  23593664.2974                   23593663.2194
 -20950771.77748 -16296166.93046  21817947.1334                   21817944.9104
 -24892180.48847 -19367093.91844  22699724.4694                   22699721.1724
  -7741930.15247  -6006670.58245  21865475.5634                   21865473.9064
 -12924306.19547  -9995490.76245  22501757.6884                   22501758.6334
  -8787291.94147  -6331969.99244  22877470.2974                   22877469.4614
   4489627.07846   3828715.31643  23672905.4304                   23672904.2154
 11  8 25  3  8  0.0000000  0 10G26G21G29G12G05G02G15G25G30G18
 -13453417.42648 -10442987.18745  21377962.6024                   21377961.0204
   2523656.46147   1985141.93043  24033485.6174                   24033483.7344
 -18487446.45348 -14239648.52046  20606591.1174                   20606588.9384
 -13266428.75847 -10299270.61744  23605353.6564                   23605352.4774
 -20904279.80148 -16259939.42646  21826793.9224                   21826791.7734
 -24873623.81647 -19352634.18745  22703255.8524                   22703252.1214
  -7855210.53147  -6094940.95346  21843918.6724                   21843916.6994
 -12889814.26247  -9968613.96145  22508321.1414                   22508322.7074
  -8747832.84047  -6301222.66444  22884979.0704                   22884978.1454
   4379846.27046   3743171.92643  23652014.9064                   23652014.0354
 11  8 25  3  8 30.0000000  0 10G26G21G29G12G05G02G15G25G30G18
 -13531418.85548 -10503767.50045  21363119.4304                   21363118.0514
   2434102.75447   1915359.88344  24016444.2504                   24016442.1564
 -18568643.58648 -14302918.98846  20591139.7424                   20591137.1954
 -13204984.04747 -10251391.68444  23617046.3134                   23617045.6884
 -20857597.07848 -16223563.28146  21835677.5784                   21835675.2734
 -24854938.64147 -19338074.32045  22706811.5164                   22706807.6884
  -7968177.81647  -6182967.34845  21822421.8674                   21822419.8594
 -12855027.87947  -9941507.71945  22514940.8674                   22514942.7154
  -8708128.14147  -6270283.96544  22892534.6884                   22892534.2304
   4270300.53546   3657811.75043  23631168.2664                   23631168.0124
 11  8 25  3  9  0.0000000  0 10G26G21G29G12G05G02G15G25G30G18
 -13608853.18047 -10564105.90245  21348384.1564                   21348382.6484
   2344501.51247   1845540.77343  23999393.6954                   23999391.3634
 -18649448.32848 -14365883.70346  20575762.9694                   20575760.7894
 -13143538.80947 -10203512.33644  23628739.0084                   23628737.8674
 -20810738.29348 -16187049.94946  21844594.5474                   21844592.2344
 -24836136.43047 -19323423.27044  22710389.4774                   22710385.8364
  -8080841.37947  -6270757.08646  21800982.4144                   21800980.4964
 -12819962.74247  -9914184.27045  22521614.1334                   22521615.5044
  -8668193.79347  -6239166.32444  22900133.9144                   22900133.2504
   4160978.36746   3572625.73443  23610365.1334                   23610364.7344
 11  8 25  3  9 30.0000000  0 10G26G21G29G12G05G02G15G25G30G18
 -13685717.76248 -10624000.35545  21333757.5084                   21333755.6174
   2254852.66847   1775684.56643  23982334.1334                   23982331.7504
 -18729857.80548 -14428540.42246  20560461.4534                   20560459.3444
 -13082096.00847 -10155634.89144  23640431.7664                   23640430.5124
 -20763705.44948 -16150400.97746  21853544.6724                   21853542.3134
 -24817216.66847 -19308680.61345  22713989.9454                   22713986.1174
  -8193197.96947  -6358307.62946  21779601.4224                   21779599.8444
 -12784621.57447  -9886645.71945  22528338.9454                   22528340.4804
  -8628032.60247  -6207871.90244  22907776.5554                   22907775.6524
   4051880.14547   3487614.23444  23589603.8914                   23589603.3094
 11  8 25  3 10  0.0000000  0 10G26G21G29G12G05G02G15G25G30G18
 -13762011.34048 -10683449.86745  21319239.2814                   21319237.4104
   2165153.81647   1705789.43044  23965264.4774                   23965263.0354
 -18809871.24248 -14490888.52746  20545235.7344                   20545233.3984
 -13020660.21147 -10107762.91044  23652122.8134                   23652121.8754
 -20716502.96948 -16113619.82846  21862526.5234                   21862524.3364
 -24798180.50447 -19293847.25844  22717612.1174                   22717608.6564
  -8305246.62547  -6445618.21945  21758279.6254                   21758277.8834
 -12749009.18447  -9858895.84445  22535115.6334                   22535117.3954
  -8587649.58247  -6176404.63744  22915460.5944                   22915460.4694
   3943005.05947   3402776.60944  23568886.2034                   23568885.2934
 11  8 25  3 10 30.0000000  0 10G26G21G29G12G05G02G15G25G30G18
 -12262300.76648  -9514844.19946  21604624.6484                   21604622.8794
   3650836.17647   2863464.06344  24247980.4924                   24247978.7424
 -17314056.12148 -13325318.28146  20829879.4304                   20829877.4344
 -11383807.46147  -8832293.29344  23963605.6174                   23963605.1454
 -19093705.88747 -14849102.62946  22171334.9064                   22171332.7544
 -23203599.50447 -18051316.62944  23021051.0944                   23021046.8634
  -6841551.74647  -5305076.70345  22036811.5234                   22036809.4574
 -11137701.25847  -8603331.25845  22841737.7274                   22841739.0744
  -6971620.78547  -4917161.44544  23222981.1174                   23222980.1454
   5409786.33247   4545723.14543  23848005.3364                   23848004.5594
 11  8 25  3 11  0.0000000  0 10G26G21G29G12G05G02G15G25G30G18
 -12337423.71148  -9573381.52745  21590328.9224                   21590327.4184
   3561058.39847   2793507.41844  24230896.2664                   24230894.2464
 -17393250.91048 -13387028.49646  20814809.1414                   20814806.8524
 -11322372.59847  -8784422.03144  23975295.6174                   23975295.2384
 -19046149.07848 -14812045.37545  22180384.8754                   22180382.3674
 -23184307.74247 -18036284.11344  23024722.0784                   23024718.4064
  -6952953.37547  -5391883.11746  22015612.4924                   22015610.5044
 -11101534.02047  -8575149.02045  22848620.0004                   22848621.1524
  -6930782.22747  -4885339.21944  23230752.7114                   23230751.7734
   5301381.66047   4461252.06343  23827376.8054                   23827375.3404
 11  8 25  3 11 30.0000000  0 10G26G21G29G12G05G02G15G25G30G18
 -12411969.85248  -9631469.39845  21576143.4384                   21576141.9104
   3471228.82847   2723510.41044  24213802.4144                   24213800.8874
 -17472045.18448 -13448426.60946  20799815.4844                   20799813.1804
 -11260954.92247  -8736564.19544  23986982.7344                   23986983.0744
 -18998430.75048 -14774862.27346  22189465.3594                   22189462.9064
 -23164899.69547 -18021160.96944  23028415.4304                   23028411.9454
  -7064039.25847  -5478443.49646  21994473.5474                   21994471.8594
 -11065106.23047  -8546763.77045  22855551.7114                   22855553.6454
  -6889733.05547  -4853352.88344  23238563.5864                   23238563.3204
   5193200.98046   4376955.52043  23806790.4614                   23806789.0944
 11  8 25  3 12  0.0000000  0 10G26G21G29G12G05G02G15G25G30G18
 -12485924.96948  -9689096.72745  21562070.2504                   21562068.6134
   3381358.61747   2653481.77044  24196700.5554                   24196698.7114
 -17550425.10948 -13509501.86346  20784900.0084                   20784897.7464
 -11199545.49647  -8688712.78144  23998669.1724                   23998668.9734
 -18950541.77048 -14737546.18745  22198578.2734                   22198575.9844
 -23145363.38347 -18005937.89144  23032133.0634                   23032128.9774
  -7174794.89147  -5564746.54346  21973397.4774                   21973395.5904
 -11028409.35547  -8518168.82445  22862535.0554                   22862536.8524
  -6848464.82847  -4821195.84844  23246416.9224                   23246416.1214
   5085256.80946   4292843.25843  23786249.2424                   23786248.1054
 11  8 25  3 12 30.0000000  0 10G26G21G29G12G05G02G15G25G30G18
 -12559288.12148  -9746262.79745  21548109.9534                   21548108.2814
   3291446.23047   2583420.24244  24179591.0944                   24179588.9844
 -17628389.50448 -13570253.33246  20770063.6174                   20770061.6214
 -11138148.46546  -8640871.02744  24010352.7584                   24010352.4024
 -18902485.82448 -14700100.00046  22207722.7894                   22207720.3054
 -23125699.40647 -17990615.33244  23035875.4144                   23035871.2274
  -7285218.67247  -5650790.99646  21952384.3674                   21952382.4184
 -10991447.68747  -8489367.55545  22869568.7274                   22869570.1994
  -6806981.95347  -4788871.56644  23254310.5164                   23254310.6024
   4977548.34047   4208914.66443  23765752.7274                   23765751.3524
 11  8 25  3 13  0.0000000  0 10G26G21G29G12G05G02G15G25G30G18
 -12632059.09448  -9802967.41445  21534261.8834                   21534259.8984
   3201488.60547   2513323.48043  24162471.8754                   24162470.2074
 -17705939.03948 -13630681.53946  20755306.8054                   20755304.5204
 -11076769.39547  -8593043.27044  24022032.8204                   24022032.6334
 -18854267.57048 -14662527.32445  22216898.4224                   22216896.1954
 -23105909.97347 -17975195.02744  23039640.7424                   23039637.3134
  -7395310.15647  -5736576.53146  21931434.7274                   21931432.6994
 -10954226.90647  -8460364.37945  22876651.7114                   22876652.7734
  -6765290.36747  -4756384.64544  23262244.3444                   23262243.7424
   4870074.07847   4125168.58243  23745300.4304                   23745299.6524
 11  8 25  3 13 30.0000000  0 10G26G21G29G12G05G02G15G25G30G18
 -12704239.71548  -9859212.03145  21520526.2814                   21520524.8134
   3111481.78147   2443188.39844  24145343.9694                   24145342.9654
 -17783075.55548 -13690787.89847  20740628.1094                   20740625.8094
 -11015415.04347  -8545234.78144  24033708.6024                   24033707.7274
 -18805893.03148 -14624832.87946  22226103.7894                   22226101.2234
 -23085998.28547 -17959679.45745  23043430.0084                   23043426.1564
  -7505070.56647  -5822104.08246  21910547.7734                   21910545.9344
 -10916754.06648  -8431164.78545  22883782.4694                   22883784.2704
  -6723397.18047  -4723740.65644  23270216.2194                   23270215.7464
   4762830.93447   4041602.57843  23724892.7734                   23724892.3984
